GFSSE_con_mlcape_003.txt.gz
CAPE
224 626 738 773 894 1126 1253 1098 988 1047 1112 1303 1310 1292 1301 1284 1077 929 810 764 748 481 317 435 535 876 1079 1077 786 388 747 831 473 362 578 922 951 973 1030 962 914 1048 633
357 833 917 1049 1164 1205 1374 1282 1134 1091 1120 1311 1315 1230 1161 1029 1198 1014 724 525 413 394 481 542 590 894 1179 1420 746 473 293 739 919 645 442 875 1048 1235 1057 1274 1051 1067 809
503 885 1090 1144 1242 1288 1355 1474 1421 1459 1446 1281 1264 1216 1089 960 1283 1100 727 506 543 514 702 812 773 1475 1792 1570 1196 892 698 626 805 575 646 542 479 1352 1182 1103 1069 988 959
456 812 1002 1182 1344 1583 1668 1770 1817 1890 1792 1603 1366 1177 1062 1131 1216 1229 994 532 420 301 467 911 1301 1115 1074 753 715 807 802 847 692 509 607 663 902 1135 1080 809 1067 986 814
331 714 1003 981 1126 1381 1724 2033 2154 2241 2157 2018 1925 1923 1764 1671 1594 1442 925 434 410 524 789 1091 1171 1231 1160 988 1000 630 498 552 668 850 960 780 737 995 1331 803 583 909 897
203 559 730 819 1065 1204 1350 1533 1761 1872 1930 1741 1632 1627 1680 1708 1566 1089 710 532 641 791 960 838 594 365 614 1075 1029 809 643 767 582 1020 1003 784 800 671 1046 1416 859 461 745
118 435 689 555 537 632 804 843 776 819 992 1111 1184 1240 1338 1314 927 537 360 585 824 896 861 714 533 352 140 137 168 134 216 445 658 612 833 634 547 624 702 613 839 678 412
64 330 476 516 529 507 494 512 514 693 832 811 784 1051 1276 1103 964 837 754 641 500 284 243 222 399 670 688 580 511 406 173 205 584 537 507 608 398 437 538 349 524 568 508
293 283 432 477 344 293 297 277 384 531 628 607 571 513 491 602 526 399 310 223 121 97 80 44 65 102 142 116 103 135 357 378 824 534 357 306 153 227 235 273 394 440 454
234 264 231 218 91 49 137 117 169 252 396 394 282 166 104 146 90 64 0 0 0 0 0 0 0 0 0 0 0 0 0 0 124 103 68 74 44 245 234 153 469 561 438
222 247 230 139 51 4 17 131 137 242 422 406 284 108 66 74 13 0 0 0 0 0 0 0 0 0 0 0 0 0 0 0 0 0 0 0 0 54 245 320 314 506 666
457 420 280 256 202 13 3 174 176 244 559 706 580 288 122 106 42 3 0 0 0 0 0 0 0 0 0 0 0 0 0 0 0 0 0 0 0 3 80 121 224 332 434
737 710 356 416 369 144 6 206 157 117 267 443 557 476 187 114 68 25 0 0 0 0 0 0 0 0 0 0 0 0 0 0 0 0 0 0 0 6 68 144 186 204 255
939 1022 897 507 481 579 594 452 289 202 168 300 371 309 262 146 15 0 0 0 0 0 0 0 0 0 0 0 0 0 0 0 0 0 0 0 0 0 0 0 6 179 181
1017 1128 1119 825 502 518 348 464 442 349 228 344 392 337 216 107 2 0 0 0 0 0 0 0 0 0 0 0 0 0 0 0 0 0 0 0 0 0 0 0 0 0 63
614 836 867 273 69 143 36 46 56 68 178 215 248 286 231 67 8 0 0 0 0 0 0 0 0 0 0 0 0 0 0 0 0 0 0 0 0 0 0 0 0 0 0
256 367 398 0 0 0 0 0 0 0 0 0 0 3 13 1 0 0 0 0 0 0 0 0 0 0 0 0 0 0 0 0 0 0 0 0 0 0 0 0 0 0 1
3 66 24 0 0 0 0 0 0 0 0 0 0 0 0 0 0 0 0 0 14 22 0 0 0 0 0 0 0 0 0 0 0 0 0 0 0 0 0 0 0 0 0
0 19 0 0 0 0 0 0 0 0 0 0 0 0 0 0 0 0 0 0 0 0 0 0 0 0 0 0 0 0 0 0 0 0 0 0 0 0 0 0 0 0 0
0 0 0 0 0 0 0 0 0 0 0 0 0 0 0 0 0 0 0 0 0 0 0 0 0 0 0 0 0 0 0 0 0 0 0 0 0 0 0 0 0 0 0
0 0 0 0 0 0 0 0 0 0 0 0 0 0 0 0 0 0 0 0 0 0 0 0 0 0 0 0 0 0 0 0 0 0 0 0 0 0 0 0 0 0 0
0 0 0 0 0 0 0 0 0 0 0 0 0 0 0 0 0 0 0 0 0 0 0 0 0 0 0 0 0 0 0 0 0 0 0 0 0 0 0 0 0 0 0
0 0 0 0 0 0 0 0 0 0 0 0 0 0 0 0 0 0 0 0 0 0 0 0 0 0 0 0 0 0 0 0 0 0 0 0 0 0 0 0 0 0 0
0 0 0 0 0 0 0 0 0 0 0 0 0 0 0 0 0 0 0 0 0 0 0 0 0 0 0 0 0 0 0 0 0 0 0 0 0 0 0 0 0 0 0
0 0 0 0 0 0 0 0 0 0 0 0 0 0 0 0 0 0 0 0 0 0 0 0 0 0 0 0 0 0 0 0 0 0 0 0 0 0 0 0 0 0 0
0 0 0 0 0 0 0 0 0 0 0 0 0 0 0 0 0 0 0 0 0 0 0 0 0 0 0 0 0 0 0 0 0 0 0 0 0 0 0 0 0 0 0

GFSSE_con_mlcape_006.txt.gz
CAPE
266 623 564 672 770 944 906 831 786 889 1104 1243 1276 1271 1185 1150 1044 930 826 724 478 419 570 666 659 959 1120 1122 1066 644 886 791 695 691 767 1124 1199 1329 1272 1166 980 978 773
417 828 707 879 994 1041 1080 992 937 985 1225 1327 1418 1394 1327 1405 1200 812 560 447 398 523 753 818 722 1244 1652 1650 1422 1051 824 823 879 633 574 490 1125 1312 1371 1172 1017 942 690
496 883 1024 1052 1227 1221 1275 1249 1209 1179 1171 1346 1393 1254 1138 1368 1377 1099 768 607 560 515 736 1200 1289 1430 1507 1463 1160 1226 1102 999 786 472 356 386 604 955 1345 1189 1104 980 756
538 1004 1169 1089 1313 1460 1504 1515 1547 1640 1667 1525 1385 1366 1409 1456 1531 1223 774 576 632 825 1052 1187 1303 1513 1318 1037 1049 940 890 896 979 726 512 689 593 857 1897 1177 1013 926 981
462 744 1031 1054 1219 1564 1826 1918 1987 1994 1794 1699 1628 1697 1661 1639 1428 1196 787 447 562 847 1069 1153 1012 707 735 1189 976 776 634 652 716 843 1128 1026 769 942 888 1172 882 659 708
242 499 656 802 930 1089 1278 1360 1433 1575 1631 1450 1321 1444 1558 1527 1089 532 392 424 542 837 860 782 523 417 214 303 936 1045 735 877 619 966 1159 1093 658 831 581 648 732 711 825
96 292 299 515 604 634 658 686 776 917 954 990 1118 1281 1152 945 720 505 535 725 754 719 447 441 663 767 712 570 348 240 305 682 962 1015 1188 1080 994 657 468 271 496 609 494
86 277 271 166 265 362 409 357 328 423 556 610 671 874 838 651 527 520 413 333 239 144 95 104 131 244 326 374 521 666 494 325 678 1086 817 807 720 607 701 641 315 490 526
61 193 361 377 353 169 226 225 307 538 517 425 390 333 358 379 321 266 198 105 68 47 22 0 0 2 18 22 32 102 249 342 1008 967 804 692 261 432 433 314 214 213 334
213 222 453 605 464 567 481 31 111 271 338 285 206 99 67 103 22 0 0 0 0 0 0 0 0 0 0 0 0 0 0 31 479 574 531 291 55 274 446 207 100 51 155
411 587 721 648 547 481 306 259 45 70 226 212 329 125 229 365 333 78 0 0 0 0 0 0 0 0 0 0 0 0 0 28 63 74 124 0 0 80 187 245 292 186 136
607 845 892 948 805 557 141 507 445 362 483 814 906 965 588 632 480 41 0 0 0 0 0 0 0 0 0 0 0 0 0 0 0 1 9 0 0 57 179 197 183 198 193
810 949 968 1171 1174 797 149 284 192 166 262 491 1079 1208 897 790 523 314 154 2 0 0 0 0 0 0 0 0 0 0 0 0 0 0 0 0 0 0 0 14 147 241 186
728 1031 1226 1174 1301 1236 376 176 213 214 191 280 454 1077 768 463 383 310 24 0 0 0 0 0 0 0 0 0 0 0 0 0 0 0 0 0 0 0 0 0 0 0 106
661 1264 1606 1593 1321 766 818 275 362 363 168 297 311 260 509 224 91 17 0 0 0 0 0 0 0 0 0 0 0 0 0 0 0 0 0 0 0 0 0 0 0 0 0
859 1228 1825 1816 1137 388 233 310 104 61 42 53 15 5 102 179 0 0 0 0 0 0 0 0 0 0 0 0 0 0 0 0 0 0 0 0 0 0 0 0 0 0 0
556 931 1580 1492 327 214 77 14 0 0 0 0 0 0 1 17 0 0 0 0 0 0 0 0 0 0 0 0 0 0 0 0 0 0 0 0 0 0 0 0 0 0 0
500 743 1171 561 37 25 1 5 6 6 12 6 1 0 0 6 13 0 0 0 0 0 0 0 0 0 0 0 0 0 0 0 0 0 0 0 0 0 0 0 0 0 0
152 475 833 307 0 0 13 19 24 27 7 0 0 0 0 0 2 5 0 0 1 0 0 0 0 0 0 0 0 0 0 0 0 0 0 0 0 0 0 0 0 0 0
84 474 459 42 5 28 8 1 0 0 0 0 0 0 0 0 0 0 0 0 2 4 0 0 0 0 0 0 0 0 0 0 0 0 0 0 0 0 0 0 0 0 0
75 110 25 6 0 0 0 0 0 0 0 0 0 0 0 0 0 0 0 0 0 0 0 0 0 0 0 0 0 0 0 0 0 0 0 0 0 0 0 0 0 0 0
0 0 0 0 0 0 0 0 0 0 0 0 0 0 0 0 0 0 0 0 0 0 0 0 0 0 0 0 0 0 0 0 1 0 0 0 0 0 0 0 0 0 0
0 0 0 0 0 0 0 0 0 0 0 0 0 0 0 0 0 0 0 0 0 0 0 0 0 0 0 0 4 0 0 6 21 16 1 0 0 0 0 0 0 0 0
0 0 0 0 0 0 0 0 0 0 0 0 0 0 0 0 0 0 0 0 0 0 0 0 0 0 0 0 9 18 7 0 11 17 6 0 0 0 0 0 0 0 0
0 0 0 0 0 0 0 0 0 0 0 0 0 0 0 0 0 0 0 0 0 0 0 0 0 0 0 0 9 21 16 18 1 3 8 2 0 0 0 0 0 0 0
0 0 0 0 0 0 0 0 0 0 0 0 0 0 0 0 0 0 0 0 0 0 0 0 0 0 0 0 0 0 1 0 0 2 1 6 18 0 0 0 0 0 0

GFSSE_con_mlcape_009.txt.gz
CAPE
352 530 470 578 784 788 741 684 753 943 1096 1073 1075 1159 1082 971 790 737 640 543 561 743 843 782 729 1004 1073 1562 1406 1216 846 1007 905 762 724 960 1074 1417 1340 1096 1201 968 209
532 669 592 721 791 903 868 802 861 923 1176 1278 1238 1332 1328 1105 977 813 621 574 552 697 994 1272 1154 1647 1883 1838 1465 1360 1178 898 972 955 664 336 932 1301 1381 1130 1169 734 672
656 676 836 963 1017 1031 1026 983 1001 1198 1270 1238 1212 1115 1226 1352 1227 895 646 553 621 788 993 1186 1390 1574 1488 1347 1166 1194 1127 1094 1017 973 744 88 819 477 1131 1174 1072 623 685
767 890 1015 1003 1189 1244 1212 1317 1374 1387 1201 1098 1147 1263 1354 1351 1162 945 684 592 735 1017 1251 1343 1327 1156 1047 1170 1126 1173 1036 929 975 889 588 616 939 695 1253 1278 1159 997 638
616 925 912 953 1285 1508 1625 1713 1692 1662 1459 1463 1452 1512 1587 1487 1278 909 506 414 667 1072 1187 1076 832 471 235 347 1152 1155 1069 872 849 892 985 1270 1036 908 1040 1037 865 429 483
301 578 629 785 916 1054 1254 1357 1407 1488 1387 1109 1099 1269 1304 1069 604 315 340 580 878 953 696 701 763 607 501 404 356 677 951 869 915 1014 1140 1164 795 918 713 851 746 761 788
11 83 443 394 377 468 588 570 630 717 722 771 1044 1094 1002 790 597 504 529 465 270 199 153 183 206 254 359 498 609 525 313 452 845 1038 890 897 744 736 683 327 220 605 529
11 54 18 0 46 109 113 160 261 456 575 593 710 823 658 456 414 354 235 124 62 22 0 0 0 15 59 113 180 389 528 353 602 1063 1119 905 543 559 748 778 401 210 257
2 94 99 99 106 0 0 57 160 334 312 296 192 169 166 95 77 49 15 1 0 0 0 0 0 0 0 0 0 4 32 169 506 849 950 832 414 480 603 520 481 317 255
3 180 308 274 142 243 452 0 30 112 161 112 38 8 9 131 50 0 1 0 0 0 0 0 0 0 0 0 0 0 0 0 295 229 331 170 64 254 420 316 258 193 210
112 310 433 333 155 68 12 21 47 61 118 188 288 230 275 434 313 130 0 0 0 0 0 0 0 0 0 0 0 0 0 9 3 6 102 1 0 108 338 316 344 350 318
384 311 765 735 382 126 0 105 79 12 222 361 495 581 461 444 371 149 10 0 0 0 0 0 0 0 0 0 0 0 0 0 0 0 22 0 0 3 165 265 273 276 264
384 254 685 1223 771 187 7 27 86 44 65 161 433 576 353 342 311 175 75 49 24 0 1 0 0 1 0 0 0 0 0 0 0 0 0 0 0 0 0 0 1 105 252
286 138 660 1282 604 337 187 93 106 98 46 97 215 293 190 93 57 36 4 0 0 1 0 2 1 0 0 0 0 0 0 0 0 0 0 0 0 0 0 0 0 0 0
174 176 518 1164 349 57 83 135 180 181 143 152 82 18 14 23 7 0 0 0 0 0 1 0 0 0 0 0 0 0 0 0 0 0 0 0 0 0 0 0 0 0 0
95 293 554 981 444 13 25 70 93 24 10 0 0 0 0 2 0 0 0 0 0 0 0 0 0 0 0 0 0 0 0 0 0 0 0 0 0 0 0 0 0 0 0
159 258 655 898 284 10 31 21 0 0 0 0 0 0 0 0 0 0 0 0 0 0 0 0 0 1 1 0 0 0 0 0 0 0 0 0 0 0 0 0 0 0 0
182 234 470 735 97 6 0 1 0 0 0 3 0 0 0 0 0 0 0 0 2 0 0 0 0 1 2 3 0 0 0 0 0 0 0 0 0 0 0 0 0 0 0
108 158 421 773 1 0 11 21 11 2 0 0 0 0 0 0 0 0 0 0 15 0 8 5 0 0 0 0 0 0 0 0 0 0 0 0 0 0 0 0 0 0 0
51 155 390 466 0 15 35 30 0 0 0 0 0 0 0 0 0 0 0 0 0 0 0 0 0 0 14 0 0 0 0 0 0 0 0 0 0 0 0 0 0 0 0
272 375 364 39 10 0 0 0 0 0 0 0 0 0 0 0 0 0 0 0 0 0 0 0 0 0 4 24 51 43 9 0 0 0 0 0 0 0 0 0 0 0 0
71 50 0 0 0 0 0 0 0 0 0 0 0 0 0 0 0 0 0 0 0 0 0 0 0 0 0 17 29 55 19 2 6 19 4 1 0 0 0 0 10 0 0
0 0 0 0 0 0 0 0 0 0 0 0 0 0 0 0 0 0 0 0 0 0 0 0 0 0 0 0 0 32 8 5 68 29 143 54 36 24 0 0 0 0 0
0 0 0 0 0 0 0 0 0 0 0 0 0 0 0 0 0 0 0 0 0 0 0 0 0 0 0 0 0 1 14 52 18 16 27 118 76 16 44 21 13 0 0
0 0 0 0 0 0 0 0 0 0 0 0 0 0 0 0 0 0 0 0 0 0 0 0 0 2 4 6 5 10 12 0 19 0 2 4 123 19 11 15 22 0 1
0 0 0 0 0 0 0 0 0 0 0 0 0 0 0 0 0 0 0 0 0 0 2 1 10 16 7 10 6 3 4 1 1 2 1 0 22 14 23 3 0 0 1

GFSSE_con_mlcape_012.txt.gz
CAPE
430 345 426 605 661 609 578 642 770 891 983 1037 1014 929 824 772 705 650 581 560 632 859 1072 1152 1116 1362 1520 1641 1341 1237 1198 914 911 860 458 218 943 1162 978 1209 1031 354 192
558 467 532 648 757 728 686 745 870 984 1029 1061 1118 1130 1026 924 763 617 570 588 680 894 1028 1219 1440 1437 1372 1148 1047 1107 1084 890 750 819 761 417 690 880 627 1036 999 156 212
527 622 731 747 860 867 822 918 933 987 1056 1011 974 1104 1123 1025 864 685 598 638 782 1041 1152 1271 1243 1049 894 940 791 804 959 838 736 607 533 333 176 354 398 892 762 654 705
762 808 899 903 1012 1013 1069 1145 1186 1112 1051 1060 1032 1092 1125 1103 1016 751 518 472 781 938 940 864 656 374 238 213 822 938 762 731 648 661 584 530 836 611 417 601 1029 779 705
887 759 843 1046 1200 1296 1384 1411 1426 1265 1125 1105 1245 1362 1340 1130 658 324 325 554 888 853 724 742 716 500 381 314 228 321 726 758 627 608 632 728 890 315 163 290 977 817 518
506 524 580 751 957 1076 1090 1091 1136 1076 906 847 996 1121 937 625 334 373 612 602 394 281 186 167 113 84 112 204 373 369 181 178 463 467 608 762 270 423 84 342 884 1059 549
205 286 245 248 347 368 348 376 425 479 517 621 644 561 525 424 327 211 118 60 8 0 0 0 0 0 0 0 7 105 301 271 170 354 676 235 1 0 88 390 416 706 734
61 0 0 0 0 0 0 32 131 193 243 270 348 289 218 143 118 92 30 0 0 0 0 0 0 0 0 0 0 0 1 39 182 409 847 454 150 79 515 488 555 237 294
0 0 0 0 0 0 0 9 68 75 46 21 16 16 17 11 3 0 0 0 0 0 0 0 0 0 0 0 0 0 0 0 0 176 640 532 607 679 590 549 514 528 380
26 84 151 168 327 159 0 0 0 1 0 5 15 13 38 79 37 0 3 0 0 0 0 0 0 0 0 0 0 0 0 0 0 56 180 162 236 309 335 364 388 329 189
79 157 88 63 30 462 21 1 23 16 94 162 220 145 119 308 246 62 0 0 0 0 0 0 0 0 0 0 0 0 0 0 0 0 47 4 0 3 92 231 161 226 227
163 177 450 188 57 1 2 57 313 120 369 421 428 381 480 270 284 117 52 0 0 0 0 0 0 0 0 0 0 0 0 0 0 0 1 0 0 0 0 87 128 150 213
236 235 885 612 246 109 1 9 95 162 42 253 601 309 340 126 252 119 45 104 0 0 5 0 2 0 0 0 0 0 0 0 0 0 0 0 0 0 0 0 0 12 80
242 185 1038 692 260 181 246 218 202 154 20 138 145 195 116 45 37 0 0 0 0 0 0 0 0 0 0 0 0 0 0 0 0 0 0 0 0 0 0 0 0 0 0
271 171 672 609 183 236 2 191 156 126 68 73 28 14 12 22 0 0 0 0 0 0 0 0 0 0 0 0 0 0 0 0 0 0 0 0 0 0 0 0 0 0 0
131 287 762 899 95 11 124 99 127 20 22 11 0 0 0 0 0 0 0 0 0 0 0 0 0 0 0 0 0 0 0 0 0 0 0 0 0 0 0 0 0 0 0
27 165 659 972 96 2 44 57 38 0 0 0 0 0 0 2 0 12 0 0 4 13 5 0 0 0 0 0 0 0 0 0 0 0 0 0 0 0 0 0 0 0 0
101 142 184 566 110 14 58 16 5 12 0 3 1 0 0 0 0 0 0 0 11 14 22 12 5 0 0 0 0 0 0 0 0 0 0 0 0 0 0 0 0 0 0
71 183 417 572 24 0 51 20 11 0 1 0 0 0 0 0 0 0 0 0 0 0 0 0 0 0 0 0 0 0 0 0 0 0 0 0 0 0 0 0 0 0 0
105 85 531 422 6 3 43 29 0 0 0 0 0 0 0 0 0 0 0 0 0 0 0 0 0 0 0 0 0 0 0 0 0 0 0 0 0 0 0 0 0 0 0
245 106 66 20 0 0 4 0 0 0 0 0 0 0 0 0 0 0 0 0 0 0 0 0 0 0 0 0 0 0 0 0 20 31 0 0 0 0 0 0 0 0 0
21 2 0 0 0 0 0 0 0 0 0 0 0 0 0 0 0 0 0 0 0 0 0 0 0 0 0 0 0 0 0 0 0 0 20 38 9 6 0 0 0 0 0
0 0 0 0 0 0 0 0 0 0 0 0 0 0 0 0 0 0 0 0 0 0 0 0 0 0 0 0 0 0 0 0 0 0 0 0 0 8 13 4 2 0 0
0 0 0 0 0 0 0 0 0 0 0 0 0 0 0 0 0 0 0 0 0 0 0 0 0 0 0 0 0 0 0 0 0 0 0 0 0 23 15 36 1 0 4
0 0 0 0 0 0 0 0 0 0 0 0 0 0 0 0 0 0 0 0 0 0 0 0 0 5 2 0 0 0 0 0 0 0 0 0 0 0 0 0 0 0 0
0 0 0 0 0 0 0 0 0 0 0 0 0 0 0 0 0 0 0 0 0 4 12 3 4 0 0 0 0 4 2 1 4 0 0 0 1 0 0 0 0 0 0

GFSSE_con_mlcape_015.txt.gz
CAPE
231 445 478 430 421 477 588 663 710 760 770 767 701 670 632 544 466 445 434 519 643 830 954 1101 1296 1418 1342 1174 1047 1041 1130 868 744 892 915 602 1041 629 834 1155 751 594 382
281 478 507 551 515 553 664 732 779 862 876 875 822 741 678 599 481 448 457 508 659 776 976 970 918 846 788 831 775 828 930 964 832 682 672 602 645 439 383 706 884 634 746
351 528 593 627 620 720 765 779 830 818 804 807 837 819 757 642 529 432 369 461 523 655 676 569 532 454 352 214 358 757 871 888 884 729 654 492 426 631 359 487 539 595 637
499 601 693 715 776 889 923 869 797 826 839 848 913 982 960 801 475 250 233 448 632 565 461 401 323 230 176 183 166 173 323 639 709 675 552 604 1024 572 175 553 353 700 788
535 680 791 837 987 1028 1101 1009 908 891 907 947 979 924 545 275 177 198 344 363 265 148 96 79 33 6 3 20 124 232 249 142 230 380 536 571 651 572 281 150 653 694 741
499 665 828 910 950 963 990 930 797 631 517 598 594 453 312 239 207 203 93 39 1 0 0 0 0 0 0 0 0 0 11 185 210 204 483 335 263 141 0 10 348 304 387
263 356 449 470 417 416 444 394 244 222 273 242 202 193 164 160 76 32 2 0 0 0 0 0 0 0 0 0 0 0 0 0 24 207 537 132 115 1 0 0 100 454 785
0 0 8 3 1 2 5 10 23 34 62 77 56 38 16 14 11 1 0 0 0 0 0 0 0 0 0 0 0 0 0 0 0 21 637 306 326 90 39 467 376 236 511
0 0 0 0 0 0 0 0 0 0 0 0 0 1 9 15 0 0 0 0 0 0 0 0 0 0 0 0 0 0 0 0 0 0 519 306 489 451 478 693 658 606 448
0 0 0 0 0 0 0 0 0 0 0 0 10 21 46 48 2 0 0 0 0 0 0 0 0 0 0 0 0 0 0 0 0 0 210 434 650 719 505 374 326 369 378
2 5 8 18 3 0 0 0 0 5 17 58 95 79 92 144 93 38 12 0 0 0 0 0 0 0 0 0 0 0 0 0 0 0 1 36 92 220 93 8 79 163 220
44 28 0 12 185 0 0 0 0 102 127 168 223 210 183 189 230 96 9 0 0 0 0 0 0 0 0 0 0 0 0 0 0 0 0 0 0 0 0 0 38 150 209
81 215 72 5 0 1 15 0 24 66 242 304 251 117 6 125 30 0 2 0 0 0 0 0 0 0 0 0 0 0 0 0 0 0 0 0 0 0 0 0 0 1 87
136 382 183 0 0 13 0 0 0 0 49 56 109 18 10 10 0 0 0 0 0 0 0 0 0 0 0 0 0 0 0 0 0 0 0 0 0 0 0 0 0 0 0
202 616 388 10 0 0 35 26 7 29 0 38 0 0 0 0 0 0 0 0 0 0 0 0 0 0 0 0 0 0 0 0 0 0 0 0 0 0 0 0 0 0 0
136 684 333 127 175 11 77 63 18 0 0 2 0 0 0 0 0 0 0 0 0 0 0 0 0 0 0 0 0 0 0 0 0 0 0 0 0 0 0 0 0 0 0
108 535 195 26 91 44 96 32 47 0 0 0 0 0 0 0 0 0 0 0 0 0 0 0 0 0 0 0 0 0 0 0 0 0 0 0 0 0 0 0 0 0 0
203 670 323 84 18 10 22 12 0 0 0 0 0 0 0 0 0 0 0 0 0 0 0 0 0 0 0 0 0 0 0 0 0 0 0 0 0 0 0 0 0 0 0
147 493 53 14 16 10 12 0 0 0 0 0 0 0 0 0 0 0 0 0 0 0 0 0 0 0 0 0 0 0 0 0 0 0 0 0 0 0 0 0 0 0 0
23 193 256 83 32 0 3 0 0 0 0 0 0 0 0 0 0 0 0 0 0 0 0 0 0 0 0 0 0 0 0 0 0 0 0 0 0 0 0 0 0 0 0
0 0 0 0 0 0 0 0 0 0 0 0 0 0 0 0 0 0 0 0 0 0 0 0 0 0 0 0 0 0 0 0 0 0 0 0 0 0 0 0 0 0 0
0 0 0 0 0 0 0 0 0 0 0 0 0 0 0 0 0 0 0 0 0 0 0 0 0 0 0 0 0 0 0 0 0 0 0 0 0 0 0 0 0 0 0
0 0 0 0 0 0 0 0 0 0 0 0 0 0 0 0 0 0 0 0 0 0 0 0 0 0 0 0 0 0 0 0 0 0 0 0 0 0 0 0 0 1 0
0 0 0 0 0 0 0 0 0 0 0 0 0 0 0 0 0 0 0 0 0 0 0 0 0 0 0 0 0 0 0 0 0 0 0 0 0 0 0 0 0 0 1
0 0 0 0 0 0 0 0 0 0 0 0 0 0 0 0 0 0 0 0 0 0 0 0 0 0 0 2 0 0 1 0 0 0 0 0 0 0 0 0 0 0 0
0 0 0 0 0 0 0 0 0 0 0 0 0 0 0 0 0 0 0 0 0 0 0 0 0 0 1 1 1 0 0 5 15 4 1 0 1 0 0 0 0 0 0

GFSSE_con_mlcape_018.txt.gz
CAPE
377 395 300 356 434 470 528 579 584 559 576 594 583 530 480 450 449 489 517 591 762 877 960 921 827 762 860 783 706 666 905 773 717 664 761 598 716 751 772 425 659 368 408
427 415 382 422 500 546 581 638 683 737 746 689 648 577 482 400 371 362 397 401 476 618 614 546 525 469 290 202 408 705 711 732 659 680 572 389 742 514 336 555 674 535 610
446 467 426 478 565 612 649 698 741 734 731 699 641 602 543 423 259 127 175 345 442 465 400 308 257 174 128 105 108 121 329 566 526 499 502 636 707 650 313 502 599 613 961
491 512 506 594 646 663 644 651 659 688 679 725 767 644 372 161 64 146 236 184 137 63 51 29 7 0 0 0 0 69 139 67 191 399 483 950 803 524 444 207 283 583 697
496 581 650 722 781 745 703 707 752 777 788 760 491 231 115 108 172 151 22 0 0 0 0 0 0 0 0 0 0 0 0 49 164 241 492 821 699 756 485 299 262 747 845
543 641 719 795 880 863 774 645 598 462 427 350 259 145 101 123 40 0 0 0 0 0 0 0 0 0 0 0 0 0 0 0 7 129 422 665 590 647 283 77 408 668 963
529 687 733 750 801 771 647 434 278 237 172 60 53 89 101 8 0 0 0 0 0 0 0 0 0 0 0 0 0 0 0 0 0 6 305 90 202 116 4 138 496 461 632
396 461 406 280 179 130 65 27 16 6 1 9 9 5 2 0 0 0 0 0 0 0 0 0 0 0 0 0 0 0 0 0 0 0 403 195 113 303 276 256 362 332 649
14 0 0 0 0 0 0 0 0 0 0 0 0 0 0 0 0 0 0 0 0 0 0 0 0 0 0 0 0 0 0 0 0 0 55 299 339 567 599 622 576 541 554
0 0 0 0 0 0 0 0 0 0 0 0 0 10 17 0 0 0 0 0 0 0 0 0 0 0 0 0 0 0 0 0 0 1 195 329 397 304 164 537 636 574 456
0 0 0 0 0 0 0 0 0 0 13 19 38 70 63 59 4 0 0 0 0 0 0 0 0 0 0 0 0 0 0 0 0 0 0 25 368 457 492 230 147 212 309
0 0 0 0 0 0 0 0 0 18 94 127 152 121 94 119 136 46 31 0 0 0 0 0 0 0 0 0 0 0 0 0 0 0 0 0 1 18 19 1 0 4 62
0 0 0 0 0 0 0 0 7 105 192 200 215 200 92 128 87 12 0 0 0 0 0 0 0 0 0 0 0 0 0 0 0 0 0 0 0 0 0 0 0 0 0
33 0 0 2 14 0 0 1 5 78 233 308 123 0 0 0 0 0 0 0 0 0 0 0 0 0 0 0 0 0 0 0 0 0 0 0 0 0 0 0 0 0 0
137 36 3 0 0 0 13 25 11 36 235 40 0 0 0 0 0 0 0 0 0 0 0 0 0 0 0 0 0 0 0 0 0 0 0 0 0 0 0 0 0 0 0
300 198 61 0 0 6 0 4 30 0 22 7 0 0 0 0 0 0 0 0 0 0 0 0 0 0 0 0 0 0 0 0 0 0 0 0 0 0 0 0 0 0 0
445 339 121 0 0 14 30 4 0 0 0 0 0 0 0 0 0 0 0 0 0 0 0 0 0 0 0 0 0 0 0 0 0 0 0 0 0 0 0 0 0 0 0
421 318 67 56 8 33 25 0 17 0 0 0 0 0 0 0 0 0 0 0 0 0 0 0 0 0 0 0 0 0 0 0 0 0 0 0 0 0 0 0 0 0 0
364 141 49 0 64 45 16 0 0 0 0 0 0 0 0 0 0 0 0 0 0 0 0 0 0 0 0 0 0 0 0 0 0 0 0 0 0 0 0 0 0 0 0
169 37 27 50 17 0 0 0 0 0 0 0 0 0 0 0 0 0 0 0 0 0 0 0 0 0 0 0 0 0 0 0 0 0 0 0 0 0 0 0 0 0 0
0 0 0 0 0 0 0 0 0 0 0 0 0 0 0 0 0 0 0 0 0 0 0 0 0 0 0 0 0 0 0 0 0 0 0 0 0 0 0 0 0 0 0
0 0 0 0 0 0 0 0 0 0 0 0 0 0 0 0 0 0 0 0 0 0 0 0 0 0 0 0 0 0 0 0 0 0 0 0 0 0 0 0 0 0 0
0 0 0 0 0 0 0 0 0 0 0 0 0 0 0 0 0 0 0 0 0 0 0 0 0 0 0 0 0 0 4 0 0 0 0 0 0 0 0 0 0 0 0
0 0 0 0 0 0 0 0 0 0 0 0 0 0 0 0 0 0 0 0 0 0 0 0 0 0 0 0 2 10 3 0 1 0 0 0 0 0 0 0 0 0 0
0 0 0 0 0 0 0 0 0 0 0 0 0 0 0 0 0 0 0 0 0 0 0 0 0 0 0 0 2 0 0 0 0 2 1 0 0 0 0 0 0 0 0
0 0 0 0 0 0 0 0 0 0 0 0 0 0 0 0 0 0 0 0 0 0 0 0 0 0 0 0 0 1 1 3 4 8 3 0 1 0 0 0 0 0 2

GFSSE_con_mlcape_021.txt.gz
CAPE
281 388 438 443 448 432 408 416 422 424 486 470 415 374 346 333 323 334 353 398 464 460 412 395 333 205 101 117 249 483 581 496 487 437 519 451 866 867 848 672 684 501 589
331 357 402 414 451 471 467 477 548 614 581 531 463 383 328 319 306 234 288 385 414 332 264 236 187 138 61 45 29 37 269 404 409 377 406 455 685 608 417 854 757 588 442
338 388 428 472 515 572 598 675 695 636 611 531 448 359 307 161 110 203 209 121 33 16 9 0 0 0 0 0 0 58 52 31 183 318 396 380 540 568 334 827 797 982 972
365 409 467 508 586 638 666 647 659 623 595 581 453 331 140 110 163 35 0 0 0 0 0 0 0 0 0 0 0 0 0 20 49 147 341 642 740 630 290 226 700 904 1164
418 472 545 560 567 590 618 611 589 660 687 480 283 160 115 113 10 0 0 0 0 0 0 0 0 0 0 0 0 0 0 0 5 167 274 689 533 570 720 453 467 738 1028
465 585 608 614 617 641 637 659 634 552 372 191 115 80 73 4 0 0 0 0 0 0 0 0 0 0 0 0 0 0 0 0 0 0 142 387 592 705 1048 349 251 483 824
550 652 730 710 679 606 576 510 336 214 76 56 40 0 0 0 0 0 0 0 0 0 0 0 0 0 0 0 0 0 0 0 0 0 68 94 72 308 207 37 149 581 338
570 670 710 693 616 567 373 141 65 21 7 0 0 0 0 0 0 0 0 0 0 0 0 0 0 0 0 0 0 0 0 0 0 0 0 134 3 176 432 355 337 401 475
539 391 343 327 234 60 2 0 0 0 0 0 0 15 10 0 0 0 0 0 0 0 0 0 0 0 0 0 0 0 0 0 0 0 0 208 154 391 445 598 423 383 328
9 0 0 0 0 0 0 0 0 0 0 0 8 5 0 0 0 0 0 0 0 0 0 0 0 0 0 0 0 0 0 0 0 0 0 0 254 116 141 63 26 48 389
0 0 0 0 0 0 0 0 0 0 0 0 10 21 18 21 10 13 17 0 0 0 0 0 0 0 0 0 0 0 0 0 0 0 0 0 2 156 79 10 0 0 0
0 0 0 0 0 0 0 0 0 0 0 0 45 53 59 69 88 35 36 15 3 0 0 0 0 0 0 0 0 0 0 0 0 0 0 0 0 0 7 26 18 0 0
0 0 0 0 0 0 0 0 0 22 37 84 150 151 94 94 50 34 0 0 0 0 0 0 0 0 0 0 0 0 0 0 0 0 0 0 0 0 0 0 0 0 0
0 0 0 0 0 0 0 0 10 109 119 205 164 49 7 0 0 0 0 0 0 0 0 0 0 0 0 0 0 0 0 0 0 0 0 0 0 0 0 0 0 0 0
4 1 0 0 0 0 0 0 18 118 223 287 97 0 0 0 0 0 0 0 0 0 0 0 0 0 0 0 0 0 0 0 0 0 0 0 0 0 0 0 0 0 0
91 46 0 10 5 0 0 6 25 52 199 92 1 0 0 0 0 0 0 0 0 0 0 0 0 0 0 0 0 0 0 0 0 0 0 0 0 0 0 0 0 0 0
108 34 0 0 0 0 0 0 0 1 15 1 0 0 0 0 0 0 0 0 0 0 0 0 0 0 0 0 0 0 0 0 0 0 0 0 0 0 0 0 0 0 0
134 5 0 0 0 0 0 0 0 0 0 0 0 0 0 0 0 0 0 0 0 0 0 0 0 0 0 0 0 0 0 0 0 0 0 0 0 0 0 0 0 0 0
123 35 0 0 0 0 0 0 0 0 0 0 0 0 0 0 0 0 0 0 0 0 0 0 0 0 0 0 0 0 0 0 0 0 0 0 0 0 0 0 0 0 0
46 21 0 0 0 0 0 0 0 0 0 0 0 0 0 0 0 0 0 0 0 0 0 0 0 0 0 0 0 0 0 0 0 0 0 0 0 0 0 0 0 0 0
10 4 0 0 0 0 0 0 0 0 0 0 0 0 0 0 0 0 0 0 0 0 0 0 0 0 0 0 0 0 0 0 0 0 0 0 0 0 0 0 0 0 0
0 0 0 0 0 0 0 0 0 0 0 0 0 0 0 0 0 0 0 0 0 0 0 0 0 0 0 0 0 0 0 0 0 0 0 0 0 0 0 0 0 0 0
0 0 0 0 0 0 0 0 0 0 0 0 0 0 0 0 0 0 0 0 0 0 0 0 0 0 0 0 0 0 0 0 0 0 0 0 0 0 0 0 0 0 0
0 0 0 0 0 0 0 0 0 0 0 0 0 0 0 0 0 0 0 0 0 0 0 0 0 0 0 0 0 0 0 0 0 0 0 0 0 0 0 0 0 0 0
0 0 0 0 0 0 0 0 0 0 0 0 0 0 0 0 0 0 0 0 0 0 0 0 0 0 0 0 0 0 0 0 0 9 0 0 0 0 0 0 0 0 0
0 0 0 0 0 0 0 0 0 0 0 0 0 0 0 0 0 0 0 0 0 0 0 0 0 0 0 0 0 0 0 0 2 13 2 0 2 0 0 0 0 0 0

GFSSE_con_mlcape_024.txt.gz
CAPE
220 415 447 395 333 343 321 291 346 406 407 392 339 311 280 283 285 260 206 257 283 203 172 124 52 27 31 38 46 87 186 221 259 307 355 379 559 658 723 661 639 710 870
291 497 494 410 388 383 398 411 488 472 426 357 290 250 224 149 123 165 184 99 27 2 0 0 0 0 0 0 1 28 12 18 113 169 301 203 276 440 342 588 721 667 904
327 503 482 460 491 490 490 553 567 527 485 408 354 267 114 134 146 38 0 0 0 0 0 0 0 0 0 0 0 0 0 5 29 74 150 132 150 424 310 670 738 948 819
379 481 522 564 563 576 622 620 594 521 478 415 254 89 137 95 0 0 0 0 0 0 0 0 0 0 0 0 0 0 0 0 6 113 128 328 480 556 442 512 625 768 837
370 497 597 594 641 640 604 590 513 508 408 220 113 110 101 0 0 0 0 0 0 0 0 0 0 0 0 0 0 0 0 0 0 0 56 315 320 362 878 580 206 382 629
404 542 570 571 577 559 476 470 552 444 176 91 52 86 0 0 0 0 0 0 0 0 0 0 0 0 0 0 0 0 0 0 0 0 5 39 90 315 905 166 16 131 505
425 534 544 535 490 491 552 571 441 208 49 23 6 0 0 0 0 0 0 0 0 0 0 0 0 0 0 0 0 0 0 0 0 0 0 68 0 46 487 444 145 381 371
528 630 624 557 553 534 513 357 188 16 0 0 0 2 0 0 0 0 0 0 0 0 0 0 0 0 0 0 0 0 0 0 0 0 0 47 103 308 473 637 455 283 218
529 649 629 609 550 442 217 88 4 0 0 0 0 6 0 0 0 0 0 0 0 0 0 0 0 0 0 0 0 0 0 0 0 0 0 0 116 246 73 176 174 105 109
479 515 489 426 280 65 0 0 0 0 0 0 21 8 2 0 0 0 0 0 0 0 0 0 0 0 0 0 0 0 0 0 0 0 0 0 0 75 52 8 0 0 0
193 73 47 2 0 0 0 0 0 0 0 7 55 31 2 0 0 0 0 0 0 0 0 0 0 0 0 0 0 0 0 0 0 0 0 0 0 0 0 0 0 0 0
0 0 0 0 0 0 0 0 0 0 2 50 66 89 42 39 14 0 0 0 0 0 0 0 0 0 0 0 0 0 0 0 0 0 0 0 0 0 0 0 0 0 0
0 0 0 0 0 0 0 0 0 0 28 44 87 98 64 66 40 3 0 0 0 0 0 0 0 0 0 0 0 0 0 0 0 0 0 0 0 0 0 0 0 0 0
0 0 0 0 0 0 0 0 0 27 70 148 170 174 75 6 0 0 0 0 0 0 0 0 0 0 0 0 0 0 0 0 0 0 0 0 0 0 0 0 0 0 0
0 0 0 0 0 0 0 0 2 38 127 228 209 21 0 0 0 0 0 0 0 0 0 0 0 0 0 0 0 0 0 0 0 0 0 0 0 0 0 0 0 0 0
0 0 0 0 0 0 0 0 0 40 128 191 30 0 0 0 0 0 0 0 0 0 0 0 0 0 0 0 0 0 0 0 0 0 0 0 0 0 0 0 0 0 0
0 0 0 0 0 0 0 0 0 17 27 7 0 0 0 0 0 0 0 0 0 0 0 0 0 0 0 0 0 0 0 0 0 0 0 0 0 0 0 0 0 0 0
7 16 0 5 0 0 0 0 0 0 0 0 0 0 0 0 0 0 0 0 0 0 0 0 0 0 0 0 0 0 0 0 0 0 0 0 0 0 0 0 0 0 0
14 9 0 0 0 0 1 0 0 0 0 0 0 0 0 0 0 0 0 0 0 0 0 0 0 0 0 0 0 0 0 0 0 0 0 0 0 0 0 0 0 0 0
4 1 0 0 1 3 0 0 0 0 0 0 0 0 0 0 0 0 0 0 0 0 0 0 0 0 0 0 0 0 0 0 0 0 0 0 0 0 0 0 0 0 0
10 3 0 0 6 0 0 0 0 0 0 0 0 0 0 0 0 0 0 0 0 0 0 0 0 0 0 0 0 0 0 0 0 0 0 0 0 0 0 0 0 0 0
3 0 0 0 0 0 0 0 0 0 0 0 0 0 0 0 0 0 0 0 0 0 0 0 0 0 0 0 0 0 0 0 0 0 0 0 0 0 0 0 0 0 0
0 0 0 0 0 0 0 0 0 0 0 0 0 0 0 0 0 0 0 0 0 0 0 0 0 0 0 0 0 0 0 0 0 0 0 0 0 0 0 0 0 0 0
0 0 0 0 0 0 0 0 0 0 0 0 0 0 0 0 0 0 0 0 0 0 0 0 0 0 0 0 0 3 0 0 4 2 3 1 0 0 0 0 0 0 0
0 0 0 0 0 0 0 0 0 0 0 0 0 0 0 0 0 0 0 0 0 0 0 0 0 0 0 0 0 0 0 0 0 8 0 0 0 6 3 0 0 0 0
0 0 0 0 0 0 0 0 0 0 0 0 0 0 0 0 0 0 0 0 0 0 0 0 0 0 0 0 0 0 0 1 2 5 7 4 4 0 0 5 0 0 0

GFSSE_con_mlcape_027.txt.gz
CAPE
338 467 181 167 356 282 266 299 316 329 327 339 315 298 278 262 211 236 245 150 62 10 0 0 0 0 6 21 38 39 36 51 92 128 147 153 264 532 532 479 402 871 925
482 562 221 274 416 328 322 388 398 382 324 259 220 197 131 110 120 66 2 0 0 0 0 0 0 0 0 0 0 0 0 3 34 78 127 105 22 482 480 610 507 840 865
578 673 376 337 452 399 469 485 433 339 245 184 124 28 56 29 0 0 0 0 0 0 0 0 0 0 0 0 0 0 0 0 14 63 136 351 371 650 496 378 468 473 549
711 691 444 413 508 547 588 467 387 340 266 187 45 47 13 0 0 0 0 0 0 0 0 0 0 0 0 0 0 0 0 0 0 9 223 566 498 465 901 627 254 371 479
672 680 615 502 629 697 616 464 433 384 288 105 80 114 0 0 0 0 0 0 0 0 0 0 0 0 0 0 0 0 0 0 0 0 143 312 486 319 712 300 102 85 283
632 729 651 677 716 696 656 495 493 293 116 95 128 51 0 0 0 0 0 0 0 0 0 0 0 0 0 0 0 0 0 0 0 0 135 200 39 169 581 509 74 226 280
638 826 808 615 688 694 539 521 399 130 64 75 85 1 0 0 0 0 0 0 0 0 0 0 0 0 0 0 0 0 0 0 0 0 80 313 352 492 531 504 214 111 153
603 761 804 658 640 558 567 453 180 65 4 19 16 0 0 0 0 0 0 0 0 0 0 0 0 0 0 0 0 0 0 0 0 0 0 0 91 282 173 280 0 0 0
662 727 756 731 622 552 433 263 81 7 0 5 19 0 0 0 0 0 0 0 0 0 0 0 0 0 0 0 0 0 0 0 0 0 0 0 0 28 87 11 0 0 0
620 638 691 751 699 610 345 142 5 0 0 23 19 0 0 0 0 0 0 0 0 0 0 0 0 0 0 0 0 0 0 0 0 0 0 0 0 0 0 0 0 0 0
609 672 608 592 480 238 136 84 5 0 4 46 28 2 7 21 25 14 0 0 0 0 0 0 0 0 0 0 0 0 0 0 0 0 0 0 0 0 0 0 0 0 0
479 387 319 270 78 4 0 55 40 54 92 145 148 133 84 83 78 71 2 0 0 0 0 0 0 0 0 0 0 0 0 0 0 0 0 0 0 0 0 0 0 0 0
63 19 0 0 0 0 0 15 9 62 93 116 161 157 143 124 150 34 0 0 0 0 0 0 0 0 0 0 0 0 0 0 0 0 0 0 0 0 0 0 0 0 0
0 0 0 0 0 0 0 0 17 77 134 221 268 251 208 117 3 0 0 0 0 0 0 0 0 0 0 0 0 0 0 0 0 0 0 0 0 0 0 0 0 0 0
0 0 0 0 0 0 0 0 33 114 206 255 271 67 3 0 0 0 0 0 0 0 0 0 0 0 0 0 0 0 0 0 0 0 0 0 0 0 0 0 0 0 0
0 0 0 0 0 0 0 0 2 78 49 69 3 1 0 0 0 0 0 0 0 0 0 0 0 0 0 0 0 0 0 0 0 0 0 0 0 0 0 0 0 0 0
0 0 0 0 0 0 0 0 0 0 0 0 0 0 0 0 0 0 0 0 0 0 0 0 0 0 0 0 0 0 0 0 0 0 0 0 0 0 0 0 0 0 0
0 6 4 0 0 0 2 0 0 0 0 0 0 0 0 0 0 0 0 0 0 0 0 0 0 0 0 0 0 0 0 0 0 0 0 0 0 0 0 0 0 0 0
13 3 0 0 0 0 0 0 0 0 0 0 0 0 0 0 0 0 0 0 0 0 0 0 0 0 0 0 0 0 0 0 0 0 0 0 0 0 0 0 0 0 0
15 1 0 0 0 0 0 0 0 0 0 0 0 0 0 0 0 0 0 0 0 0 0 0 0 0 0 0 0 0 0 0 0 0 0 0 0 0 0 0 0 0 0
13 14 4 0 0 0 0 0 0 0 0 0 0 0 0 0 0 0 0 0 0 0 0 0 0 0 0 0 0 0 0 0 0 0 0 0 0 0 0 0 0 0 0
21 29 9 2 0 0 0 0 0 0 0 0 0 0 0 0 0 0 0 0 0 0 0 0 0 0 0 0 0 0 0 0 0 0 0 0 0 0 0 0 0 0 0
21 11 11 0 0 0 0 0 0 0 0 0 0 0 0 0 0 0 0 0 0 0 0 0 0 0 0 0 1 0 0 0 0 0 0 0 0 0 0 0 0 0 2
0 0 0 0 0 0 0 0 0 0 0 0 0 0 0 0 0 0 0 0 0 0 0 0 0 0 0 0 0 1 0 1 0 0 1 1 5 0 0 0 0 4 9
0 0 0 0 0 0 0 0 0 0 0 0 0 0 0 0 0 0 0 0 0 0 0 0 0 0 0 0 0 0 0 1 7 15 3 0 0 1 10 0 11 11 15
0 0 0 0 0 0 0 0 0 0 0 0 0 0 0 0 0 0 0 0 0 0 0 0 0 0 0 0 0 0 0 0 0 5 4 2 0 0 0 1 0 16 8

GFSSE_con_mlcape_030.txt.gz
CAPE
338 254 146 125 222 224 241 238 275 303 328 343 351 333 277 208 183 165 73 4 0 0 0 0 0 0 0 0 0 0 0 7 32 50 45 98 288 456 652 479 404 723 625
423 297 220 211 327 303 313 339 350 345 360 318 288 239 195 175 55 0 0 0 0 0 0 0 0 0 0 0 0 0 0 0 31 32 30 196 476 650 594 397 233 467 536
587 373 283 335 408 414 437 421 373 382 336 257 172 195 76 0 0 0 0 0 0 0 0 0 0 0 0 0 0 0 0 0 0 46 166 230 536 742 604 475 202 312 475
664 470 426 377 492 545 540 478 444 380 288 167 178 19 0 0 0 0 0 0 0 0 0 0 0 0 0 0 0 0 0 0 0 38 219 394 416 410 709 215 59 79 246
663 621 583 469 543 564 540 481 407 308 171 141 71 0 0 0 0 0 0 0 0 0 0 0 0 0 0 0 0 0 0 0 0 18 214 264 293 431 535 241 144 203 168
769 759 558 558 568 641 508 467 369 224 144 164 84 0 0 0 0 0 0 0 0 0 0 0 0 0 0 0 0 0 0 0 0 1 63 246 390 556 507 172 2 1 57
695 905 770 514 582 705 592 584 322 166 181 236 98 0 0 0 0 0 0 0 0 0 0 0 0 0 0 0 0 0 0 0 0 0 0 40 87 361 316 226 0 0 0
944 890 765 576 675 739 684 525 198 174 211 168 19 0 0 0 0 0 0 0 0 0 0 0 0 0 0 0 0 0 0 0 0 0 0 0 0 37 89 118 0 0 0
916 891 761 729 740 733 662 338 156 129 115 37 0 0 0 0 0 0 0 0 0 0 0 0 0 0 0 0 0 0 0 0 0 0 0 0 0 0 0 0 0 0 0
881 908 748 666 602 622 392 213 71 36 30 57 19 0 0 0 0 0 1 0 0 0 0 0 0 0 0 0 0 0 0 0 0 0 0 0 0 0 0 0 0 0 0
764 800 829 583 548 422 188 164 0 27 75 70 29 3 47 107 79 42 1 0 0 0 0 0 0 0 0 0 0 0 0 0 0 0 0 0 0 0 0 0 0 0 0
786 963 665 574 484 216 0 36 71 47 212 345 336 380 385 492 366 138 0 0 0 0 0 0 0 0 0 0 0 0 0 0 0 0 0 0 0 0 0 0 0 0 0
829 492 478 402 197 3 2 34 50 333 491 602 684 701 764 701 681 189 0 0 0 0 0 0 0 0 0 0 0 0 0 0 0 0 0 0 0 0 0 0 0 0 0
244 87 38 37 44 22 0 45 287 494 589 638 776 895 844 736 445 45 0 0 0 0 0 0 0 0 0 0 0 0 0 0 0 0 0 0 0 0 0 0 0 0 0
0 0 0 0 0 31 161 334 481 662 672 819 777 639 472 340 142 7 0 0 0 0 0 0 0 0 0 0 0 0 0 0 0 0 0 0 0 0 0 0 0 0 0
2 17 10 6 18 115 296 459 505 423 422 428 116 102 99 149 50 0 0 0 0 0 0 0 0 0 0 0 0 0 0 0 0 0 0 0 0 0 0 0 0 0 0
36 170 152 158 135 185 381 256 52 30 19 42 17 2 11 2 0 0 0 0 0 0 0 0 0 0 0 0 0 0 0 0 0 0 0 0 0 0 0 0 0 0 0
165 307 292 237 231 129 0 1 1 0 0 0 0 0 0 0 0 0 0 0 0 0 0 0 0 0 0 0 0 0 0 0 0 0 0 0 0 0 0 0 0 0 0
263 425 311 351 106 0 1 0 3 0 0 0 0 0 0 0 0 0 0 0 0 0 0 0 0 0 0 0 0 0 0 0 0 0 0 0 0 0 0 0 0 0 0
479 469 449 347 4 0 0 0 0 0 0 0 0 0 0 0 0 0 0 0 0 0 0 0 0 0 0 0 0 0 0 0 0 0 0 0 0 0 0 0 0 0 0
498 503 547 265 5 1 0 0 0 0 0 0 0 0 0 0 0 0 0 0 0 0 0 0 0 0 0 0 0 0 0 0 14 11 1 0 0 0 0 0 0 0 0
469 498 603 320 325 149 29 0 0 0 0 0 0 0 0 0 0 0 0 0 0 0 0 0 0 0 0 0 0 0 0 0 0 7 0 0 0 1 0 0 0 0 0
594 610 516 573 269 20 0 0 0 0 0 0 0 0 0 0 0 0 0 0 0 0 0 0 0 0 0 0 3 1 1 0 0 0 0 2 0 0 0 0 0 0 5
551 552 490 66 0 0 0 0 0 0 0 0 0 0 0 0 0 0 0 0 0 0 0 0 0 0 1 0 0 4 9 4 3 3 2 2 3 0 0 0 2 0 2
0 18 109 5 0 0 0 0 0 0 0 0 0 0 0 0 0 0 0 0 0 0 3 0 0 17 8 5 3 5 9 1 0 6 1 0 0 0 0 0 0 0 2
0 0 0 0 0 0 0 0 0 0 0 0 0 0 0 0 0 0 2 0 2 9 15 15 28 35 37 33 18 7 5 6 5 4 0 0 0 0 0 0 0 2 0

GFSSE_con_mlcape_033.txt.gz
CAPE
111 35 83 148 198 168 148 148 150 201 278 347 352 308 265 257 152 15 0 0 0 0 0 0 0 0 0 0 0 0 0 0 17 5 117 447 618 574 465 192 466 251 449
156 57 98 183 189 181 210 198 217 286 336 326 284 233 192 55 0 0 0 0 0 0 0 0 0 0 0 0 0 0 0 0 0 12 211 419 514 587 401 87 85 316 355
234 136 135 194 221 309 320 305 344 319 261 242 248 183 21 0 0 0 0 0 0 0 0 0 0 0 0 0 0 0 0 0 0 59 148 313 351 385 275 46 12 186 484
321 218 227 267 329 388 433 383 318 286 257 266 162 24 0 0 0 0 0 0 0 0 0 0 0 0 0 0 0 0 0 0 0 3 111 109 238 298 301 268 276 84 282
303 333 442 333 421 508 499 381 345 295 242 203 37 0 0 0 0 0 0 0 0 0 0 0 0 0 0 0 0 0 0 0 0 4 85 117 103 238 287 3 6 9 10
453 559 389 366 519 576 506 418 314 183 240 96 0 0 0 0 0 0 0 0 0 0 0 0 0 0 0 0 0 0 0 0 0 4 27 50 87 244 365 2 0 0 0
543 667 501 453 504 535 523 354 207 170 210 65 0 0 0 0 0 0 0 0 0 0 0 0 0 0 0 0 0 0 0 0 0 0 0 0 0 37 67 112 0 0 0
412 424 633 531 528 571 508 291 155 150 132 54 0 0 0 0 0 0 0 0 0 0 0 0 0 0 0 0 0 0 0 0 0 0 0 0 0 0 0 0 0 0 0
362 437 641 580 595 564 410 188 111 85 58 13 0 0 0 0 0 0 0 0 0 0 0 0 0 0 0 0 0 0 0 0 0 0 0 0 0 0 0 0 0 0 0
493 668 592 657 512 506 324 134 54 36 35 21 0 0 0 0 0 0 1 0 0 0 0 0 0 0 0 0 0 0 0 0 0 0 2 0 0 0 0 0 0 0 0
648 370 558 402 414 311 183 75 19 34 39 0 0 0 16 64 51 71 0 0 0 0 0 0 0 0 0 0 0 0 0 0 0 0 0 0 0 0 0 0 0 0 0
762 534 534 445 366 160 0 0 1 33 61 174 168 148 410 303 366 79 0 0 0 0 0 0 0 0 0 0 0 0 0 0 0 0 0 0 0 0 0 0 0 0 0
705 323 407 384 208 0 3 10 42 293 355 409 513 660 579 426 482 365 7 0 6 0 0 0 0 0 0 0 0 0 0 0 0 0 0 0 0 0 0 0 0 0 0
277 231 194 111 21 0 0 22 235 363 531 575 619 756 627 678 520 185 26 7 0 0 0 0 0 0 0 0 0 0 0 0 0 0 0 0 0 0 0 0 0 0 0
57 0 0 0 12 71 86 331 512 593 755 863 871 797 489 466 356 199 40 2 0 0 0 0 0 0 0 0 0 0 0 0 0 0 0 0 0 0 0 0 0 0 0
0 1 0 9 65 298 436 527 557 630 705 715 634 587 126 18 66 130 26 0 0 0 0 0 0 0 0 0 0 0 0 0 0 0 0 0 0 0 0 0 0 0 0
80 107 66 169 305 527 516 155 21 0 3 35 187 165 91 131 50 0 0 0 0 0 0 0 0 0 0 0 0 0 0 0 0 0 0 0 0 0 0 0 0 0 0
247 213 279 277 449 379 33 0 2 12 39 67 29 5 0 0 0 0 0 0 0 0 0 0 0 0 0 0 0 0 0 0 0 0 0 0 0 0 0 0 0 0 0
440 470 415 473 373 43 0 0 0 0 0 0 0 0 0 0 0 0 0 0 0 0 0 0 0 0 0 0 0 0 0 0 0 0 0 0 1 0 2 0 0 0 0
477 691 572 559 216 0 0 0 0 0 0 0 0 0 0 0 0 0 0 0 0 0 0 0 0 0 0 0 0 0 0 0 0 0 2 6 1 2 1 4 4 1 0
700 750 748 609 321 41 78 7 0 0 0 0 0 0 0 0 0 0 0 0 0 0 0 0 0 0 0 0 0 0 0 0 0 0 0 0 0 1 1 1 4 1 1
813 736 640 617 413 284 283 50 0 0 0 0 0 0 0 0 0 0 0 0 0 0 0 0 0 0 0 0 0 0 0 0 0 0 0 0 0 2 4 0 2 3 3
678 611 618 559 463 446 149 15 13 26 4 0 0 0 0 0 0 0 0 0 0 0 0 0 0 0 0 0 0 0 0 0 0 0 0 0 0 0 0 1 0 0 1
612 608 742 659 463 128 7 2 11 9 5 7 1 0 0 0 0 0 0 0 0 0 0 0 1 2 6 4 1 1 1 1 2 0 0 0 0 0 0 0 1 0 0
695 556 496 248 12 0 0 7 20 1 6 6 0 0 0 0 0 0 0 1 1 3 4 6 14 16 14 8 7 2 2 1 0 9 10 7 1 0 0 0 0 2 1
265 330 171 0 0 0 0 0 0 0 0 1 0 0 0 0 0 0 1 1 4 6 11 20 22 3 18 27 18 7 6 10 11 3 14 10 3 0 1 2 5 7 7

GFSSE_con_mlcape_036.txt.gz
CAPE
21 105 357 353 303 202 146 174 195 214 262 260 185 147 80 4 0 0 0 0 0 0 0 0 0 0 0 0 0 0 0 0 0 91 391 366 394 333 39 0 146 77 259
31 102 301 275 181 137 166 211 228 246 244 169 122 39 0 0 0 0 0 0 0 0 0 0 0 0 0 0 0 0 0 0 0 212 248 261 343 152 5 0 43 214 326
8 88 143 180 190 194 262 256 227 222 169 143 45 0 0 0 0 0 0 0 0 0 0 0 0 0 0 0 0 0 0 0 0 6 281 156 221 252 238 99 33 307 360
61 71 190 202 250 344 294 272 240 186 187 88 0 0 0 0 0 0 0 0 0 0 0 0 0 0 0 0 0 0 0 0 0 9 98 100 130 194 49 136 102 44 239
76 174 285 231 317 376 353 305 185 234 98 6 0 0 0 0 0 0 0 0 0 0 0 0 0 0 0 0 0 0 0 0 0 85 34 61 60 344 49 0 0 0 3
196 359 264 269 380 415 440 273 218 171 36 0 0 0 0 0 16 0 0 0 0 0 0 0 0 0 0 0 0 0 0 0 0 33 0 1 35 84 118 43 0 0 0
396 285 248 289 420 428 354 276 207 86 0 0 0 0 0 0 0 0 0 0 0 0 0 0 0 0 0 0 0 0 0 0 0 0 0 0 0 0 0 0 0 0 0
193 167 249 382 533 422 329 214 198 110 0 0 0 0 0 0 0 0 0 0 0 0 0 0 0 0 0 0 0 0 0 0 0 6 0 0 0 0 0 0 0 0 0
94 142 202 492 488 290 146 139 185 91 4 0 0 0 0 0 0 0 0 0 0 0 0 0 0 0 0 0 0 0 0 0 0 0 0 0 0 0 0 0 0 0 33
48 107 248 496 409 139 121 115 108 38 3 0 0 0 0 0 0 1 0 0 0 0 0 0 0 0 0 0 0 0 0 0 0 0 0 0 0 0 0 0 0 0 3
43 115 283 478 281 114 95 90 45 18 1 0 0 0 0 0 30 14 0 0 0 0 0 0 0 0 0 0 0 0 0 0 0 0 0 0 0 0 0 0 0 1 1
76 99 192 403 249 90 12 20 18 2 0 2 0 0 74 325 26 0 0 0 0 0 0 0 0 0 0 0 0 0 0 0 0 0 0 0 0 0 0 0 1 0 0
67 242 347 229 194 4 0 27 48 55 203 268 350 357 518 452 178 3 0 0 0 0 0 0 0 0 0 0 0 0 0 0 0 0 0 0 0 0 0 0 0 0 0
288 329 270 137 37 2 31 20 191 499 391 579 617 625 399 545 447 108 38 71 10 4 0 0 0 0 0 0 0 0 0 0 0 0 0 0 0 0 0 0 0 0 0
209 206 169 71 55 5 28 491 476 477 765 703 758 665 580 402 252 90 22 4 0 0 0 0 0 0 0 0 0 0 0 0 0 0 0 0 0 0 0 0 0 0 0
78 81 57 72 132 146 496 410 382 488 564 440 410 486 107 1 20 46 0 0 0 0 0 0 0 0 0 0 0 0 0 0 0 0 0 0 0 0 0 0 0 0 0
0 12 26 122 293 557 531 288 67 1 0 19 191 169 112 28 2 0 0 0 0 0 0 0 0 0 0 0 0 0 0 0 0 0 0 0 0 0 0 0 0 0 0
62 19 178 317 539 261 44 8 4 17 7 0 10 3 0 0 0 0 0 0 0 0 0 0 0 0 0 0 0 0 0 0 0 0 0 0 0 0 0 0 0 0 0
135 170 248 481 243 20 0 0 0 0 0 0 0 0 0 0 0 0 0 0 0 0 0 0 0 0 0 0 0 0 0 0 0 0 0 0 0 0 0 0 0 0 0
330 358 364 475 200 3 0 0 0 0 0 0 0 0 0 0 0 0 0 0 0 0 0 0 0 0 0 0 0 0 0 0 0 0 0 7 0 0 0 0 0 0 0
648 561 513 414 155 0 9 6 5 0 0 0 0 0 0 0 0 0 0 0 0 0 0 0 0 0 0 0 0 0 0 0 0 0 0 0 0 0 0 0 0 0 0
802 714 601 420 180 126 218 112 27 0 0 0 0 0 0 0 0 0 0 0 0 0 0 0 0 0 0 0 0 0 0 0 0 0 0 0 0 0 0 0 0 0 0
941 695 593 491 356 223 326 27 0 0 0 0 0 0 0 0 0 0 0 0 0 0 0 0 0 0 0 0 0 0 0 0 0 0 0 0 0 0 0 0 0 0 0
838 690 676 523 463 536 79 0 0 0 0 0 0 0 0 0 0 0 0 0 0 0 0 0 0 0 0 0 0 0 0 0 0 0 0 0 0 0 0 0 0 0 0
598 557 495 472 578 286 3 0 0 33 6 0 0 0 0 0 0 0 0 0 0 0 0 0 1 14 8 1 0 0 0 0 0 0 0 0 0 0 0 0 0 0 0
602 582 774 487 54 0 0 2 1 0 0 0 0 0 0 0 0 0 0 0 0 0 0 0 0 1 0 3 6 6 0 0 0 0 0 0 0 0 0 0 0 0 0

GFSSE_con_mlcape_039.txt.gz
CAPE
205 563 589 554 379 207 147 162 189 177 130 62 0 0 0 0 0 0 0 0 0 0 0 0 0 0 0 0 0 0 0 0 102 79 79 209 167 50 0 0 44 162 208
238 509 515 415 239 177 208 214 194 132 83 0 0 0 0 0 0 0 0 0 0 0 0 0 0 0 0 0 0 0 0 0 4 156 15 127 264 227 109 24 153 236 183
355 435 369 281 203 223 274 248 155 94 14 0 0 0 0 0 0 0 0 0 0 0 0 0 0 0 0 0 0 0 0 1 0 96 87 80 61 68 62 70 44 314 212
387 338 241 197 281 290 272 192 155 62 4 0 0 0 0 0 0 0 0 0 0 0 0 0 0 0 0 0 0 0 0 21 32 65 24 53 113 41 0 0 0 0 65
168 226 238 251 258 279 216 185 87 15 0 0 0 0 0 0 0 0 0 0 0 0 0 0 0 0 0 0 0 0 0 8 10 32 23 1 42 55 44 0 0 0 0
115 189 224 247 241 257 200 140 35 1 0 0 0 0 0 7 0 0 0 0 0 0 0 0 0 0 0 0 0 0 0 0 0 0 0 0 15 0 0 0 0 0 0
185 193 194 168 262 299 214 100 34 1 0 0 0 0 0 0 0 0 0 0 0 0 0 0 0 0 0 0 0 0 0 0 0 0 0 0 2 9 1 0 0 0 0
84 127 111 119 220 169 147 68 9 0 0 0 0 0 0 0 0 0 0 0 0 0 0 0 0 0 0 0 0 0 0 0 0 0 0 0 0 0 18 0 0 0 84
42 71 72 186 111 142 110 27 0 0 0 0 0 0 0 0 0 0 0 0 0 0 0 0 0 0 0 0 0 0 0 0 0 0 0 0 0 0 0 0 0 60 89
64 10 42 147 109 101 112 20 1 0 0 0 0 0 0 0 0 0 0 0 0 0 0 0 0 0 0 0 0 0 0 0 0 0 0 0 0 0 0 0 2 7 7
66 29 68 120 76 31 39 13 0 0 0 0 0 0 0 0 0 0 0 0 0 0 0 0 0 0 0 0 0 0 0 0 0 0 0 0 0 0 0 0 0 1 1
38 136 111 103 14 16 16 0 0 0 0 0 0 0 0 0 0 0 0 0 0 0 0 0 0 0 0 0 0 0 0 0 0 0 0 0 0 0 0 0 0 0 0
0 82 146 116 1 0 0 0 0 0 0 0 0 3 5 45 0 0 0 0 0 0 0 0 0 0 0 0 0 0 0 0 0 0 0 0 0 0 0 0 0 0 0
46 89 150 93 0 0 0 0 0 9 29 87 268 372 178 220 29 2 0 0 0 0 0 0 0 0 0 0 0 0 0 0 0 0 0 0 0 0 0 0 0 0 0
73 99 122 31 0 0 7 67 107 317 325 416 372 186 23 18 0 0 0 0 0 0 0 0 0 0 0 0 0 0 0 0 0 0 0 0 0 0 0 0 0 0 0
102 42 15 9 0 34 231 258 299 346 343 343 376 96 0 0 0 0 0 0 0 0 0 0 0 0 0 0 0 0 0 0 0 0 0 0 0 0 0 0 0 0 0
0 0 0 0 76 286 194 128 160 111 70 88 4 15 4 0 0 0 0 0 0 0 0 0 0 0 0 0 0 0 0 0 0 0 0 0 0 0 0 0 0 0 0
0 0 0 93 338 145 62 7 0 0 0 0 0 0 0 0 0 0 0 0 0 0 0 0 0 0 0 0 0 0 0 0 0 0 0 0 0 0 0 0 0 0 0
0 0 59 285 223 52 10 2 0 0 0 0 0 0 0 0 0 0 0 0 0 0 0 0 0 0 0 0 0 0 0 0 0 0 0 0 0 0 0 0 0 0 0
2 70 302 264 102 5 0 0 0 0 0 0 0 0 0 0 0 0 0 0 0 0 0 0 0 0 0 0 0 0 0 0 0 0 0 0 0 0 0 0 0 0 0
67 176 340 219 44 0 0 0 0 0 0 0 0 0 0 0 0 0 0 0 0 0 0 0 0 0 0 0 0 0 0 0 0 0 0 0 0 0 0 0 0 0 0
188 309 314 286 61 0 0 1 0 0 0 0 0 0 0 0 0 0 0 0 0 0 0 0 0 0 0 0 0 0 0 0 0 0 0 0 0 0 0 0 0 0 0
324 405 325 298 122 0 20 26 0 0 0 0 0 0 0 0 0 0 0 0 0 0 0 0 0 0 0 0 0 0 0 0 0 0 0 0 0 0 0 0 0 0 0
566 455 447 359 238 41 114 7 0 0 0 0 0 0 0 0 0 0 0 0 0 0 0 0 0 0 0 0 0 0 0 0 0 0 0 0 0 0 0 0 0 0 0
655 588 525 402 312 149 198 0 0 0 0 0 0 0 0 0 0 0 0 0 0 0 0 0 0 0 0 0 0 0 0 0 0 0 0 0 0 0 0 0 0 0 0
693 607 475 360 243 334 161 0 0 0 0 0 0 0 0 0 0 0 0 0 0 0 0 0 0 0 0 0 0 0 0 0 0 0 0 0 0 0 0 0 0 0 0

GFSSE_con_mlcape_042.txt.gz
CAPE
645 670 542 403 281 139 172 177 123 66 0 0 0 0 0 0 0 0 0 0 0 0 0 0 0 0 0 0 0 0 0 52 36 58 96 187 127 81 53 72 60 98 304
649 676 575 439 240 177 198 159 88 24 5 0 0 0 0 0 0 0 0 0 0 0 0 0 0 0 0 0 0 0 0 13 12 24 8 28 20 5 2 3 188 161 307
647 665 494 298 216 229 245 161 39 10 0 0 0 0 0 0 0 0 0 0 0 0 0 0 0 0 0 0 0 3 0 42 34 52 11 0 0 0 0 0 0 38 239
598 580 427 281 244 259 221 102 36 0 0 0 1 0 6 2 0 0 1 0 0 0 0 0 0 0 0 0 0 53 79 118 10 0 0 0 0 0 0 0 0 0 0
550 457 385 259 262 249 183 80 22 0 0 3 6 10 27 14 1 0 3 4 0 0 0 0 0 0 0 0 0 0 0 0 0 0 0 0 0 0 0 0 0 0 0
398 441 384 348 259 235 138 48 6 0 3 30 46 49 32 9 9 2 1 0 0 0 0 0 0 0 0 0 0 0 0 0 0 0 0 0 0 0 0 0 0 0 0
425 303 168 268 285 125 91 49 23 27 39 42 38 39 13 0 0 0 0 0 0 0 0 0 0 0 0 0 0 0 0 0 0 0 0 0 0 0 0 0 0 1 1
119 67 147 109 122 101 49 37 28 44 54 28 11 0 0 0 0 0 0 0 0 0 0 0 0 0 0 0 0 0 0 0 0 0 0 0 0 0 0 0 5 27 10
71 65 8 16 90 77 15 15 6 4 11 12 0 0 0 0 0 0 0 0 0 0 0 0 0 0 0 0 0 0 0 0 0 0 0 0 0 0 0 0 3 5 9
0 5 33 8 12 72 48 3 0 1 4 0 0 0 0 0 0 0 0 0 0 0 0 0 0 0 0 0 0 0 0 0 0 0 0 0 0 0 0 0 0 0 2
12 24 17 8 39 140 27 0 2 4 0 0 0 0 0 0 0 0 0 0 0 0 0 0 0 0 0 0 0 0 0 0 0 0 0 0 0 0 0 0 0 0 0
0 0 9 63 131 74 16 0 0 2 0 0 0 0 0 0 0 0 0 0 0 0 0 0 0 0 0 0 0 0 0 0 0 0 0 0 0 0 0 0 0 0 0
17 1 102 100 88 15 0 0 0 0 0 0 0 0 0 1 0 0 0 0 0 0 0 0 0 0 0 0 0 0 0 0 0 0 0 0 0 0 0 0 0 0 0
14 102 109 61 3 0 0 0 0 0 0 0 0 1 1 0 0 0 0 0 0 0 0 0 0 0 0 0 0 0 0 0 0 0 0 0 0 0 0 0 0 0 0
13 51 121 19 0 0 0 0 0 0 5 35 71 102 157 12 4 0 0 0 0 0 0 0 0 0 0 0 0 0 0 0 0 0 0 0 0 0 6 0 0 0 0
15 55 222 36 0 0 0 12 22 107 247 149 11 0 0 0 0 0 0 0 0 0 0 0 0 0 0 0 0 0 0 0 0 0 0 0 0 0 0 0 0 0 0
78 169 143 14 0 21 47 129 206 222 225 208 60 0 0 0 0 0 0 0 0 0 0 0 0 0 0 0 0 0 0 0 0 0 0 0 0 0 0 0 0 0 0
116 60 57 32 16 66 47 102 109 34 45 0 0 0 0 0 0 0 0 0 0 0 0 0 0 0 0 0 0 0 0 0 0 0 0 0 0 0 0 0 0 0 0
105 1 1 62 103 74 63 10 0 0 0 0 0 0 0 0 0 0 0 0 0 0 0 0 0 0 0 0 0 0 0 0 0 0 0 0 0 0 0 0 0 0 0
45 4 56 131 104 17 0 0 0 0 0 0 0 0 0 0 0 0 0 0 0 0 0 0 0 0 0 0 0 0 0 0 0 0 0 0 0 0 0 0 0 0 0
0 0 64 122 49 11 0 0 0 0 0 0 0 0 0 0 0 0 0 0 0 0 0 0 0 0 0 0 0 0 0 0 0 0 0 0 0 0 0 0 0 0 0
39 59 51 104 26 9 4 0 0 0 0 0 0 0 0 0 0 0 0 0 0 0 0 0 0 0 0 0 0 0 0 0 0 0 0 0 0 0 0 0 0 0 0
144 168 107 161 84 9 0 0 0 0 0 0 0 0 0 0 0 0 0 0 0 0 0 0 0 0 0 0 0 0 0 0 0 0 0 0 0 0 0 0 0 0 0
174 205 212 181 109 0 0 0 0 0 0 0 0 0 0 0 0 0 0 0 0 0 0 0 0 0 0 0 0 0 0 0 0 0 0 0 0 0 0 0 0 0 0
180 206 218 190 124 38 0 2 0 0 0 0 0 0 0 0 0 0 0 0 0 0 0 0 0 0 0 0 0 0 0 0 0 0 0 0 0 0 0 0 0 0 0
236 247 287 329 333 98 0 3 0 0 0 0 0 0 0 0 0 0 0 0 0 0 0 0 0 0 0 0 0 0 0 0 0 0 0 0 0 0 0 0 0 0 0

GFSSE_con_mlcape_045.txt.gz
CAPE
631 676 542 358 132 87 79 71 10 0 0 0 0 0 0 0 0 0 0 0 0 0 0 0 0 0 0 0 0 33 14 0 0 62 59 40 32 28 71 108 102 109 175
732 702 618 417 226 140 98 21 0 0 0 0 0 0 0 0 0 0 0 0 0 0 0 0 0 0 0 0 0 21 1 3 0 0 1 0 0 0 0 0 5 71 115
856 734 597 351 255 188 138 17 0 0 0 0 0 3 0 0 0 0 0 0 0 0 0 0 0 0 0 0 0 61 56 0 0 0 0 0 0 0 0 0 0 0 0
909 725 532 361 336 258 103 7 0 0 0 0 10 0 0 0 0 0 0 2 0 0 0 0 0 0 0 10 76 71 0 0 0 0 0 0 0 0 0 0 0 0 0
824 600 425 382 355 212 47 2 0 0 2 14 28 4 8 3 2 2 3 1 0 0 0 0 0 0 0 0 0 0 0 0 0 0 0 0 0 0 0 0 0 0 0
720 535 279 296 276 118 38 34 5 7 20 59 65 28 22 8 9 6 0 0 0 0 0 0 0 0 0 0 0 0 0 0 0 0 0 0 0 2 4 2 3 3 6
623 454 230 194 246 199 25 28 48 84 108 138 116 54 30 7 0 0 0 0 0 0 0 0 0 0 0 0 0 0 0 0 0 0 0 0 0 0 2 11 10 8 7
396 175 92 104 77 176 126 37 111 196 226 185 131 36 7 0 0 0 0 0 0 0 0 0 0 0 0 0 0 0 0 0 0 0 0 0 0 0 1 3 2 1 1
6 2 16 0 33 213 168 65 139 223 211 146 52 9 0 0 0 0 0 0 0 0 0 0 0 0 0 0 0 0 0 0 0 0 0 0 0 0 0 0 0 0 1
3 0 0 17 60 126 130 55 71 78 65 84 13 0 0 0 0 0 0 0 0 0 0 0 0 0 0 0 0 0 0 0 0 0 0 0 0 3 1 0 0 0 0
0 14 1 0 55 107 34 4 29 40 42 8 0 0 0 0 0 0 0 0 0 0 0 0 0 0 0 0 0 0 0 0 0 0 0 0 0 4 4 1 0 0 0
0 0 0 0 0 0 0 4 45 37 5 0 0 0 0 0 0 0 0 0 0 0 0 0 0 0 0 0 0 0 0 0 0 0 0 0 0 3 12 0 0 0 0
0 0 8 0 79 128 24 18 25 6 0 0 0 0 0 0 0 0 0 0 0 0 0 0 0 0 0 0 0 0 0 0 0 0 0 0 0 0 6 1 0 0 0
0 0 55 13 106 92 25 4 4 0 0 0 0 0 12 0 0 0 0 0 0 0 0 0 0 0 0 0 0 0 0 0 0 0 0 0 0 0 16 1 0 0 0
0 2 105 100 117 45 2 0 0 0 0 0 2 3 9 4 0 0 0 0 0 0 0 0 0 0 0 0 0 0 0 0 0 0 0 0 0 0 16 2 0 7 0
15 81 111 60 35 2 0 0 0 0 12 108 152 156 117 2 0 0 0 0 0 0 0 0 0 0 0 0 0 0 0 0 0 0 0 0 0 0 2 0 0 1 0
15 96 85 129 14 0 0 0 0 42 151 19 4 1 0 0 0 0 0 0 0 0 0 0 0 0 0 0 0 0 0 0 0 0 0 0 0 0 0 0 0 0 0
19 77 183 229 14 0 0 0 4 175 202 60 0 0 0 0 0 0 0 0 0 0 0 0 0 0 0 0 0 0 0 0 0 0 0 0 0 0 0 0 0 0 0
29 128 191 158 10 0 0 10 79 148 88 0 0 0 0 0 0 0 0 0 0 0 0 0 0 0 0 0 0 0 0 0 0 0 0 0 0 0 0 0 0 0 0
102 129 167 152 2 0 0 21 14 5 0 0 0 0 0 0 0 0 0 0 0 0 0 0 0 0 0 0 0 0 0 0 0 0 0 0 0 0 0 0 0 0 0
136 46 208 151 0 6 34 33 8 0 0 0 0 0 0 0 0 0 0 0 0 0 0 0 0 0 0 0 0 0 0 0 0 0 0 0 0 0 0 0 0 0 0
170 56 31 10 5 42 27 0 0 0 0 0 0 0 0 0 0 0 0 0 0 0 0 0 0 0 0 0 0 0 0 0 0 0 0 0 0 0 0 0 0 0 0
144 114 47 32 40 30 1 0 0 0 0 0 0 0 0 0 0 0 0 0 0 0 0 0 0 0 0 0 0 0 0 0 0 0 0 0 0 0 0 0 0 0 0
138 80 31 42 31 11 0 0 0 0 0 0 0 0 0 0 0 0 0 0 0 0 0 0 0 0 0 0 0 0 0 0 0 0 0 0 0 0 0 0 0 0 0
63 72 15 22 24 15 0 0 0 0 0 0 0 0 0 0 0 0 0 0 0 0 0 0 0 0 0 0 0 0 0 0 0 0 0 0 0 0 0 0 0 0 0
18 22 3 1 2 6 2 0 0 0 0 0 0 0 0 0 0 0 0 0 0 0 0 0 0 0 0 0 0 0 0 0 0 0 0 0 0 0 0 0 0 0 0

GFSSE_con_mlcape_048.txt.gz
CAPE
705 638 448 408 375 235 100 24 5 0 0 0 0 0 0 0 0 0 0 0 0 0 0 0 0 0 50 174 0 0 0 0 0 0 0 0 0 0 0 0 1 47 93
812 685 489 438 378 164 27 6 0 0 0 0 0 2 8 0 0 0 0 0 0 0 0 43 29 0 9 73 0 0 0 0 0 0 0 0 0 0 0 0 0 0 4
831 743 580 464 342 88 19 1 0 0 0 0 0 4 0 0 0 0 0 0 0 0 99 154 82 13 85 123 86 0 0 0 0 0 0 0 0 0 0 0 0 0 0
867 712 541 456 310 68 5 0 0 0 0 12 7 4 0 0 0 0 0 0 0 0 1 64 196 264 222 65 0 0 0 0 0 0 0 0 0 1 1 0 0 0 0
824 653 448 383 225 36 0 0 0 3 21 32 42 23 8 2 0 7 2 2 0 0 0 0 0 21 3 0 0 0 0 0 0 0 0 0 0 5 6 8 7 8 7
868 609 393 309 126 0 0 3 20 64 102 90 60 55 42 23 7 9 0 0 0 0 0 0 0 0 0 0 0 0 0 0 0 0 0 0 0 6 8 5 5 5 8
731 511 386 224 90 41 32 48 34 89 186 166 115 99 76 44 30 2 0 0 0 0 0 0 0 0 0 0 0 0 0 0 0 0 0 0 0 8 5 2 1 2 3
523 373 320 134 58 9 7 101 88 156 226 204 173 118 86 31 1 0 0 0 0 0 0 0 0 0 0 0 0 0 0 0 0 0 0 0 2 7 4 1 1 1 2
112 10 8 3 0 40 75 124 164 215 272 193 176 134 32 0 0 0 0 0 0 0 0 0 0 0 0 0 0 0 0 0 0 0 0 0 1 6 2 0 0 0 1
3 2 0 0 66 63 116 113 195 180 258 169 83 28 0 0 0 0 0 0 0 0 0 0 0 0 0 0 0 0 0 0 0 0 0 0 2 9 9 0 0 0 0
3 1 1 7 23 97 104 207 175 179 160 64 31 13 2 0 0 0 0 0 0 0 0 0 0 0 0 0 0 0 0 0 0 0 0 0 0 12 14 1 0 0 0
2 5 0 0 0 2 39 51 118 116 38 9 5 0 0 0 0 0 0 0 0 0 0 0 0 0 0 0 0 0 0 0 0 0 0 0 0 13 14 10 0 0 0
0 0 0 0 0 0 52 61 42 13 2 5 7 0 0 0 0 0 0 0 0 0 0 0 0 0 0 0 0 0 0 0 0 0 0 0 0 2 13 9 4 0 0
0 0 0 0 0 0 78 23 19 2 0 0 0 0 0 0 0 0 0 0 0 0 0 0 0 0 0 0 0 0 0 0 0 0 0 0 0 0 13 4 8 8 1
3 2 0 0 0 49 27 0 6 0 0 0 0 14 13 0 0 0 0 0 0 0 0 0 0 0 0 0 0 0 0 0 0 0 0 0 0 0 14 5 8 7 4
0 0 0 0 9 100 15 0 1 0 0 0 0 1 12 0 0 0 0 0 0 0 0 0 0 0 0 0 0 0 0 0 0 0 0 0 0 0 0 0 0 2 1
0 0 42 137 47 44 0 0 0 0 0 33 53 20 59 3 0 0 0 0 0 0 0 0 0 0 0 0 0 0 0 0 0 0 0 0 0 0 0 0 0 0 0
1 26 101 162 33 12 0 0 0 0 2 4 6 7 0 0 0 0 0 0 0 0 0 0 0 0 0 0 0 0 0 0 0 0 0 0 0 0 0 0 0 0 0
0 25 138 154 82 7 0 0 0 0 39 5 0 0 0 0 0 0 0 0 0 0 0 0 0 0 0 0 0 0 0 0 0 0 0 0 0 0 0 0 0 0 0
0 10 85 110 114 1 0 0 0 0 13 0 0 0 0 0 0 0 0 0 0 0 0 0 0 0 0 0 0 0 0 0 0 0 0 0 0 0 0 0 0 0 0
0 21 64 117 76 0 0 0 0 20 0 0 0 0 0 0 0 0 0 0 0 0 0 0 0 0 0 0 0 0 0 0 0 0 0 0 0 0 0 0 0 0 0
8 9 87 143 80 10 0 0 0 0 0 0 0 0 0 0 0 0 0 0 0 0 0 0 0 0 0 0 0 0 0 0 0 0 0 0 0 0 0 0 0 0 0
122 40 130 170 121 37 1 0 0 0 0 0 0 0 0 0 0 0 0 0 0 0 0 0 0 0 0 0 0 0 0 0 0 0 0 0 0 0 0 0 0 0 0
240 50 157 115 79 26 0 0 0 1 0 0 0 0 0 0 0 0 0 0 0 0 0 0 0 0 0 0 0 0 0 0 0 0 0 0 0 0 0 0 0 0 0
171 102 142 75 16 0 0 0 0 0 0 0 0 0 0 0 0 0 0 0 0 0 0 0 0 0 0 0 0 0 0 0 0 0 0 0 0 0 0 0 0 0 0
92 88 113 100 23 0 0 0 0 0 0 0 0 0 0 0 0 0 0 0 0 0 0 0 0 0 0 0 0 0 0 0 0 0 0 0 0 0 0 0 0 0 0

GFSSE_con_mlcape_051.txt.gz
CAPE
675 650 453 370 294 147 65 48 17 0 0 0 0 0 0 0 0 0 0 0 0 0 7 71 268 123 26 0 0 0 0 0 0 0 0 0 0 0 0 0 0 17 86
727 672 460 468 273 106 18 1 0 0 0 0 0 4 5 0 0 0 0 0 13 34 46 59 251 124 63 0 0 0 0 0 0 0 0 0 0 0 0 0 0 0 0
764 699 484 472 341 92 3 0 0 0 0 10 25 21 5 0 0 0 0 106 297 255 239 62 266 196 23 0 0 0 0 0 0 0 0 0 0 1 1 0 0 0 0
835 681 599 432 250 91 19 7 11 7 24 33 28 17 14 2 0 0 0 114 353 287 129 224 310 208 0 0 0 0 0 0 0 0 0 0 0 3 3 2 2 2 2
882 715 558 303 118 23 6 9 20 54 47 22 26 26 33 17 1 0 0 0 45 262 403 374 233 9 0 0 0 0 0 0 0 0 0 0 4 15 13 11 9 10 7
834 675 381 180 39 3 6 12 35 49 34 26 24 43 39 33 21 0 0 0 0 47 193 116 0 0 0 0 0 0 0 0 0 0 0 0 5 11 8 11 4 8 9
719 568 378 77 0 4 20 48 45 40 54 67 69 68 40 41 16 4 0 0 0 0 0 0 0 0 0 0 0 0 0 0 0 0 0 0 4 2 0 1 3 7 7
510 485 204 11 79 126 81 126 46 68 89 95 109 92 65 39 6 1 0 0 0 0 0 0 0 0 0 0 0 0 0 0 0 0 0 0 4 3 2 0 1 1 2
88 110 177 77 96 156 140 220 183 142 123 137 180 98 39 16 1 0 0 0 0 0 0 0 0 0 0 0 0 0 0 0 0 0 0 0 2 2 1 0 1 1 0
4 0 1 7 3 0 121 230 329 171 151 137 98 36 13 1 0 0 0 0 0 0 0 0 0 0 0 0 0 0 0 0 0 0 0 0 4 6 2 0 0 0 0
1 3 0 0 0 11 86 248 324 259 118 61 26 2 0 3 0 0 0 0 0 0 0 0 0 0 0 0 0 0 0 0 0 0 0 0 2 13 10 0 0 0 0
0 0 6 26 22 31 30 187 232 225 111 24 13 2 0 1 0 0 0 0 0 0 0 0 0 0 0 0 0 0 0 0 0 0 0 0 0 13 14 7 1 0 0
2 3 1 1 0 0 1 20 78 162 49 5 0 0 1 0 0 0 0 0 0 0 0 0 0 0 0 0 0 0 0 0 0 0 0 0 0 8 6 5 6 3 0
5 5 13 0 0 8 46 60 125 58 9 7 12 3 0 0 0 0 0 0 0 0 0 0 0 0 0 0 0 0 0 0 0 0 0 0 0 1 4 2 5 4 3
0 1 0 0 0 0 0 56 37 14 12 10 0 0 0 0 0 0 0 0 0 0 0 0 0 0 0 0 0 0 0 0 0 0 0 0 0 0 8 0 10 4 3
0 0 0 0 0 14 106 27 36 5 0 0 2 30 0 0 0 0 0 0 0 0 0 0 0 0 0 0 0 0 0 0 0 0 0 0 0 0 0 0 0 0 0
0 0 0 0 0 0 132 14 4 0 0 0 0 8 29 0 0 0 0 0 0 0 0 0 0 0 0 0 0 0 0 0 0 0 0 0 0 0 0 0 0 0 0
0 0 0 1 9 15 105 7 0 0 0 0 0 1 18 21 0 0 0 0 0 0 0 0 0 0 0 0 0 0 0 0 0 0 0 0 0 0 0 0 0 0 0
0 0 0 71 155 79 71 2 0 0 0 0 4 14 13 0 0 0 0 0 0 0 0 0 0 0 0 0 0 0 0 0 0 0 0 0 0 0 0 0 0 0 0
0 6 55 181 204 73 27 0 0 0 0 5 0 0 0 0 0 0 0 0 0 0 0 0 0 0 0 0 0 0 0 0 0 0 0 0 0 0 0 0 0 0 0
0 0 38 186 212 136 43 0 0 0 0 2 1 0 0 0 0 0 0 0 0 0 0 0 0 0 0 0 0 0 0 0 0 0 0 0 0 0 0 0 0 0 0
0 0 30 131 189 160 79 3 0 0 0 9 1 0 0 0 0 0 0 0 0 0 0 0 0 0 0 0 0 0 0 0 0 0 0 0 0 0 0 0 0 0 0
20 2 19 73 170 176 77 3 0 0 0 2 0 0 0 0 0 0 0 0 0 0 0 0 0 0 0 0 0 0 0 0 0 0 0 0 0 0 0 0 0 0 0
252 68 22 57 103 133 59 7 0 0 20 3 2 0 0 0 0 0 0 0 0 0 0 0 0 0 0 0 0 0 0 0 0 0 0 0 0 0 0 0 0 0 0
489 288 133 74 86 129 47 25 0 3 11 0 0 0 0 0 0 0 0 0 0 0 0 0 0 0 0 0 0 0 0 0 0 0 0 0 0 0 0 0 0 0 0
459 342 264 176 94 112 55 50 22 0 0 0 0 0 0 0 0 0 0 0 0 0 0 0 0 0 0 0 0 0 0 0 0 0 0 0 0 0 4 0 0 0 0

GFSSE_con_mlcape_054.txt.gz
CAPE
866 647 515 657 728 740 652 509 328 119 3 0 0 0 0 0 0 0 8 14 196 301 280 140 35 0 0 0 0 0 0 0 0 0 0 0 0 0 0 0 7 40 101
1017 615 521 630 646 563 443 270 79 12 0 0 0 0 0 0 0 0 0 39 133 283 281 121 0 0 0 0 0 0 0 0 0 0 0 0 0 2 1 0 0 0 0
1141 698 458 546 466 359 198 56 22 9 0 0 0 0 0 0 3 16 119 148 192 303 316 182 0 0 0 0 0 0 0 0 0 0 0 0 0 3 2 1 3 3 3
1124 832 393 443 281 119 33 19 26 8 0 3 0 0 1 13 20 366 335 387 287 362 355 170 0 0 0 0 0 0 0 0 0 0 0 1 0 4 5 6 8 8 7
966 918 584 365 179 22 20 32 28 28 11 7 11 12 27 15 53 245 417 372 339 506 312 112 0 0 0 0 0 0 0 0 0 0 0 1 0 5 5 2 7 2 5
919 713 399 258 94 59 44 57 60 53 37 40 58 58 61 28 13 51 238 569 594 406 227 0 0 0 0 0 0 0 0 0 0 0 0 0 0 3 2 2 5 4 2
770 557 273 119 65 93 200 152 93 50 66 86 95 119 70 28 8 17 109 276 337 181 0 0 0 0 0 0 0 0 0 0 0 0 1 3 4 4 3 4 5 6 2
574 467 172 17 21 157 171 113 58 55 73 107 105 109 75 37 27 23 23 37 5 0 0 0 0 0 0 0 0 0 0 0 0 0 1 2 5 2 3 2 2 2 4
192 136 4 0 68 65 71 78 92 181 146 136 129 92 61 36 22 8 0 0 0 0 0 0 0 0 0 0 0 0 0 0 0 0 0 1 2 2 2 1 0 0 2
37 23 10 26 49 69 125 165 75 254 235 173 128 85 58 43 18 0 0 0 0 0 0 0 0 0 0 0 0 0 0 0 0 0 0 1 7 4 1 0 0 1 1
3 4 1 0 0 0 2 113 199 169 225 134 63 25 13 14 3 0 0 0 0 0 0 0 0 0 0 0 0 0 0 0 0 0 0 0 11 9 5 0 0 0 0
4 3 0 0 0 7 58 12 189 172 162 91 50 9 8 16 1 7 0 0 0 0 0 0 0 0 0 0 0 0 0 0 0 0 0 0 9 10 7 9 1 0 0
5 2 5 0 25 30 23 1 12 127 144 84 48 24 20 11 8 2 0 0 0 0 0 0 0 0 0 0 0 0 0 0 0 0 0 0 0 12 9 5 5 0 0
2 1 0 9 1 0 41 0 0 63 157 70 61 59 32 12 0 0 0 0 0 0 0 0 0 0 0 0 0 0 0 0 0 0 0 0 0 8 1 5 1 1 0
3 6 2 14 11 39 37 6 26 118 69 36 56 48 36 12 0 0 0 0 0 0 0 0 0 0 0 0 0 0 0 0 0 0 0 0 0 4 1 1 0 0 0
1 2 0 4 2 5 9 22 72 146 82 93 36 44 29 2 8 1 0 0 0 0 0 0 0 0 0 0 0 0 0 0 0 0 0 0 0 4 0 0 3 1 1
0 2 0 0 35 38 27 86 105 50 18 9 57 198 59 15 10 0 0 0 0 0 0 0 0 0 0 0 0 0 0 0 0 0 0 0 0 0 0 0 0 0 0
5 6 5 0 24 55 134 127 62 23 14 11 153 294 226 100 6 3 0 0 0 0 0 0 0 0 0 0 0 0 0 0 0 0 0 0 0 0 0 0 0 0 0
2 3 0 0 1 34 211 236 11 48 4 5 135 222 231 353 191 11 0 0 0 0 0 0 0 0 0 0 0 0 0 0 0 0 0 0 0 0 0 0 0 0 0
25 0 0 0 24 155 240 299 82 3 25 98 324 315 249 309 328 95 18 0 0 0 0 0 0 0 0 0 0 0 0 0 0 0 0 0 0 0 0 0 0 0 0
22 15 35 57 110 330 257 145 48 0 31 117 308 345 159 169 144 104 7 0 0 0 0 0 0 0 0 0 0 0 0 0 0 0 0 0 0 0 0 0 0 0 0
12 52 66 88 228 379 280 154 28 0 21 101 218 76 55 21 0 0 0 0 0 0 0 0 0 0 0 0 0 0 0 0 0 0 0 0 0 0 0 0 0 0 0
62 122 229 317 428 564 400 285 69 58 77 114 115 62 5 1 0 0 0 0 0 0 0 0 0 0 0 0 0 0 0 0 0 0 0 0 0 0 0 0 1 1 0
157 94 110 164 275 549 547 283 65 12 14 57 89 19 1 0 0 0 0 0 0 0 0 0 0 0 0 0 0 0 0 0 0 0 0 0 0 0 0 1 4 6 4
362 256 236 250 287 435 579 554 264 48 15 182 284 62 1 0 0 0 0 0 0 0 0 0 0 0 0 0 0 0 0 0 0 0 0 0 0 0 2 9 5 2 2
1036 847 672 450 349 429 507 567 597 390 272 390 194 66 12 1 0 0 0 0 0 0 0 0 0 0 0 0 0 0 0 0 0 0 0 0 0 0 0 0 1 1 2

GFSSE_con_mlcape_057.txt.gz
CAPE
1105 691 829 1098 1063 851 745 650 497 270 61 8 0 0 0 0 22 71 76 349 354 224 105 21 0 0 0 0 0 0 0 0 0 0 0 3 2 0 0 0 6 18 62
1024 717 862 1084 1036 887 739 545 329 135 27 11 1 0 0 9 33 88 292 422 333 138 1 0 0 0 0 0 0 0 0 0 0 0 0 0 2 3 4 0 0 3 4
1142 795 934 1041 1030 892 681 426 218 82 9 3 0 0 1 18 37 93 226 429 305 160 0 0 0 0 0 0 0 0 0 0 0 1 14 0 4 10 15 17 18 8 7
1300 794 890 898 867 721 502 303 155 47 22 0 0 24 50 63 118 168 299 425 406 159 0 0 0 0 0 0 0 0 0 0 0 7 9 2 2 18 12 12 10 21 22
1283 615 834 684 593 450 312 198 106 89 5 1 45 67 82 443 471 463 387 456 445 141 0 0 0 0 0 0 0 0 0 0 0 0 0 0 0 4 0 0 2 1 7
1220 548 403 377 315 268 217 157 141 46 2 23 84 70 256 502 561 646 438 494 402 131 0 0 0 0 0 0 0 0 0 0 0 3 0 0 0 2 1 1 1 1 7
848 624 431 141 171 211 153 170 120 29 31 82 111 95 135 248 486 590 578 479 240 33 0 0 0 0 0 0 0 0 0 0 0 1 0 0 0 1 2 2 2 3 6
327 202 167 82 103 82 134 129 87 70 87 145 100 106 88 136 326 448 391 194 63 0 0 0 0 0 0 0 0 0 0 0 0 2 0 0 1 2 3 2 2 3 5
328 115 53 49 79 90 68 40 68 153 172 168 120 108 89 75 127 172 155 84 9 0 0 0 0 0 0 0 0 0 0 0 0 0 1 1 0 3 3 2 2 2 2
174 24 16 4 70 50 74 65 113 158 183 148 108 70 76 58 58 40 15 15 15 4 0 0 0 0 0 0 0 0 0 0 0 0 0 0 3 2 1 1 1 1 1
5 1 6 10 1 7 39 64 73 220 270 136 81 50 35 25 8 15 15 5 6 0 0 0 0 0 0 0 0 0 0 0 0 0 0 1 2 4 1 1 0 1 1
1 1 1 5 10 25 10 39 60 134 205 101 64 76 45 43 50 50 27 0 0 0 0 0 0 0 0 0 0 0 0 0 0 0 0 0 10 6 6 3 0 0 0
5 1 0 0 0 0 0 0 0 46 159 62 86 93 127 141 86 48 6 0 0 0 0 0 0 0 0 0 0 0 0 0 0 0 0 0 10 7 3 5 3 0 0
3 1 0 0 6 3 6 2 31 121 143 111 142 135 162 120 113 47 0 0 0 0 0 0 0 0 0 0 0 0 0 0 0 0 0 0 0 4 4 3 1 0 0
1 4 0 3 9 1 0 0 0 46 29 18 64 146 119 84 121 59 31 0 0 0 0 0 0 0 0 0 0 0 0 0 0 0 0 0 0 2 0 9 2 1 0
3 7 1 0 0 2 3 20 26 68 72 76 112 160 157 171 115 82 47 1 0 0 0 0 0 0 0 0 0 0 0 0 0 0 0 0 0 6 0 0 2 0 0
0 0 0 0 1 4 18 12 16 130 152 122 93 189 155 156 182 54 28 14 0 0 0 0 0 0 0 0 0 0 0 0 0 0 0 0 0 0 0 0 0 0 0
1 1 1 0 0 5 1 8 60 141 70 4 41 138 191 123 111 66 45 9 0 0 0 0 0 0 0 0 0 0 0 0 0 0 0 0 0 1 0 0 0 0 0
4 0 0 0 13 9 28 30 90 113 74 23 24 255 437 224 117 99 41 38 14 0 0 0 0 0 0 0 0 0 0 0 0 0 0 0 0 0 0 0 0 0 0
0 0 0 2 1 24 48 102 32 34 63 4 11 212 401 478 562 201 98 92 31 0 0 0 0 0 0 0 0 0 0 0 0 0 0 0 0 0 0 0 0 0 0
3 0 0 0 20 35 33 24 13 0 0 0 45 297 577 420 475 498 408 200 21 0 0 0 0 0 0 0 0 0 0 0 0 0 0 0 0 0 0 0 0 0 0
24 0 0 0 3 13 9 3 4 0 0 17 80 250 477 412 385 402 355 189 15 0 0 0 0 0 0 0 0 0 0 1 0 0 0 0 0 0 0 0 0 0 0
89 20 0 33 54 73 103 75 50 19 4 8 73 205 339 185 41 43 55 54 1 0 0 0 0 0 0 0 0 0 0 0 0 0 0 0 0 0 0 0 0 0 2
128 131 122 141 167 237 310 234 153 41 5 5 91 171 250 28 2 2 2 1 17 2 0 0 0 0 0 1 0 0 0 0 0 0 0 0 0 0 0 0 0 2 4
263 224 256 326 388 428 494 350 307 176 54 43 106 188 223 37 2 0 0 0 10 0 0 0 0 0 0 0 0 0 0 0 0 0 0 0 0 0 0 0 1 4 0
474 436 379 351 342 344 421 574 483 384 233 53 73 545 264 97 6 5 4 0 0 0 0 0 0 0 0 0 0 0 0 0 0 0 0 0 0 0 0 0 0 0 0

GFSSE_con_mlcape_060.txt.gz
CAPE
667 935 1176 1113 813 695 702 596 452 268 107 1 0 0 0 0 0 129 324 270 110 12 1 0 0 0 0 0 0 0 0 0 0 0 0 1 0 0 0 0 7 2 18
545 1257 1274 1225 988 793 712 623 441 232 57 0 0 0 2 19 96 440 357 148 1 0 0 0 0 0 0 0 0 0 0 0 5 0 0 7 12 15 11 0 5 5 3
48 1288 1489 1324 1147 944 782 599 379 206 54 5 0 0 43 75 445 483 296 28 0 0 0 0 0 0 0 0 0 0 0 0 18 25 0 3 17 13 25 20 18 25 17
104 1230 1616 1454 1234 1005 764 540 348 161 53 0 1 16 75 165 474 490 273 30 0 0 0 0 0 0 0 0 0 0 0 0 11 9 0 0 9 11 10 12 8 10 13
1160 1199 1482 1386 1131 853 623 450 300 179 32 19 34 96 154 284 512 487 356 44 0 0 0 0 0 0 0 0 0 0 0 0 0 0 0 0 0 8 4 3 4 8 4
1091 1206 933 936 831 679 548 437 336 75 29 44 89 334 458 453 508 482 344 84 60 0 0 0 0 0 0 0 0 0 0 0 0 0 0 0 0 2 4 5 6 8 7
612 718 589 621 591 540 467 408 180 48 117 149 343 546 644 673 497 475 350 93 41 0 0 0 0 0 0 0 0 0 0 0 0 0 0 0 0 4 2 1 3 3 4
559 349 315 248 332 344 307 240 103 134 228 263 423 582 755 695 605 504 177 48 0 0 0 0 0 0 0 0 0 0 0 0 0 0 0 0 1 1 1 0 2 2 2
154 13 0 4 29 54 79 118 192 204 223 216 222 419 549 570 452 224 102 14 0 0 0 0 0 0 0 0 0 0 0 0 0 0 0 0 0 0 1 3 4 4 2
152 31 5 0 4 1 0 30 79 185 211 142 105 194 284 285 242 152 51 11 0 0 0 0 0 0 0 0 0 0 0 0 0 0 0 0 0 2 1 1 3 3 3
165 40 23 2 4 0 0 4 66 145 199 173 105 97 134 135 81 47 61 13 0 0 0 0 0 0 0 0 0 0 0 0 0 0 0 0 2 4 0 0 1 1 1
0 3 7 5 1 6 0 0 0 10 78 162 63 15 2 28 22 43 30 12 0 0 0 0 0 0 0 0 0 0 0 0 0 0 0 0 1 1 1 0 0 0 0
1 0 0 2 0 0 6 19 30 35 45 84 139 108 50 52 21 27 0 0 0 0 0 0 0 0 0 0 0 0 0 0 0 0 0 0 2 4 4 1 0 0 0
3 3 2 1 1 1 2 0 1 10 95 119 168 189 202 139 56 4 3 0 0 0 0 0 0 0 0 0 0 0 0 0 0 0 0 0 1 11 5 3 1 0 0
1 1 3 0 0 0 0 0 0 16 100 132 138 165 205 161 73 19 10 0 0 0 0 0 0 0 0 0 0 0 0 0 0 0 0 0 0 1 2 4 1 0 0
2 1 2 2 0 0 0 0 0 4 18 42 177 158 126 113 200 37 58 10 0 0 0 0 0 0 0 0 0 0 0 0 0 0 0 0 0 0 0 3 1 4 5
1 2 3 1 0 3 0 0 0 0 17 67 172 198 174 150 158 131 116 79 9 0 0 0 0 0 0 0 0 0 0 0 0 0 0 0 0 0 0 0 0 0 0
0 0 0 0 0 0 0 0 0 18 18 52 173 118 96 183 146 140 58 40 12 0 0 0 0 0 0 0 0 0 0 0 0 0 0 0 0 0 0 0 0 0 0
0 0 4 2 1 0 0 0 0 20 47 65 42 159 157 137 167 83 130 60 34 0 0 0 0 0 0 0 0 0 0 0 0 0 0 0 0 0 0 0 0 0 0
0 0 0 0 0 0 0 0 14 45 70 50 26 146 288 256 81 146 118 85 53 0 0 0 0 0 0 0 0 0 0 0 0 0 0 0 0 0 0 0 0 0 0
0 0 0 0 0 0 0 0 0 38 64 37 30 47 239 275 350 245 144 121 94 23 0 0 0 0 0 0 0 0 0 0 0 0 0 0 0 0 0 0 0 0 0
0 0 0 0 0 0 1 1 21 0 7 30 4 29 285 442 380 301 241 248 163 5 0 0 0 0 0 0 0 0 0 0 0 0 0 0 0 0 0 0 0 0 0
0 0 0 0 0 0 40 18 6 0 0 0 12 27 252 331 346 345 418 302 109 34 0 0 0 0 0 0 0 0 0 0 0 0 0 0 0 0 0 0 0 0 0
0 0 0 0 0 0 7 15 0 8 3 0 12 54 243 316 208 96 64 59 44 1 0 0 0 0 0 0 0 0 0 0 0 0 0 0 0 0 0 0 0 0 0
133 25 0 0 0 32 30 116 90 66 15 3 5 76 284 206 84 11 4 0 0 1 0 0 0 0 0 0 0 0 0 0 0 0 0 0 0 0 0 0 0 0 0
197 208 99 119 143 169 120 137 363 357 183 49 57 67 250 185 71 5 1 0 3 3 0 0 0 0 0 0 0 0 0 0 0 0 0 0 0 0 0 0 0 0 0

GFSSE_con_mlcape_063.txt.gz
CAPE
1119 1281 1274 1055 1056 850 667 549 352 192 104 54 5 0 0 54 295 229 65 7 0 0 0 0 0 0 0 0 0 0 0 0 0 0 8 5 6 7 6 4 2 8 20
662 1117 1175 1104 1007 958 800 562 369 211 130 119 43 11 102 401 379 203 11 0 0 0 0 0 0 0 0 0 0 1 13 7 0 0 0 13 25 17 10 5 2 3 6
189 1 398 470 998 1018 878 590 397 275 184 119 26 46 374 520 355 53 0 0 0 0 0 0 0 0 0 0 0 0 5 17 12 3 0 0 5 17 19 4 6 5 7
5 0 0 283 702 977 876 599 355 354 231 198 90 337 606 480 146 8 0 0 0 0 0 0 0 0 0 0 0 0 0 0 0 0 0 0 2 10 8 12 7 6 10
0 160 338 362 883 873 714 506 428 289 180 155 177 594 626 506 118 7 0 0 0 0 0 0 0 0 0 0 0 0 0 0 0 0 0 0 0 5 5 4 5 3 9
11 1021 795 690 828 822 698 545 423 164 112 159 251 657 748 589 154 23 23 0 0 0 0 0 0 0 0 0 0 0 0 0 0 0 0 0 0 5 6 10 7 8 4
1077 941 696 733 758 666 532 478 215 174 224 225 359 710 786 617 167 59 32 0 0 0 0 0 0 0 0 0 0 0 0 0 0 0 0 0 0 6 9 8 9 6 8
433 227 145 346 574 495 486 320 217 294 335 457 523 717 767 598 189 55 19 0 0 0 0 0 0 0 0 0 0 0 0 0 0 0 0 0 3 3 3 2 3 6 9
69 29 7 0 0 1 14 104 163 309 315 523 479 602 647 489 124 34 3 0 0 0 0 0 0 0 0 0 0 0 0 0 0 0 0 0 1 3 4 4 4 4 5
97 5 1 0 0 0 20 0 33 70 226 349 453 475 424 229 103 15 0 0 0 0 0 0 0 0 0 0 0 0 0 0 0 0 0 0 1 2 3 3 5 7 4
79 11 3 2 2 1 1 0 0 136 186 209 173 153 136 89 29 0 0 0 0 0 0 0 0 0 0 0 0 0 0 0 0 0 0 0 1 2 3 3 3 6 6
65 5 5 2 1 0 1 0 0 13 41 83 46 69 22 57 28 3 2 0 0 0 0 0 0 0 0 0 0 0 0 0 0 0 0 0 2 3 2 2 1 3 2
1 2 1 3 2 1 2 0 0 0 0 15 26 29 45 54 20 7 0 0 0 0 0 0 0 0 0 0 0 0 0 0 0 0 0 0 0 1 1 0 0 0 2
0 1 2 2 0 0 0 0 0 0 22 36 25 25 20 19 1 0 0 0 0 0 0 0 0 0 0 0 0 0 0 0 0 0 0 0 0 2 3 1 1 1 0
3 2 1 0 0 0 0 0 0 0 37 43 54 60 32 3 0 0 0 0 0 0 0 0 0 0 0 0 0 0 0 0 0 0 0 0 0 3 6 5 0 0 0
2 2 1 2 0 0 0 0 0 0 4 30 31 83 108 53 2 0 0 0 0 0 0 0 0 0 0 0 0 0 0 0 0 0 0 0 0 0 0 0 0 0 0
2 1 2 2 0 0 0 0 0 2 1 2 27 85 152 146 32 15 13 10 0 0 0 0 0 0 0 0 0 0 0 0 0 0 0 0 0 0 0 0 0 0 0
1 1 1 1 0 0 0 0 0 0 0 0 29 109 115 115 136 71 81 36 6 0 0 0 0 0 0 0 0 0 0 0 0 0 0 0 0 0 0 0 0 0 0
0 1 1 0 0 0 0 0 0 0 0 0 48 87 55 95 137 41 36 11 0 0 0 0 0 0 0 0 0 0 0 0 0 0 0 0 0 0 0 0 0 0 0
0 0 0 0 0 0 0 0 0 0 3 13 0 25 12 3 106 53 36 60 0 0 0 0 0 0 0 0 0 0 0 0 0 0 0 0 0 0 0 0 0 0 0
0 0 0 0 0 0 0 0 0 0 0 0 0 0 27 56 64 65 83 67 15 0 0 0 0 0 0 0 0 0 0 0 0 0 0 0 0 0 0 0 0 0 0
0 0 0 0 0 0 0 0 0 0 0 0 0 0 53 123 142 100 54 74 63 17 0 0 0 0 0 0 0 0 0 0 0 0 0 0 0 0 0 0 0 0 0
0 0 0 0 0 0 0 0 0 0 0 2 0 0 2 55 97 183 206 90 57 37 1 0 0 0 0 0 0 0 0 0 0 0 0 0 0 0 0 0 0 0 0
0 0 0 0 0 0 0 0 0 0 0 0 0 0 2 152 200 223 205 175 60 56 17 0 0 0 0 0 0 0 0 0 0 0 0 0 0 0 0 0 0 0 0
0 0 0 0 0 0 0 0 0 0 0 0 0 0 2 52 105 127 148 115 84 37 1 0 0 0 0 0 0 0 0 0 0 0 0 0 0 0 0 0 0 0 0
0 0 0 0 0 0 0 0 0 0 0 0 0 0 0 60 99 110 98 55 21 2 1 0 0 0 0 0 0 0 0 0 0 0 0 0 0 0 0 0 0 0 0

GFSSE_con_mlcape_066.txt.gz
CAPE
1412 1408 1028 653 675 909 783 444 305 264 175 204 362 452 426 347 243 117 19 5 0 0 0 0 0 2 1 0 0 0 0 4 10 10 9 14 12 8 4 3 5 17 38
1461 1579 1165 975 676 967 694 353 249 219 163 169 386 537 429 304 179 65 4 0 0 0 0 0 3 5 5 5 0 0 0 0 0 6 21 25 16 7 13 6 4 6 21
1265 1615 1376 1195 689 846 736 380 302 264 183 262 513 569 448 230 98 26 0 0 0 0 0 0 0 0 0 12 18 15 1 0 0 0 0 4 5 8 9 17 14 14 25
907 639 1360 1298 645 427 389 500 320 290 194 338 602 618 419 217 61 10 1 0 0 0 0 0 0 0 0 0 0 0 0 0 0 0 0 0 3 8 3 5 1 10 22
184 53 259 1093 680 354 223 582 495 437 364 659 814 612 421 192 64 19 1 0 0 0 0 0 0 0 0 0 0 0 0 0 0 0 0 0 1 9 6 3 3 18 12
150 66 112 313 569 448 43 243 518 162 267 649 817 591 386 137 30 2 0 0 0 0 0 0 0 0 0 0 0 0 0 0 0 0 0 0 1 8 7 7 13 10 12
478 846 666 458 38 303 430 332 108 125 253 737 785 553 341 89 22 6 0 0 0 0 0 0 0 0 0 0 0 0 0 0 0 0 0 0 1 8 9 10 7 2 2
484 196 20 10 0 14 267 314 7 2 180 739 751 507 302 108 17 0 0 0 0 0 0 0 0 0 0 0 0 0 0 0 0 0 0 0 7 7 8 6 6 3 1
246 18 6 1 0 2 0 87 239 123 356 546 536 447 279 46 0 0 0 0 0 0 0 0 0 0 0 0 0 0 0 0 0 0 0 0 7 7 7 8 9 9 9
77 7 2 3 0 0 0 1 92 109 308 375 306 279 131 0 0 0 0 0 0 0 0 0 0 0 0 0 0 0 0 0 0 0 0 0 3 2 3 7 7 9 4
11 0 0 2 0 0 0 0 0 89 196 206 210 143 48 0 0 0 0 0 0 0 0 0 0 0 0 0 0 0 0 0 0 0 0 0 0 1 2 6 5 5 3
31 2 2 2 1 0 2 3 0 0 85 102 97 45 14 0 0 0 0 0 0 0 0 0 0 0 0 0 0 0 0 0 0 0 0 0 0 1 1 2 4 2 1
5 3 0 2 2 2 2 2 24 1 0 9 63 60 22 0 0 0 0 0 0 0 0 0 0 0 0 0 0 0 0 0 0 0 0 0 0 1 1 1 3 4 0
0 2 2 1 1 1 4 0 0 0 0 0 9 52 3 0 0 0 0 0 0 0 0 0 0 0 0 0 0 0 0 0 0 0 0 0 0 0 1 2 1 1 0
0 2 1 1 0 0 0 0 0 0 0 0 0 4 2 0 0 0 0 0 0 0 0 0 0 0 0 0 0 0 0 0 0 0 0 0 0 0 1 2 4 2 0
1 0 3 1 0 0 0 0 0 0 0 0 5 1 0 0 0 0 0 0 0 0 0 0 0 0 0 0 0 0 0 0 0 0 0 0 0 0 0 2 0 0 0
1 1 1 2 0 0 0 0 0 3 0 8 13 0 0 0 0 0 0 0 0 0 0 0 0 0 0 0 0 0 0 0 0 0 0 0 0 0 0 0 0 0 1
1 1 1 1 0 0 0 0 6 0 0 26 59 46 4 3 0 0 0 0 0 0 0 0 0 0 0 0 0 0 0 0 0 0 0 0 0 0 0 0 0 0 0
1 2 2 1 0 0 0 0 4 0 0 23 40 70 59 73 36 9 20 25 3 0 0 0 0 0 0 0 0 0 0 0 0 0 0 0 0 0 0 0 0 0 0
1 1 1 1 0 0 0 0 0 0 0 4 4 36 42 58 90 45 45 26 0 0 0 0 0 0 0 0 0 0 0 0 0 0 0 0 0 0 0 0 0 0 0
0 1 0 0 0 0 0 0 0 0 0 0 0 11 30 6 76 47 37 39 10 0 0 0 0 0 0 0 0 0 0 0 0 0 0 0 0 0 0 0 0 0 0
0 0 0 0 0 0 0 0 0 0 0 0 0 0 0 1 6 69 51 28 9 0 0 0 0 0 0 0 0 0 0 0 0 0 0 0 0 0 0 0 0 0 0
0 0 0 0 0 0 0 0 0 0 0 0 0 0 0 0 23 39 51 20 13 9 1 0 0 0 0 0 0 0 0 0 0 0 0 0 0 0 0 0 0 0 0
0 0 0 0 0 0 0 0 0 0 0 0 0 0 0 0 57 68 48 32 3 9 1 0 0 0 0 0 0 0 0 0 0 0 0 0 0 0 0 0 0 0 0
0 0 0 0 0 0 0 0 0 0 0 0 0 0 0 0 11 45 70 68 55 31 2 2 0 0 0 0 0 0 0 0 0 0 0 0 0 0 0 0 0 0 0
0 0 0 0 0 0 0 0 0 0 0 0 0 0 0 0 0 12 48 63 48 30 5 0 0 0 0 0 0 0 0 0 0 0 0 0 0 0 0 0 0 0 0

GFSSE_con_mlcape_069.txt.gz
CAPE
1296 1232 1008 249 284 408 613 702 754 170 508 520 400 378 439 384 323 258 147 53 5 0 1 4 6 6 7 11 9 0 0 3 6 7 8 8 8 9 6 17 26 34 45
1379 1304 1074 1042 1077 629 498 533 486 567 442 459 416 466 405 289 200 124 52 5 0 0 7 10 11 9 4 2 2 0 0 5 15 27 30 26 13 8 1 8 30 35 39
1642 1416 1360 919 617 510 478 551 746 854 882 707 627 480 309 220 143 39 2 0 4 3 8 11 7 13 4 0 0 0 0 0 0 3 3 0 8 16 25 26 33 28 21
1206 1541 1454 1151 920 475 125 116 180 935 916 786 590 419 336 233 130 10 0 0 14 8 6 4 4 4 7 2 0 0 0 0 0 0 0 1 5 18 24 34 24 11 19
923 854 1592 1265 685 433 300 173 64 342 877 752 517 430 293 190 96 2 0 0 5 6 3 0 0 0 0 0 0 0 0 0 0 0 0 0 1 9 12 20 18 19 17
867 512 559 1234 594 613 394 207 148 140 661 758 503 385 303 200 79 0 0 0 2 2 0 0 0 0 0 0 0 0 0 0 0 0 0 3 3 9 15 9 12 11 7
767 375 186 150 1 0 0 291 290 94 650 749 463 339 289 184 27 0 0 0 0 0 0 0 0 0 0 0 0 0 0 0 0 0 0 0 3 8 7 2 5 9 4
512 364 98 0 0 2 0 0 123 11 584 678 377 338 274 145 1 0 0 0 0 0 0 0 0 0 0 0 0 0 0 0 0 0 0 0 4 12 3 7 6 3 4
71 34 0 0 0 0 0 0 188 1 12 525 276 232 167 60 0 0 0 0 0 0 0 0 0 0 0 0 0 0 0 0 0 0 0 0 4 7 8 6 5 6 8
8 1 2 2 0 0 0 0 18 2 423 395 274 187 87 6 0 0 0 0 0 0 0 0 0 0 0 0 0 0 0 0 0 0 0 1 3 5 4 5 5 4 2
33 17 1 1 0 0 0 0 0 1 398 332 245 133 46 0 0 0 0 0 0 0 0 0 0 0 0 0 0 0 0 0 0 0 0 0 0 3 4 4 3 2 2
30 1 1 1 0 0 4 0 0 0 53 165 146 82 13 0 0 0 0 0 0 0 0 0 0 0 0 0 0 0 0 0 0 0 0 0 2 3 4 3 3 3 1
2 1 2 2 1 3 1 4 3 1 1 61 90 50 8 0 0 0 0 0 0 0 0 0 0 0 0 0 0 0 0 0 0 0 0 0 1 4 3 4 0 0 0
1 0 1 2 3 2 1 0 3 35 38 47 54 27 0 0 0 0 0 0 0 0 0 0 0 0 0 0 0 0 0 0 0 0 0 0 1 2 1 1 1 0 0
1 1 1 1 1 0 3 0 0 0 7 5 30 35 1 0 0 0 0 0 0 0 0 0 0 0 0 0 0 0 0 0 0 0 0 0 0 0 1 1 1 0 0
0 1 2 1 1 0 0 0 0 0 0 3 13 0 0 0 0 0 0 0 0 0 0 0 0 0 0 0 0 0 0 0 0 0 0 0 0 0 0 0 1 2 0
0 1 1 1 1 0 0 0 0 1 0 4 1 0 0 0 0 0 0 0 0 0 0 0 0 0 0 0 0 0 0 0 0 0 0 0 0 0 0 0 0 0 0
1 1 2 3 2 0 0 0 0 0 0 1 5 5 1 0 0 0 0 0 0 0 0 0 0 0 0 0 0 0 0 0 0 0 0 0 0 0 0 0 0 0 0
0 1 1 1 2 1 0 0 0 0 15 20 24 7 3 0 0 0 0 0 0 0 0 0 0 0 0 0 0 0 0 0 0 0 0 0 0 0 0 0 0 0 0
0 2 1 1 1 0 0 0 0 0 42 52 32 11 2 0 0 0 0 0 0 0 0 0 0 0 0 0 0 0 0 0 0 0 0 0 0 0 0 0 0 0 0
1 1 1 0 0 0 0 0 2 7 14 38 66 76 73 50 42 17 41 45 15 4 0 0 0 0 0 0 0 0 0 0 0 0 0 0 0 0 0 0 0 0 0
1 1 1 0 0 0 0 0 0 0 0 0 5 26 45 52 68 95 56 55 25 1 0 0 0 0 0 0 0 0 0 0 0 0 0 0 0 0 0 0 0 0 0
0 0 0 0 0 0 0 0 0 0 0 0 0 2 5 25 49 32 80 37 26 3 6 0 0 0 0 0 0 0 0 0 0 0 0 0 0 0 0 0 0 0 0
0 0 0 0 0 0 0 0 0 0 0 0 0 0 0 0 0 21 36 60 54 18 9 0 0 0 0 0 0 0 0 0 0 0 0 0 0 0 0 0 0 0 0
0 0 0 0 0 0 0 0 0 0 0 0 0 0 0 0 0 0 31 21 20 9 22 2 0 0 0 0 0 0 0 0 0 0 0 0 0 0 0 0 0 0 0
0 0 0 0 0 0 0 0 0 0 0 0 0 0 0 0 0 0 0 12 24 20 9 2 0 0 0 0 0 0 0 0 0 0 0 0 0 0 0 0 0 0 0

GFSSE_con_mlcape_072.txt.gz
CAPE
906 1392 1121 949 853 412 293 514 863 893 863 773 655 699 656 614 559 509 395 257 190 141 63 9 10 17 26 18 4 0 0 3 6 14 19 11 6 39 41 46 37 46 63
1278 1532 1129 954 917 861 436 470 719 871 878 744 844 755 747 628 483 350 190 94 41 4 2 1 2 10 18 14 2 2 10 7 8 13 8 12 5 12 37 31 18 28 21
1664 1494 1275 804 445 854 659 451 969 1028 948 893 824 717 589 486 367 160 94 59 12 2 6 8 8 8 7 6 2 1 0 0 4 5 8 11 29 33 24 17 4 7 8
1431 1404 1224 1048 977 1067 815 397 635 922 822 877 735 571 441 336 213 95 95 63 33 12 8 9 11 4 0 0 0 0 0 0 0 0 0 8 27 40 26 22 16 19 15
1153 1129 1112 1195 1010 1077 1090 981 968 549 583 535 496 434 311 185 133 152 104 62 73 73 111 55 16 3 0 0 0 0 0 0 0 0 0 0 15 24 24 12 13 9 4
1152 780 793 528 242 454 388 396 465 1015 824 685 525 359 203 135 94 168 98 76 36 8 4 5 8 17 0 0 0 0 0 0 0 0 0 4 5 14 11 5 8 7 10
1180 622 373 126 11 60 50 10 27 474 597 541 503 340 178 147 74 126 112 37 3 0 0 3 4 0 0 0 0 0 0 0 0 0 0 2 8 7 4 8 3 7 5
1044 625 164 168 5 0 0 0 0 202 397 336 344 310 210 134 57 100 56 1 0 0 0 0 0 0 0 0 0 0 0 0 0 0 0 4 2 9 9 4 8 4 7
404 249 34 28 13 0 0 0 1 105 82 174 225 366 157 85 63 9 1 0 0 0 0 0 0 0 0 0 0 0 0 0 0 0 0 1 7 5 6 5 4 4 5
75 11 0 0 0 0 0 0 0 70 200 9 114 271 165 69 29 0 0 0 0 0 0 0 0 0 0 0 0 0 0 0 0 0 0 5 8 7 9 4 3 4 4
5 3 0 3 2 0 0 0 0 53 73 70 208 192 149 27 0 0 0 0 0 0 0 0 0 0 0 0 0 0 0 0 0 0 0 6 6 7 2 2 2 1 1
14 0 0 0 0 0 0 0 14 73 33 43 64 119 88 0 0 0 0 0 0 0 0 0 0 0 0 0 0 0 0 0 0 0 0 2 3 3 2 2 1 1 0
27 1 1 1 2 2 0 0 1 8 29 74 40 117 1 0 0 0 0 0 0 0 0 0 0 0 0 0 0 0 0 0 0 0 0 0 2 3 1 3 1 2 0
0 0 1 2 1 3 3 0 0 5 32 13 11 47 0 0 0 0 0 0 0 0 0 0 0 0 0 0 0 0 0 0 0 0 0 0 1 4 4 1 1 1 0
2 0 1 2 4 1 2 0 0 9 6 26 23 9 0 0 0 0 0 0 0 0 0 0 0 0 0 0 0 0 0 0 0 0 0 0 0 2 3 4 0 0 0
9 9 1 3 2 0 0 1 1 12 21 38 36 0 0 0 0 0 0 0 0 0 0 0 0 0 0 0 0 0 0 0 0 0 0 0 0 0 1 3 3 1 0
4 3 1 2 2 2 0 3 2 23 24 22 27 13 0 0 0 0 0 0 0 0 0 0 0 0 0 0 0 0 0 0 0 0 0 0 0 0 0 0 0 0 0
0 0 0 2 1 0 0 0 0 7 10 11 21 14 0 0 0 0 0 0 0 0 0 0 0 0 0 0 0 0 0 0 0 0 0 0 0 0 0 0 0 0 0
0 1 2 2 1 1 0 0 0 3 2 5 5 11 1 0 0 0 0 0 0 0 0 0 0 0 0 0 0 0 0 0 0 0 0 0 0 0 0 0 0 0 0
0 1 1 1 1 1 0 0 3 12 18 0 0 0 0 0 0 0 0 0 0 0 0 0 0 0 0 0 0 0 0 0 0 0 0 0 0 0 0 0 0 0 0
1 1 1 0 1 0 0 0 1 0 2 0 0 3 0 0 0 0 0 0 0 0 0 0 0 0 0 0 0 0 0 0 0 0 0 0 0 0 0 0 0 0 0
0 0 0 1 0 0 0 0 0 0 0 0 1 0 5 0 0 1 2 14 19 28 3 0 0 0 0 0 0 0 0 0 0 0 0 0 0 0 0 0 0 0 0
0 0 0 0 0 0 0 0 0 0 0 1 17 19 31 46 26 42 39 51 72 48 25 0 0 0 0 0 0 0 0 0 0 0 0 0 0 0 0 0 0 0 0
1 0 0 0 0 0 0 0 0 0 0 0 0 0 5 27 34 72 90 71 61 26 12 0 0 0 0 0 0 0 0 0 0 0 0 0 0 0 0 0 0 0 0
0 0 0 0 0 0 0 0 0 0 0 0 0 0 0 0 0 4 13 36 33 44 26 10 0 0 0 0 0 0 0 0 0 0 0 0 0 0 0 0 0 0 0
0 0 0 0 0 0 0 0 0 0 0 0 0 0 0 0 0 0 0 0 11 38 54 43 14 6 0 0 0 0 0 0 0 0 0 0 0 0 0 0 0 0 0

GFSSE_con_mlcape_075.txt.gz
CAPE
1022 1189 909 959 1031 959 1250 1368 1081 914 911 801 732 555 301 458 561 680 668 674 375 270 181 21 61 91 42 23 22 11 3 2 0 3 27 38 47 49 40 19 21 23 31
1117 1410 1074 887 1004 1190 1432 1523 1237 1173 998 922 741 608 709 590 717 673 631 542 334 233 107 59 13 20 6 4 0 0 0 0 5 7 13 22 39 41 20 3 10 10 4
1501 1552 1260 1198 1063 1113 1380 1498 1362 1302 1180 988 937 844 767 669 590 498 360 277 198 73 27 18 17 20 9 4 0 1 5 6 9 3 7 19 35 12 7 0 1 1 3
1726 1723 1412 1258 1137 1023 1302 1508 1586 1465 1163 897 820 942 829 601 457 348 195 125 40 3 2 4 10 19 13 11 0 0 0 0 0 0 11 22 22 15 10 5 4 4 5
1182 1514 1249 1112 934 773 883 1442 1624 1525 1311 981 841 898 768 478 342 210 130 114 48 7 5 10 21 17 9 0 0 0 0 0 0 1 16 19 16 9 8 2 5 3 11
1000 1203 1035 959 801 621 614 847 996 1445 1316 1097 943 827 595 385 264 148 84 74 17 5 30 16 7 1 0 0 0 0 0 0 0 2 10 15 7 5 7 8 10 5 9
951 1049 722 884 649 568 469 425 448 653 706 870 915 713 447 361 195 84 75 124 177 281 137 18 2 0 0 0 0 0 0 0 0 3 11 10 7 11 7 8 5 8 6
782 554 655 590 429 190 141 95 102 314 48 169 541 524 341 302 102 71 65 13 3 5 0 37 0 0 0 0 0 0 0 0 0 7 9 7 14 9 12 5 9 7 5
382 319 279 307 240 144 104 4 0 104 361 232 292 423 211 155 80 107 8 0 0 0 4 1 0 0 0 0 0 0 0 0 0 3 0 7 7 8 7 6 5 2 1
52 55 75 79 67 50 13 0 2 14 246 274 227 239 96 119 113 44 0 0 64 46 0 0 0 0 0 0 0 0 0 0 0 0 2 3 7 6 5 4 2 2 2
60 32 9 2 1 0 0 0 0 5 107 181 207 117 37 50 40 8 0 0 82 0 0 0 0 0 0 0 0 0 0 0 0 0 0 6 8 6 4 2 2 2 2
58 30 10 6 0 0 0 0 0 0 171 140 107 70 11 9 8 0 0 0 57 0 0 0 0 0 0 0 0 0 0 0 0 0 2 6 5 4 3 1 1 0 0
36 13 39 2 0 0 0 0 0 0 71 27 44 48 0 2 0 0 0 0 18 0 0 0 0 0 0 0 0 0 0 0 0 0 0 3 5 4 2 1 0 0 0
3 10 0 0 1 2 0 0 2 0 6 19 32 12 4 0 0 0 0 0 0 1 8 2 0 0 0 0 0 0 0 0 0 0 0 0 1 2 2 2 2 0 0
7 7 2 1 1 0 0 0 8 3 2 0 35 0 0 0 0 0 0 0 0 0 0 0 0 0 0 0 0 0 0 0 0 0 0 0 1 2 4 3 3 1 0
11 6 6 2 1 0 0 0 2 4 2 0 3 1 0 0 0 0 0 0 0 0 0 0 0 0 0 0 0 0 0 0 0 0 0 0 0 2 7 4 2 1 0
1 13 26 6 1 0 0 0 1 9 4 2 4 3 0 0 0 0 0 0 0 0 0 0 0 0 0 0 0 0 0 0 0 0 0 0 0 0 2 2 1 1 0
0 12 6 3 1 1 2 5 4 5 17 0 12 0 0 0 0 0 0 0 0 0 0 0 0 0 0 0 0 0 0 0 0 0 0 0 0 0 0 0 0 0 0
0 1 1 1 1 2 2 8 1 0 0 0 4 0 0 0 0 0 0 0 0 0 0 0 0 0 0 0 0 0 0 0 0 0 0 0 0 0 0 0 0 0 0
1 1 2 2 2 1 1 1 0 2 12 11 13 0 0 0 0 0 0 0 0 0 0 0 0 0 0 0 0 0 0 0 0 0 0 0 0 0 0 0 0 0 0
1 2 2 1 1 1 1 3 0 0 1 3 10 0 0 0 0 0 0 0 0 5 0 0 0 0 0 0 0 0 0 0 0 0 0 0 0 0 0 0 0 0 0
2 1 2 1 1 2 0 5 1 0 0 14 8 5 2 0 0 0 0 0 0 6 1 0 0 0 0 0 0 0 0 0 0 0 0 0 0 0 0 0 0 0 0
1 2 2 0 1 1 0 0 0 0 1 1 1 7 1 0 0 0 0 0 0 0 7 4 1 2 0 0 0 0 0 0 0 0 0 0 0 0 0 0 0 0 0
1 0 3 2 1 1 0 0 0 1 0 1 0 0 0 0 0 0 0 0 3 33 57 53 22 16 0 0 0 0 0 0 0 0 0 0 0 0 0 0 0 0 0
0 1 1 1 1 1 2 0 0 1 0 0 0 0 1 0 0 1 10 31 45 50 100 84 44 14 0 0 0 0 0 0 0 0 0 0 0 0 0 0 0 0 0
1 2 1 2 2 0 0 0 0 0 0 0 0 0 0 0 1 23 38 60 113 121 134 141 97 36 16 0 4 1 0 0 0 0 0 0 0 0 0 0 0 0 0

GFSSE_con_mlcape_078.txt.gz
CAPE
1242 1085 652 1091 1036 1124 1678 1402 1155 802 899 1030 934 760 471 638 622 648 622 554 445 307 184 342 195 123 138 85 63 38 34 30 26 34 45 42 32 33 21 17 29 41 32
1405 1236 961 1115 1078 1233 1728 1553 1092 975 1205 1091 966 739 683 848 848 791 717 577 323 176 209 244 185 100 36 17 1 1 0 1 14 14 33 41 33 30 17 3 4 11 7
1579 1456 1276 1228 1149 1254 1833 1699 1441 1441 1387 1175 946 792 849 919 966 967 648 452 258 168 277 134 34 13 5 0 0 0 0 0 0 22 50 43 29 14 6 3 7 4 3
1656 1794 1421 1345 1161 1418 1777 1834 1694 1664 1420 1194 1036 988 1178 1097 1009 967 672 529 297 121 140 35 12 17 7 0 0 0 0 0 0 4 54 27 20 10 4 2 2 3 2
1319 2144 1617 1336 1253 1236 1209 1733 1722 1648 1462 1276 1181 1136 1169 1070 893 769 483 260 113 83 66 20 15 9 1 0 0 0 0 0 0 24 26 24 10 6 3 0 1 0 0
935 1715 1458 1344 1171 864 485 927 672 1370 1474 1292 1309 1231 1117 966 801 531 224 62 13 5 7 15 17 8 0 0 0 0 0 0 0 19 4 2 1 12 3 1 1 1 1
1242 1317 1185 1131 768 537 548 610 409 693 965 1059 1114 1183 1043 960 733 463 211 52 17 2 4 8 12 4 0 0 0 0 0 0 0 4 2 1 3 12 3 4 3 3 4
1156 1150 1262 777 629 418 161 328 373 692 507 818 541 868 986 881 644 405 147 94 68 13 0 5 2 0 0 0 0 0 0 0 0 1 0 3 8 7 5 6 4 4 6
762 879 1054 1135 627 314 133 244 465 592 679 510 372 364 531 603 528 271 254 200 97 66 0 0 0 0 0 0 0 0 0 0 0 0 0 5 13 5 5 5 5 5 6
208 238 492 785 483 291 152 0 96 328 232 150 108 112 230 317 311 210 159 195 129 80 0 0 0 0 0 0 0 0 0 0 0 0 0 0 8 6 8 7 5 6 4
12 53 49 53 204 213 106 50 2 26 177 99 82 38 167 231 164 145 106 128 73 0 0 0 0 0 0 0 0 0 0 0 0 0 0 1 11 7 8 5 6 5 3
12 0 5 16 46 43 15 39 105 101 143 166 128 112 118 114 109 152 160 130 47 0 0 0 0 0 0 0 0 0 0 0 2 1 1 6 7 6 5 4 3 2 3
117 3 3 2 25 5 1 0 0 66 100 98 109 3 83 82 137 147 183 127 8 0 0 0 0 0 0 0 0 0 0 0 1 1 1 5 8 6 4 2 2 2 0
335 180 28 1 5 2 0 0 4 29 48 106 26 0 8 42 93 138 149 59 1 0 0 0 0 0 0 0 0 0 0 0 0 1 1 3 6 8 4 3 1 1 1
124 222 114 44 11 19 15 11 3 0 6 2 2 0 5 33 25 47 100 116 31 8 0 0 0 0 0 0 0 0 0 0 0 2 2 3 4 7 8 5 1 0 0
59 4 41 6 4 6 8 14 3 1 3 1 0 1 10 22 22 4 4 25 71 81 26 1 0 0 0 0 0 0 0 0 0 2 0 3 2 2 6 5 2 1 0
4 12 4 19 7 2 6 3 4 4 2 1 0 0 7 14 4 0 0 0 3 28 5 0 0 0 0 0 0 0 0 0 0 1 1 1 0 1 0 2 2 1 0
4 14 6 22 3 5 6 6 4 2 2 1 0 0 0 5 0 0 0 0 0 0 0 0 0 0 0 0 0 0 0 0 0 0 0 0 0 0 0 3 1 0 0
1 13 14 6 1 1 2 3 4 4 1 2 0 0 0 0 0 0 0 0 0 0 0 0 0 0 0 0 0 0 0 0 0 0 0 0 0 0 2 0 0 0 0
0 8 28 2 1 2 2 7 3 3 1 0 0 0 0 0 0 0 0 0 0 0 0 0 0 0 0 0 0 0 0 0 0 0 0 0 0 0 0 7 1 7 0
2 10 9 0 2 2 2 5 2 4 4 0 0 0 0 0 0 7 9 0 0 0 0 0 0 0 0 0 0 0 0 0 0 0 0 0 0 0 0 1 3 4 2
3 6 4 2 2 3 11 12 4 3 15 0 0 0 0 0 0 0 0 4 5 11 0 0 0 0 1 0 0 0 1 0 0 0 0 0 0 0 0 0 0 0 0
2 3 3 3 2 4 7 19 8 2 19 5 0 0 0 0 0 0 1 6 1 8 6 1 0 0 12 0 0 14 3 9 0 0 0 0 0 0 0 0 0 0 0
0 2 3 3 3 2 1 5 6 3 1 1 0 0 0 0 0 1 0 1 0 22 31 60 31 37 70 61 0 0 14 7 7 63 0 0 0 0 0 0 0 0 0
0 1 5 6 4 3 1 4 5 5 3 2 0 0 0 0 7 0 2 1 18 85 81 129 99 73 105 127 100 66 2 0 0 0 29 25 0 0 0 0 0 0 0
0 3 4 1 3 10 3 1 2 2 2 2 1 3 0 0 0 0 0 21 24 63 100 195 247 207 188 120 70 52 18 0 31 42 42 57 33 0 0 0 0 0 0

GFSSE_con_mlcape_081.txt.gz
CAPE
1306 1117 707 930 969 1394 1620 1274 1149 1019 1029 1017 902 533 527 723 794 806 622 424 391 267 222 321 413 430 352 228 104 26 24 34 35 44 46 60 42 45 30 15 13 14 8
1529 1491 784 1048 1017 1237 1716 1427 1158 1081 1109 1174 921 684 631 827 925 826 836 598 620 553 500 468 399 298 180 104 45 29 37 7 28 32 36 48 31 12 4 0 5 6 1
1695 1571 1262 1008 1108 1330 1816 1574 1269 1175 1391 1256 1013 765 824 1038 1074 974 846 730 484 492 547 450 274 103 20 2 1 0 0 1 15 22 27 15 13 8 3 0 1 6 5
1794 1627 1687 1079 1087 1266 1696 1712 1468 1360 1469 1319 1070 989 1088 1234 1193 1085 744 624 426 410 442 281 154 37 3 0 0 0 0 27 32 8 10 15 10 13 6 6 6 2 2
1743 1942 1826 1278 1139 1123 1619 1725 1560 1349 1342 1206 1136 1151 1258 1314 1117 1031 713 539 351 385 323 195 54 7 0 0 0 0 0 0 19 7 13 17 9 9 4 2 2 2 1
1529 1987 1602 1250 969 1062 1440 1361 1326 1001 805 1209 1202 1268 1356 1348 1262 1033 757 518 396 315 169 73 9 4 0 0 0 0 0 0 8 6 13 11 12 9 2 0 3 3 5
1619 1695 1918 1312 1120 965 828 555 476 365 393 654 1104 1320 1231 1342 1060 755 580 482 283 202 105 15 6 0 0 0 0 0 0 0 4 1 2 6 9 11 4 2 3 4 4
1346 1623 1639 1237 875 471 318 115 106 24 0 295 743 739 968 1053 753 468 280 155 97 73 31 1 1 0 0 0 0 0 0 0 0 0 0 5 8 9 8 5 5 3 4
1019 1431 1548 1303 790 249 47 19 93 61 10 257 382 436 424 545 545 309 183 171 115 0 0 0 0 0 0 0 0 0 0 0 0 2 0 3 6 6 6 4 4 4 6
629 893 1405 954 614 279 82 23 97 222 169 177 400 280 238 300 338 221 184 161 82 0 0 0 0 0 0 0 0 0 0 0 0 0 2 2 8 5 5 3 4 6 6
27 124 351 557 605 232 166 49 57 88 236 152 261 213 121 165 135 194 161 163 77 0 0 0 0 0 0 0 0 0 0 2 1 3 0 4 8 5 4 6 7 7 7
157 12 23 206 142 100 155 194 180 233 333 272 165 174 129 115 109 193 207 205 96 0 0 0 0 0 0 0 0 0 1 3 5 0 1 8 13 10 9 7 7 7 3
266 143 15 1 87 178 53 113 132 205 287 352 257 74 19 77 114 43 188 166 102 0 0 0 0 0 0 0 0 0 0 7 10 0 1 6 11 13 9 5 2 3 1
360 152 2 2 3 66 45 24 113 94 132 146 144 108 88 54 11 111 135 108 82 0 0 0 0 0 0 0 0 0 0 15 12 0 3 6 8 8 8 4 2 1 1
293 382 54 12 0 1 5 8 0 80 111 133 77 93 5 6 27 35 47 152 47 0 0 0 0 0 0 0 0 0 1 17 9 0 2 8 5 5 4 1 2 2 1
153 122 149 35 11 21 27 45 9 4 14 36 2 2 23 0 29 6 4 69 102 29 1 0 1 0 0 0 0 0 2 13 15 1 0 2 2 3 4 4 2 1 0
151 72 13 18 0 9 10 1 2 3 3 1 0 2 1 0 37 32 48 97 202 110 81 22 0 0 0 0 0 0 1 9 6 12 0 0 0 1 5 6 4 2 0
118 7 22 12 13 18 7 2 3 2 1 1 2 1 0 0 7 11 56 89 184 155 79 27 3 0 0 0 0 0 1 1 1 10 11 5 1 3 1 2 2 0 0
23 0 10 31 17 30 34 2 4 0 2 1 0 0 0 0 0 0 17 71 81 64 28 39 13 0 0 0 0 0 0 0 0 2 14 16 8 7 6 0 0 0 0
19 0 3 18 5 12 1 6 1 5 2 0 0 0 0 0 0 10 8 17 29 2 2 8 5 0 0 0 0 0 0 0 0 0 0 0 4 0 7 3 0 0 0
0 0 7 5 1 2 1 4 1 2 3 0 0 0 0 2 14 11 15 9 4 0 0 0 0 0 0 0 0 0 0 0 0 0 0 0 0 0 0 2 3 2 0
0 0 1 13 4 3 4 6 2 0 2 0 0 0 0 6 16 56 38 49 0 0 0 0 0 1 0 0 0 0 0 0 0 0 0 0 0 0 0 0 0 5 1
0 0 3 3 4 6 3 9 3 1 3 0 0 0 0 12 30 57 70 45 12 52 39 43 47 45 77 3 1 37 50 51 45 0 0 0 0 0 0 0 0 0 0
12 0 4 2 5 3 4 2 2 2 1 0 0 0 0 3 20 42 50 38 62 111 77 75 101 75 48 33 0 0 51 112 27 0 0 0 0 0 0 0 0 0 0
23 0 1 4 2 2 3 1 1 4 1 4 0 0 0 0 0 2 30 48 39 44 120 95 36 48 26 62 71 50 15 60 43 23 4 12 0 0 0 0 0 0 0
23 0 0 4 6 2 8 6 4 1 14 4 0 0 0 0 0 11 15 3 8 31 83 112 116 84 78 114 89 82 81 58 33 5 0 14 53 16 0 0 0 0 0

GFSSE_con_mlcape_084.txt.gz
CAPE
1374 972 757 752 1212 1435 1121 1072 985 796 759 819 555 269 344 498 466 272 273 241 292 299 217 292 487 519 410 293 182 126 119 130 75 75 65 49 41 20 2 2 5 7 3
1439 1183 816 698 976 1555 1430 1149 1126 997 1003 1066 655 482 603 764 673 563 454 445 359 383 572 612 527 338 264 241 128 80 46 19 23 24 33 50 33 19 13 7 4 7 5
1779 1322 1005 817 831 1281 1683 1421 1231 1219 1210 1193 825 706 849 925 938 767 702 601 684 665 642 545 362 252 239 136 55 44 5 1 0 2 2 11 20 29 17 8 3 10 10
1888 1815 1640 972 995 1190 1747 1638 1359 1279 1294 1203 922 765 1038 1087 1004 925 885 687 567 741 649 447 276 142 113 67 29 22 4 1 0 5 10 15 18 21 13 11 9 9 10
1821 1874 1927 1165 933 1188 1604 1729 1479 1314 1337 1245 845 1031 1204 1193 1004 801 823 689 641 730 515 406 180 46 0 0 3 40 11 2 0 0 2 3 9 14 7 8 3 3 6
1577 2090 1493 1199 871 1029 1365 1726 1523 1279 1266 1295 911 1005 1332 1229 1057 799 674 505 561 572 568 402 70 0 0 0 0 12 0 6 4 2 0 1 6 14 5 6 8 6 9
1602 1811 1689 1215 1053 1043 1111 1238 805 504 86 28 311 848 1348 1255 868 654 565 417 382 465 342 90 11 0 0 0 0 0 0 0 2 0 0 0 5 5 6 3 5 7 8
1300 1709 1864 1342 1091 824 721 532 329 83 5 1 12 15 854 1168 857 745 517 405 327 298 68 7 0 0 0 0 0 0 0 0 0 0 0 1 3 1 10 15 8 5 4
877 1325 1201 1500 882 372 153 131 66 46 0 0 1 6 716 748 761 557 397 301 291 95 1 0 0 0 0 0 0 0 0 2 0 0 0 3 6 6 13 9 5 5 4
612 904 1153 1167 939 429 85 54 5 49 0 2 5 41 315 208 379 314 208 220 113 0 0 0 0 0 0 0 0 0 0 2 0 0 0 11 10 11 11 8 5 4 4
12 69 577 757 528 322 232 86 1 30 94 39 2 72 155 184 231 134 260 123 36 0 0 0 0 0 0 0 0 0 0 4 0 0 0 11 5 14 10 6 4 5 4
110 6 146 546 423 284 180 12 0 3 70 83 0 84 115 148 107 97 154 100 20 0 0 0 0 0 0 0 0 0 0 14 0 0 0 8 10 9 6 4 4 7 6
107 106 5 83 125 31 44 115 106 129 177 255 103 111 88 117 78 69 71 96 36 0 0 0 0 0 0 0 0 0 1 10 0 0 1 3 8 8 9 6 4 4 2
253 75 31 3 24 150 16 4 21 37 112 169 143 77 74 17 39 3 28 86 19 0 0 0 0 0 0 0 0 0 8 1 0 0 2 2 5 9 5 6 6 1 0
160 175 66 10 1 1 7 0 3 29 25 74 153 56 14 4 6 21 60 52 16 0 0 0 0 0 0 0 0 1 15 0 0 0 0 1 4 8 6 3 3 1 0
168 318 144 119 3 0 0 1 4 1 28 77 68 172 38 6 1 17 52 35 5 0 0 0 0 0 0 0 0 0 12 1 0 0 0 0 0 4 5 5 2 1 1
67 361 156 65 9 2 13 1 3 2 1 20 23 83 1 6 3 11 12 31 30 13 0 1 0 0 0 0 0 0 8 15 0 0 0 0 0 2 2 1 2 1 0
50 128 130 38 2 13 3 1 0 1 0 0 0 37 1 3 3 0 0 0 72 115 45 11 3 0 0 0 0 0 3 20 8 0 0 0 0 0 4 0 0 0 0
32 6 52 0 6 13 9 3 1 2 2 2 1 0 1 1 0 0 0 5 36 78 56 24 1 0 0 0 0 1 0 9 12 4 0 0 0 0 0 0 0 0 0
0 0 16 0 3 12 16 2 3 2 2 1 1 1 2 0 0 0 0 1 6 30 53 25 9 0 0 0 0 2 6 10 0 1 16 7 1 0 0 0 0 0 0
10 0 0 2 3 3 2 2 2 1 1 0 0 0 0 0 0 0 0 1 10 27 19 15 2 0 0 0 0 0 4 11 0 1 0 0 4 0 5 0 0 0 0
0 0 0 2 3 3 3 2 1 1 1 0 0 0 1 0 0 0 0 0 9 20 43 26 1 0 0 0 0 0 0 0 0 0 0 0 0 0 0 0 0 0 0
0 0 0 3 2 2 3 1 2 1 0 0 0 0 0 0 0 0 0 0 4 1 9 7 0 0 0 0 0 0 1 0 0 0 0 0 0 0 0 0 0 1 0
0 0 0 0 2 2 6 0 1 1 0 0 0 0 0 0 0 0 0 0 20 16 23 0 0 0 12 0 0 20 35 58 32 0 0 0 0 0 0 0 0 0 0
17 0 0 0 4 3 8 1 1 1 0 0 0 0 0 0 4 5 2 9 10 67 39 32 33 41 70 51 1 10 1 43 40 34 2 0 0 0 0 0 0 0 0
20 0 0 0 3 3 4 1 1 0 0 0 0 0 0 0 7 7 27 31 32 51 54 65 72 75 44 56 62 46 33 34 46 31 11 0 0 0 0 0 0 0 0

GFSSE_con_mlcape_087.txt.gz
CAPE
932 870 1151 1289 1026 908 860 869 796 653 618 543 542 661 646 596 512 478 503 465 398 407 426 642 627 593 625 502 430 390 324 255 183 110 76 37 16 15 6 5 6 13 16
1104 964 954 1428 1405 1112 1056 1030 992 871 876 680 682 662 572 491 439 345 282 352 407 388 441 696 537 411 474 377 236 196 167 162 145 88 104 67 35 25 13 9 7 9 13
1272 1020 897 1046 1517 1492 1310 1202 1144 1059 1165 748 672 681 591 556 564 506 441 456 664 699 682 506 195 293 385 233 132 70 45 30 5 5 6 10 19 24 18 6 8 14 25
1455 1122 892 797 1134 1658 1562 1346 1267 1229 1329 934 668 672 866 744 735 655 576 711 769 808 758 668 506 365 295 94 47 59 19 0 2 6 9 18 31 27 15 10 12 6 7
1695 1527 1259 931 903 1321 1558 1548 1414 1387 1390 1144 932 1005 970 929 856 908 826 642 651 734 768 734 435 423 101 22 14 3 0 0 0 0 5 10 21 31 19 12 1 6 1
1690 1659 1326 1105 1000 1292 1473 1558 1581 1443 1320 811 528 620 1368 1111 1130 927 650 558 629 719 856 517 439 110 15 5 16 0 0 0 0 0 1 6 11 18 10 7 6 9 4
1596 1603 1213 1006 979 1205 1535 1596 1660 1512 692 70 27 22 169 961 1046 898 562 549 585 622 665 282 60 0 1 0 0 0 0 0 0 0 0 4 15 15 4 0 7 2 4
1449 1589 1436 1132 1060 1095 1267 1566 1089 607 456 246 26 0 0 302 803 725 500 496 507 583 297 59 0 0 0 0 0 0 0 0 0 0 0 5 16 11 2 0 7 9 11
827 1083 997 1027 887 778 707 674 423 322 188 58 4 0 0 0 472 561 437 465 521 307 66 0 0 0 0 0 0 0 0 0 0 0 0 6 12 4 7 1 2 10 10
459 585 810 836 509 163 62 124 124 50 13 0 0 0 0 0 213 353 335 360 283 107 10 0 0 0 0 0 0 0 0 0 0 0 2 16 7 1 0 10 5 10 7
0 69 534 802 530 229 14 0 44 15 0 0 0 16 0 48 188 211 279 316 192 60 14 2 0 0 0 0 0 0 0 0 0 0 3 11 3 5 2 10 10 6 5
30 0 110 500 392 274 204 38 5 5 18 21 0 22 10 136 85 109 125 184 111 40 0 0 0 0 0 0 0 0 0 0 0 0 0 3 6 6 12 10 9 5 2
9 0 7 313 364 249 127 0 0 10 15 18 0 6 101 78 96 45 71 76 52 1 0 0 0 0 0 0 0 0 0 0 0 0 0 6 10 8 11 8 5 2 1
7 0 0 49 67 162 139 75 84 63 67 48 1 49 38 86 38 44 26 34 2 0 0 0 0 0 0 0 0 0 0 0 0 0 0 4 7 4 6 4 2 1 1
50 0 0 0 47 102 35 9 17 26 61 63 19 35 48 27 5 12 10 1 5 0 0 0 0 0 0 0 0 0 0 0 0 0 0 1 2 6 5 2 2 1 1
74 9 0 0 6 12 2 0 1 2 0 39 35 26 13 10 4 3 12 0 0 0 0 0 0 0 0 0 0 0 0 0 0 0 0 0 0 1 2 3 2 2 1
156 55 6 0 0 2 0 1 1 1 0 0 21 7 7 5 1 0 8 0 0 0 0 0 0 0 0 0 0 0 0 0 0 0 0 0 0 0 1 0 1 2 1
80 108 33 20 0 9 19 8 0 0 0 1 17 47 12 5 2 4 5 0 0 0 0 0 0 0 0 0 0 0 1 0 0 0 0 0 0 0 0 0 0 1 1
24 83 24 0 0 0 13 0 0 0 0 0 0 23 18 9 0 12 2 0 0 0 0 3 1 2 0 0 0 0 0 0 0 0 0 0 0 0 0 0 0 0 0
0 11 0 0 0 3 1 0 0 1 0 0 0 0 2 2 3 16 0 1 17 0 1 6 5 0 0 0 2 0 4 0 0 0 0 0 0 0 0 0 0 0 0
0 0 0 0 0 0 1 0 2 0 1 2 2 0 1 1 0 1 0 0 2 8 9 0 0 0 0 4 7 3 0 28 5 0 0 0 0 0 0 0 0 0 0
0 0 0 0 0 0 1 1 1 1 2 1 1 1 0 1 2 0 0 1 2 0 1 0 0 0 4 0 1 6 2 0 0 6 1 1 0 0 0 0 0 0 0
0 0 0 0 0 0 2 1 1 1 1 1 1 0 0 0 0 0 0 0 1 0 1 0 0 0 1 0 6 0 0 0 0 0 0 0 0 0 0 0 0 0 0
0 0 0 0 0 0 4 0 1 1 0 0 0 0 0 0 0 0 0 0 0 0 3 0 0 0 1 0 0 0 0 0 0 0 0 0 0 0 0 0 0 0 0
0 0 0 0 0 1 2 1 0 0 0 0 0 0 0 0 0 0 0 0 0 0 0 0 0 3 0 0 0 0 16 19 8 1 0 0 0 0 0 0 0 0 0
0 0 0 0 1 3 1 0 0 0 0 0 0 0 0 0 0 0 0 0 0 0 0 0 5 0 2 2 0 0 17 16 22 24 7 0 0 0 0 0 0 0 0

GFSSE_con_mlcape_090.txt.gz
CAPE
854 1244 1179 1200 1162 1000 687 423 381 515 542 620 642 646 709 753 743 795 861 851 858 897 825 654 475 458 650 669 469 392 397 335 297 178 163 122 88 59 31 5 9 12 13
852 1349 1349 1154 1113 1064 936 787 565 561 605 675 728 710 679 707 737 757 758 787 834 956 803 710 612 535 607 541 431 325 248 171 97 67 84 37 32 32 18 6 9 16 4
988 1194 1529 1303 1157 1158 1066 935 842 785 758 813 687 669 706 684 683 627 639 662 776 936 860 686 606 611 526 430 298 264 198 95 78 59 17 14 24 21 16 9 13 15 19
1041 972 1164 1457 1361 1298 1198 1073 986 995 866 866 789 716 708 643 596 616 657 703 767 805 711 291 582 471 509 292 188 108 47 18 16 7 0 15 24 20 7 6 8 13 13
1198 1010 825 1104 1374 1396 1335 1309 1099 1207 974 936 909 887 872 805 777 545 780 989 973 749 441 378 502 445 263 199 51 12 0 1 3 0 1 18 18 30 17 9 8 12 10
1396 1303 973 907 1220 1413 1465 1434 1446 1388 1227 1103 1027 1054 1130 1164 899 801 762 899 964 784 681 510 471 214 147 50 16 0 0 0 0 1 12 19 14 15 2 6 7 8 3
1574 1412 1122 1030 1133 1431 1606 1628 1584 1614 1380 1020 769 626 278 336 364 894 772 834 835 763 587 401 132 79 45 24 0 0 0 0 0 0 2 5 10 14 5 0 1 3 5
1431 1262 1044 991 1096 1486 1661 1763 1703 1421 862 560 221 110 1 49 244 414 577 803 671 521 435 283 164 50 52 0 0 0 0 0 0 0 2 7 22 13 7 1 2 2 3
1394 1303 1013 1012 941 1023 1375 1639 1568 1167 464 153 112 76 16 51 28 144 336 477 434 355 242 221 52 31 4 0 0 0 0 0 0 0 1 10 20 15 5 4 1 1 6
858 690 637 598 621 580 636 1145 978 774 425 151 104 33 29 3 0 0 193 340 433 261 110 57 13 13 0 0 0 0 0 0 0 0 0 14 21 15 4 1 1 4 2
93 396 640 489 222 211 154 297 366 305 154 42 13 0 0 0 0 32 158 238 276 127 50 0 0 0 0 0 0 0 0 0 0 0 1 7 5 11 13 5 2 4 6
17 33 418 430 192 56 11 1 0 0 0 0 0 5 0 0 0 11 133 184 160 37 21 0 0 0 0 0 0 0 0 0 0 0 0 5 7 11 8 1 6 5 7
0 0 101 316 281 186 71 0 0 0 0 0 0 27 6 5 27 130 80 69 55 12 0 0 0 0 0 0 0 0 0 0 0 0 1 6 8 7 1 4 6 3 9
0 0 0 97 179 127 54 12 0 0 0 0 4 1 25 46 26 31 48 48 25 0 0 0 0 0 0 0 0 0 0 0 0 0 2 5 8 10 7 7 6 4 5
12 0 0 53 60 127 87 74 30 9 32 0 1 1 65 65 22 26 30 8 7 0 0 0 0 0 0 0 0 0 0 0 0 0 0 5 8 7 7 4 5 6 4
5 0 0 1 4 59 52 63 31 2 37 10 0 0 58 34 29 18 8 3 0 0 0 0 0 0 0 0 0 0 0 0 0 0 0 0 2 1 3 5 6 6 4
13 0 0 0 4 20 46 8 0 0 1 37 1 4 8 8 11 10 3 3 0 0 0 0 0 0 0 0 0 0 0 0 0 0 0 0 0 3 4 5 4 3 2
9 0 0 0 0 0 0 3 1 0 0 11 24 12 2 2 1 5 3 0 0 0 0 0 0 0 0 0 0 0 0 0 0 0 0 0 0 0 0 3 1 2 2
30 7 0 0 0 0 0 1 3 0 0 1 19 30 8 5 2 8 1 0 0 0 0 0 0 0 0 0 0 0 0 0 0 0 0 0 0 0 0 0 0 0 0
40 28 9 4 0 0 0 0 0 0 0 0 0 3 24 21 2 2 6 0 0 0 0 0 0 0 0 0 0 0 0 0 0 0 0 0 0 0 0 0 0 0 0
38 21 7 0 0 0 0 0 0 0 0 0 0 0 23 4 6 2 1 1 0 0 0 0 0 0 0 0 0 0 0 0 0 0 0 0 0 0 0 0 0 0 0
32 6 0 0 0 0 0 0 0 0 1 0 0 0 4 11 4 16 1 0 0 0 0 10 2 0 3 4 1 1 2 2 0 0 0 0 0 0 0 0 0 0 0
22 1 0 0 0 0 0 0 0 1 0 1 0 0 2 1 1 2 1 0 0 0 0 1 0 17 16 2 15 9 0 4 1 0 0 0 5 0 0 0 0 0 0
11 0 0 0 0 0 0 0 0 0 0 1 0 0 1 2 1 2 1 0 0 1 0 0 11 20 25 18 3 0 2 0 3 0 0 12 14 21 10 0 0 0 0
0 0 0 0 0 0 0 0 0 0 0 0 0 0 0 0 0 2 1 1 0 0 0 0 0 9 13 8 7 0 0 0 0 0 1 9 4 7 0 0 0 0 0
0 0 0 0 0 0 0 0 0 1 0 0 0 0 0 0 0 0 0 0 0 0 0 2 0 7 18 12 18 12 5 5 0 9 12 5 0 0 0 0 0 0 0

GFSSE_con_mlcape_093.txt.gz
CAPE
832 885 1013 1014 884 748 634 640 645 528 729 1110 1272 1203 1105 988 975 1029 928 891 838 763 675 718 608 563 744 687 594 469 508 356 310 253 320 320 262 206 118 38 40 92 123
738 1009 1045 1085 949 763 631 659 658 701 608 891 1287 1318 1257 1166 1148 1120 1003 1058 986 905 725 718 679 611 706 683 530 355 358 275 159 166 179 194 129 63 44 11 2 11 33
926 1160 1100 1107 1047 895 732 630 686 816 740 667 886 1217 1197 1183 1260 1226 1158 1162 1165 866 713 747 817 803 756 608 451 349 230 180 64 31 10 0 13 18 6 6 8 11 21
996 1159 1168 1164 1192 1083 902 755 746 887 945 891 864 975 1120 1150 1151 1132 1092 1105 1072 966 892 894 880 766 592 482 347 235 125 38 13 0 0 0 12 27 23 21 25 26 22
970 1170 1304 1174 1165 1157 1017 895 879 994 1063 992 1014 1135 1132 1081 1046 1041 960 1029 1093 1055 948 994 876 604 467 320 199 113 26 7 5 0 2 5 8 21 18 22 16 16 19
973 975 1162 1302 1276 1356 1298 1149 1127 1157 1132 1151 1033 1164 1122 1062 1001 929 981 1056 1110 825 751 936 617 420 301 168 61 1 0 2 0 0 5 15 2 21 8 5 12 15 16
1069 946 890 1221 1436 1499 1525 1524 1440 1444 1294 1083 1103 1133 1202 1022 944 924 752 769 854 832 699 684 448 338 171 40 0 0 0 0 0 0 0 2 5 9 3 5 11 4 7
1279 1169 909 983 1383 1668 1714 1677 1660 1577 1371 1195 1047 725 742 416 242 205 242 547 686 623 467 371 305 221 66 21 0 0 0 0 0 0 1 6 7 10 9 8 3 3 4
1327 1261 986 1024 1131 1497 1615 1724 1651 1374 982 729 485 477 393 67 41 21 86 349 399 401 355 295 213 108 20 1 0 0 0 0 0 0 2 6 16 13 15 6 6 6 5
1161 1132 947 840 795 809 1116 1573 1376 974 519 353 203 141 245 121 87 26 4 189 313 298 302 217 156 5 0 0 0 0 0 0 0 0 1 9 19 10 20 6 2 3 2
758 812 597 483 455 445 574 968 947 481 459 372 169 88 62 58 46 73 66 53 58 169 172 186 80 0 0 0 0 0 0 0 0 0 0 4 14 18 10 9 5 8 3
144 213 421 307 230 109 217 495 385 327 247 81 46 29 4 2 1 0 20 51 30 105 100 112 2 0 0 0 0 0 0 0 0 0 0 5 19 23 14 5 4 2 6
0 29 248 274 82 22 14 34 46 42 7 0 0 0 0 0 0 1 13 67 91 95 61 39 0 0 0 0 0 0 0 0 0 0 0 5 7 16 5 9 3 1 4
2 2 33 227 166 30 3 0 0 0 0 0 0 0 3 1 0 21 36 86 46 13 30 2 0 0 0 0 0 0 0 0 0 0 1 6 4 7 10 5 2 2 3
24 0 0 67 155 73 18 4 0 0 0 0 0 0 10 21 14 66 51 25 4 2 1 0 0 0 0 0 0 0 0 0 0 0 0 5 10 14 4 4 5 3 5
64 8 0 0 20 8 25 18 2 4 9 1 0 0 36 19 29 24 55 27 1 4 3 0 0 0 0 0 0 0 0 0 0 0 0 2 7 7 4 5 7 11 7
108 17 0 0 0 0 30 7 18 62 85 5 1 0 42 34 17 24 51 40 11 0 0 0 0 0 0 0 0 0 0 0 0 0 0 0 3 8 11 11 14 10 6
97 15 0 0 0 0 7 0 0 1 71 68 1 3 38 61 25 25 32 11 0 0 0 0 0 0 0 0 0 0 0 0 0 0 0 0 0 0 5 7 6 7 7
89 19 0 0 0 0 0 0 0 4 11 33 36 12 14 45 24 22 9 1 0 0 0 0 0 0 0 0 0 0 0 0 0 0 0 0 0 0 0 3 1 1 2
45 18 0 0 0 0 0 0 0 0 6 1 4 9 15 21 22 22 2 0 0 0 0 0 0 0 0 0 0 0 0 0 0 0 0 0 0 0 0 0 0 0 0
55 24 0 0 0 0 0 0 1 0 0 0 0 0 1 26 3 6 2 0 0 0 0 0 0 0 0 0 0 0 0 0 0 0 0 0 0 0 0 0 0 0 0
91 22 5 0 0 0 0 0 0 0 0 0 0 0 0 0 3 2 3 1 0 0 0 0 0 0 0 0 0 0 1 0 0 0 0 0 0 0 0 0 0 0 0
90 30 10 0 0 0 0 0 0 0 0 0 0 0 0 4 12 7 1 1 0 0 0 0 0 0 0 0 0 2 1 4 2 0 0 0 0 0 0 0 0 0 0
79 19 4 0 0 0 0 0 0 0 0 0 0 0 2 2 15 28 3 2 1 0 0 0 0 5 29 1 0 7 21 16 53 3 0 0 0 0 0 0 0 2 0
35 27 2 0 0 0 0 0 0 0 0 0 0 0 0 0 1 0 3 1 1 0 0 0 6 13 43 21 21 18 39 8 20 9 1 0 0 0 4 9 11 2 0
11 14 0 0 0 0 0 0 0 0 0 0 0 0 0 0 1 1 1 2 1 0 0 0 5 17 38 41 41 18 25 12 14 3 1 0 3 22 26 19 11 9 0

GFSSE_con_mlcape_096.txt.gz
CAPE
788 895 975 1064 995 836 570 508 698 1012 1277 1245 1182 1082 1045 1121 1168 1242 1225 965 989 1010 1008 943 966 1000 986 882 681 582 547 462 420 416 410 462 418 354 313 232 226 216 220
796 890 1000 1064 954 797 675 511 646 964 1313 1354 1251 1181 1181 1248 1273 1292 1173 1158 1170 1201 1067 1120 962 1052 944 786 639 611 526 369 310 244 262 379 268 276 158 135 117 141 133
727 835 1039 1154 1062 850 781 631 593 1034 1378 1533 1451 1338 1290 1285 1264 1244 1218 1236 1196 1197 1122 1183 1053 884 915 761 650 545 404 359 313 269 153 52 111 144 71 78 97 81 66
787 867 954 1079 1046 937 845 815 765 873 1452 1660 1678 1583 1544 1437 1305 1212 1250 1106 1066 1082 1137 1051 1043 964 821 683 586 489 311 141 37 6 0 3 26 79 43 27 26 16 30
1009 966 964 1100 1095 963 792 732 911 924 1000 1546 1684 1669 1573 1523 1412 1302 1330 1140 930 926 1125 1128 1038 954 766 610 449 259 66 2 0 0 0 0 13 69 65 31 23 22 21
983 1070 1033 1131 1224 1227 1064 930 947 1069 875 1016 1457 1504 1644 1609 1561 1353 1204 1059 985 1026 1011 1014 936 784 631 435 265 105 10 0 0 0 0 0 4 8 18 16 19 12 17
892 961 1152 1176 1192 1333 1308 1248 1261 1385 1296 1134 1016 1145 926 432 551 862 926 748 641 727 982 917 781 636 466 275 135 35 6 0 0 0 0 0 0 6 6 14 13 14 14
785 844 918 1337 1352 1439 1497 1435 1395 1242 1165 1006 914 1024 696 284 23 367 357 401 441 478 579 827 614 498 275 139 46 17 10 0 0 0 0 0 0 9 3 7 10 7 10
966 956 832 989 1355 1505 1564 1555 1486 1393 1218 1030 873 1003 458 301 225 91 82 51 105 326 546 615 497 364 172 73 38 2 1 0 0 0 0 0 6 10 6 9 9 1 2
1141 1124 1036 880 968 1144 1377 1598 1555 1265 1004 756 688 692 293 112 59 10 0 1 20 256 345 477 362 204 73 16 20 0 0 0 0 0 0 1 8 12 4 3 14 6 7
1037 1043 928 874 724 687 822 1129 1191 804 526 403 373 368 52 0 0 1 0 6 119 151 191 388 192 84 19 8 0 0 0 0 0 0 0 8 16 6 10 6 2 7 11
698 764 712 521 383 341 460 634 643 494 200 249 176 125 29 0 20 61 33 105 127 142 164 177 70 3 0 0 0 0 0 0 0 0 0 11 21 9 15 17 10 20 20
377 464 507 268 135 144 198 131 360 487 173 143 68 2 0 0 7 32 38 74 115 114 147 91 15 0 0 0 0 0 0 0 0 0 4 9 24 19 19 15 14 17 19
169 157 200 161 89 60 14 40 184 214 55 5 0 0 0 0 0 6 16 41 83 92 87 1 0 0 0 0 0 0 0 0 0 0 5 10 19 25 21 12 17 22 18
10 0 56 98 105 27 0 0 0 0 6 1 0 0 0 0 0 2 9 32 76 89 35 1 0 0 0 0 0 0 0 0 0 0 0 9 21 20 5 17 17 22 13
0 0 0 38 66 41 0 0 0 0 0 0 0 0 0 2 3 8 10 48 10 15 7 0 0 0 0 0 0 0 0 0 0 0 0 3 7 15 15 21 21 17 13
0 0 0 0 15 45 0 0 0 0 0 0 1 0 0 2 1 12 5 11 2 5 5 0 0 0 0 0 0 0 0 0 0 0 0 3 7 6 11 18 15 14 11
19 0 0 0 0 0 0 0 0 1 9 12 0 2 3 1 2 3 6 19 0 0 1 0 0 0 0 0 0 0 0 0 0 0 0 0 2 6 8 9 10 6 4
57 5 9 0 0 0 0 0 0 0 5 41 12 4 9 14 2 4 23 8 4 1 0 0 0 0 0 0 0 0 0 0 0 0 0 0 0 1 2 3 6 6 3
31 2 14 0 0 0 0 0 0 0 0 16 52 22 13 27 10 0 6 0 0 0 0 0 0 0 0 0 0 0 0 0 0 0 0 0 0 0 0 0 1 0 0
23 3 26 5 0 0 0 0 0 0 0 0 7 23 35 24 19 9 1 0 0 0 0 0 0 0 0 0 0 0 0 0 0 0 0 0 0 0 0 0 0 0 0
23 16 28 11 0 0 0 1 0 2 1 0 0 1 4 4 18 16 1 1 1 0 0 0 0 0 0 0 0 0 1 0 0 0 0 0 0 0 0 0 0 0 0
6 6 50 14 0 0 0 0 1 1 1 0 0 0 0 0 0 42 1 2 2 0 0 0 0 0 0 0 0 0 1 2 0 0 0 0 0 0 0 0 0 0 0
25 42 31 7 0 1 1 1 0 0 0 0 0 0 0 0 0 2 2 1 2 1 0 0 0 0 0 0 0 1 0 0 9 0 0 0 0 0 0 0 0 0 0
103 85 31 6 0 0 1 0 0 0 0 0 0 0 0 0 0 6 4 1 1 0 0 0 0 0 0 10 21 17 8 14 9 9 13 1 2 0 0 0 0 0 0
63 20 5 7 3 1 1 0 0 0 0 0 0 0 0 4 7 13 5 1 2 1 0 0 0 0 0 11 43 44 55 48 30 17 10 31 57 5 0 0 0 0 11

GFSSE_con_mlcape_099.txt.gz
CAPE
814 798 791 903 862 515 524 800 1143 1424 1397 1282 1202 1171 1134 1277 1312 1364 1348 1353 1380 1318 1217 1077 1032 958 974 921 751 743 670 609 562 605 554 573 602 525 465 359 351 309 308
866 961 777 984 918 563 453 692 1030 1394 1411 1407 1356 1276 1261 1340 1315 1388 1296 1298 1342 1361 1259 1298 1242 1109 1091 894 798 653 595 532 466 415 446 543 536 486 410 374 348 331 299
816 1034 971 1016 968 643 492 631 1054 1525 1613 1536 1485 1410 1427 1424 1405 1393 1287 1381 1385 1401 1366 1402 1326 1276 1085 905 792 684 567 431 389 437 464 478 474 381 336 223 224 246 258
891 919 1145 1003 956 761 517 550 921 1441 1732 1645 1571 1512 1559 1567 1552 1422 1328 1416 1450 1392 1439 1364 1353 1228 1057 934 764 648 509 411 324 232 380 290 230 232 149 132 185 182 96
867 902 1153 1052 936 879 616 536 785 1217 1388 1733 1745 1688 1747 1704 1561 1419 1120 1056 1339 1295 1347 1328 1334 1176 1000 818 676 501 344 160 50 121 203 205 129 134 136 156 98 16 10
991 1015 1006 1076 1080 979 894 733 761 1188 1375 1579 1832 1803 1845 1616 1485 1104 893 721 1119 1170 1167 1258 1243 985 906 679 493 289 64 4 3 22 33 67 77 113 69 12 17 14 13
1054 928 899 1041 1155 1188 1070 1050 1028 911 1431 1737 1847 1793 1620 767 755 442 357 369 653 967 1028 1047 1073 895 726 535 315 76 9 2 13 9 8 2 14 14 16 16 16 10 10
967 1101 1194 1092 1160 1272 1250 1178 1173 1154 1027 1297 1225 1200 1134 763 401 31 183 315 493 565 557 632 882 739 580 388 148 30 1 9 6 0 1 5 3 13 21 15 12 8 9
1027 1035 1196 1420 1250 1246 1280 1235 1197 1181 1191 822 779 962 707 477 277 201 243 396 367 280 288 347 757 526 418 245 91 19 3 2 0 0 1 7 7 10 14 13 9 7 9
1039 1083 1027 1376 1553 1575 1615 1373 1340 1335 1142 967 521 573 459 208 151 28 358 333 106 106 227 261 485 311 280 158 40 2 0 0 17 1 5 10 10 22 7 3 8 10 16
1082 1207 1171 1104 1214 1450 1589 1495 1403 1324 1100 941 638 614 401 284 116 375 242 114 79 101 104 46 323 163 141 81 8 0 1 12 1 2 4 0 24 22 18 9 6 17 15
806 1153 1320 1187 1096 1079 1108 1216 1180 1012 702 593 627 589 525 305 231 95 8 2 43 51 98 204 184 82 82 19 10 0 21 0 2 4 15 0 29 24 24 13 12 18 20
713 898 1008 930 893 782 632 618 709 677 436 221 320 261 119 24 1 0 1 20 107 19 154 147 82 133 145 75 6 0 0 0 1 18 17 8 19 29 13 18 21 18 13
367 769 666 602 601 566 478 399 387 437 407 124 88 94 55 13 1 0 64 118 92 162 87 53 120 91 33 0 0 0 0 0 0 11 12 16 11 40 15 22 22 18 16
366 531 524 357 404 360 303 261 246 245 234 95 52 22 66 65 46 93 52 68 70 118 18 2 4 3 0 0 0 0 0 0 0 18 19 11 21 37 18 17 21 17 18
439 297 334 167 193 225 208 137 106 110 64 16 5 16 20 4 3 0 5 25 83 109 2 1 0 0 22 0 0 0 0 0 0 6 12 12 15 20 21 23 19 16 17
350 142 75 58 125 118 67 71 36 3 0 2 1 2 3 2 4 3 2 5 34 63 1 2 1 0 1 0 0 0 0 0 0 0 8 1 17 16 21 17 20 19 19
195 53 0 17 35 61 26 40 0 1 1 2 2 4 4 30 6 6 2 20 11 1 2 3 3 0 0 0 0 0 0 0 0 0 2 14 21 17 20 18 15 12 16
45 46 3 2 12 17 100 39 0 0 0 0 11 4 16 3 36 11 13 1 4 2 3 3 3 0 1 6 4 0 0 0 0 0 7 12 21 16 23 10 9 7 7
14 38 26 1 0 0 13 3 2 0 0 6 10 12 35 42 28 10 10 3 1 1 2 2 1 0 6 11 1 0 0 2 2 2 3 7 14 13 20 16 14 6 3
0 12 42 16 0 0 0 0 0 0 1 2 0 15 38 64 33 5 3 1 2 1 0 1 1 0 7 9 2 4 3 5 2 2 3 6 7 11 11 19 9 10 3
0 0 56 49 0 0 0 1 2 0 0 0 0 0 33 64 49 27 0 1 0 1 2 1 0 2 0 0 0 1 2 2 5 4 3 4 10 13 0 3 5 1 1
0 0 9 100 14 5 2 1 0 0 0 0 0 1 9 7 34 60 1 2 1 0 0 0 0 0 1 0 0 0 2 3 3 5 4 5 9 9 12 3 7 7 0
0 0 57 108 14 1 0 0 0 0 0 0 2 2 0 0 2 5 9 2 2 1 0 0 0 0 0 0 0 0 2 0 11 6 4 2 4 3 3 0 0 0 0
0 1 83 77 1 1 1 0 0 0 0 2 2 0 0 0 0 7 1 2 2 2 1 0 0 0 0 0 0 0 0 6 9 7 0 0 2 1 4 0 0 0 0
8 54 85 38 1 1 2 0 0 0 0 0 0 0 0 1 3 10 7 3 2 2 3 2 0 0 0 0 0 0 0 1 8 19 21 37 36 41 16 5 3 3 1

GFSSE_con_mlcape_102.txt.gz
CAPE
1128 1048 503 648 866 717 743 760 985 1384 1430 1262 1184 1312 1269 1402 1436 1478 1521 1604 1529 1398 1476 1406 1184 1150 1106 1011 842 825 861 799 750 756 736 797 776 656 516 455 482 532 423
1237 1251 623 784 912 727 714 865 1187 1450 1521 1391 1328 1433 1443 1570 1603 1655 1596 1645 1493 1470 1441 1376 1163 1244 1302 1083 1025 890 796 755 708 703 672 723 650 573 459 433 491 433 386
1363 1263 874 804 873 667 661 910 1420 1597 1691 1638 1536 1550 1609 1686 1759 1687 1621 1578 1517 1448 1478 1504 1470 1479 1309 1120 936 847 741 664 658 674 677 612 681 670 556 415 354 376 314
1238 1353 1296 877 842 587 629 922 1370 1703 1806 1796 1786 1808 1728 1738 1763 1605 1482 1443 1457 1484 1639 1545 1487 1487 1277 1040 914 789 702 619 637 539 566 570 564 540 460 389 380 362 221
1131 1254 1494 917 865 593 506 759 1151 1665 1839 1884 1931 1940 1785 1797 1522 1401 1283 1312 1294 1138 1250 1169 1518 1385 1195 997 888 760 592 506 457 578 540 492 497 408 448 368 181 67 61
1141 1209 1404 888 893 717 562 604 1003 1472 1721 1902 2000 1947 1846 1684 1094 969 799 642 698 829 877 1295 1396 1256 1063 886 727 522 430 359 417 594 629 337 308 351 306 117 20 1 0
1362 1374 1531 1020 1002 885 723 686 825 1272 1384 1722 1955 2012 1853 1293 836 422 506 377 437 431 665 900 977 972 946 738 529 354 291 179 523 364 311 227 304 273 88 8 5 9 4
1708 1702 1695 1154 1113 1042 897 783 844 1066 1322 1315 1884 1545 1071 909 489 203 352 173 139 174 305 436 426 670 776 566 305 207 83 58 137 132 84 106 35 60 32 15 11 6 10
1962 1926 1876 1634 1453 1188 1102 1024 882 989 1096 1324 1435 1128 861 875 616 466 288 183 2 165 236 558 575 406 524 303 226 84 32 32 165 78 47 6 15 28 19 12 10 6 9
1938 1950 1957 1897 1796 1802 1645 1160 1080 1083 1041 909 1189 1179 859 755 637 347 318 122 338 261 195 105 328 310 268 201 131 41 15 44 173 95 45 1 11 29 21 17 11 9 10
1630 1741 1844 1886 1933 1850 1853 1661 1263 1249 1244 999 854 687 564 844 655 439 296 385 487 282 128 118 96 72 112 112 83 32 0 173 99 68 21 0 11 17 16 21 11 12 12
1438 1614 1728 1806 1815 1953 1784 2031 1869 1903 1618 1430 1089 812 590 608 670 359 266 320 385 153 49 51 36 23 86 151 123 30 193 136 102 22 6 1 14 17 15 16 15 21 15
1189 1490 1650 1810 1791 1667 1426 1525 1493 1532 1385 1325 1111 1019 891 764 653 434 528 272 271 92 170 35 32 35 54 219 181 180 129 154 67 35 2 8 24 25 23 10 15 26 19
1035 1299 1520 1635 1671 1588 1194 1213 1183 879 965 1015 920 686 743 833 595 384 400 120 103 125 129 96 54 44 112 241 221 159 112 32 58 27 6 12 22 27 16 17 32 33 18
1128 1132 1285 1383 1449 1280 1152 831 764 655 581 879 602 384 529 581 357 75 72 63 237 385 99 66 21 39 220 176 104 96 66 28 53 43 20 16 20 15 20 26 41 28 16
873 1027 1424 1168 1166 1107 965 886 715 675 716 600 471 267 289 500 213 139 106 195 248 382 136 110 37 76 169 148 79 78 69 37 35 36 19 25 21 20 33 24 52 31 26
486 912 1206 1185 960 1012 929 926 607 366 739 372 233 207 259 233 292 205 133 116 194 185 38 13 2 26 38 91 66 64 77 52 26 17 38 36 29 18 23 31 44 27 25
94 569 956 964 781 638 804 811 512 335 539 418 214 123 124 206 272 171 83 5 49 77 13 0 1 15 35 55 57 68 81 29 24 23 25 35 32 27 16 38 33 20 22
4 317 732 900 684 401 538 649 533 373 246 374 228 213 202 229 181 117 84 6 21 0 2 2 2 0 8 50 70 61 43 23 13 21 18 20 27 27 13 32 23 14 9
0 206 546 666 745 303 260 674 479 177 105 81 26 243 146 122 189 124 122 1 1 2 1 2 1 2 20 64 60 59 41 21 17 15 4 22 18 19 22 36 13 19 10
0 82 387 566 745 248 388 514 333 51 11 101 19 44 113 163 100 53 24 2 2 3 0 1 2 1 3 45 26 15 26 30 5 7 10 21 31 10 14 19 17 22 8
0 0 215 424 691 442 547 459 190 131 14 34 4 58 118 152 66 37 15 6 2 3 3 2 1 3 1 23 16 6 4 2 22 18 16 14 14 26 22 26 20 17 19
0 0 93 300 633 544 615 460 212 156 16 16 8 3 9 88 31 16 7 2 3 1 2 3 1 8 1 0 4 24 3 8 4 8 10 3 18 15 18 25 25 11 7
0 0 9 168 503 521 621 417 89 6 0 0 7 1 2 5 15 23 23 6 1 1 1 3 3 0 0 0 12 24 13 8 6 17 5 6 5 11 19 13 12 10 11
0 0 26 143 404 474 614 398 181 164 69 1 4 3 2 12 27 25 14 8 4 2 2 1 2 2 0 0 0 14 27 24 0 0 2 9 11 16 15 9 10 15 10
0 0 126 201 423 509 527 386 277 212 42 0 0 2 7 9 10 12 30 3 2 2 2 2 0 0 0 0 4 25 10 9 14 29 20 31 34 29 9 0 9 19 19

GFSSE_con_mlcape_105.txt.gz
CAPE
808 829 441 580 757 933 845 898 1037 1269 1245 1235 1197 1158 1120 1246 1379 1460 1655 1714 1669 1703 1720 1666 1379 1329 1243 1050 840 857 808 769 853 897 983 932 774 584 471 515 535 577 539
931 1008 462 725 851 832 795 844 1033 1284 1427 1394 1310 1375 1265 1387 1529 1620 1707 1654 1589 1725 1707 1528 1384 1336 1297 1128 1070 1012 953 940 914 899 851 856 761 640 561 540 549 551 497
1125 1146 729 837 840 760 712 874 1248 1547 1644 1573 1379 1504 1442 1545 1663 1626 1602 1531 1578 1649 1550 1425 1296 1476 1420 1236 993 1016 947 926 889 834 769 689 779 809 730 526 498 466 415
586 1259 1184 780 727 629 733 941 1270 1681 1823 1701 1504 1609 1376 1631 1682 1650 1653 1594 1448 1294 1505 1557 1421 1519 1384 1133 1048 1014 936 824 722 661 691 628 732 780 630 571 510 435 390
446 1028 1497 610 707 617 669 952 1413 1752 1902 1830 1677 1741 1633 1709 1634 1355 1531 1470 1203 1200 1009 1072 1062 1348 1189 1066 1000 919 823 670 611 764 714 588 593 662 680 601 343 268 199
424 745 1297 607 746 669 701 930 1498 1857 1850 1820 1824 1908 1808 1646 1270 1270 1035 1303 1140 867 857 962 785 1033 1047 994 931 804 697 588 643 682 578 525 544 574 334 297 143 48 9
605 959 1600 795 794 681 633 798 1297 1662 1847 1863 1958 1941 1911 1462 1265 1091 897 907 957 805 602 755 942 1013 1009 929 732 668 601 565 880 390 600 572 471 403 386 121 22 0 0
1096 1340 1966 1007 897 808 685 686 1020 1314 1525 1784 1907 1873 1461 1291 1082 783 729 610 685 492 425 642 656 945 834 661 498 509 421 322 577 432 297 545 339 313 204 29 12 1 2
1632 1888 2100 1539 1251 889 776 668 751 1023 1190 1369 1653 1577 1239 1042 873 554 560 304 348 365 429 471 328 539 567 374 324 309 283 202 251 139 200 219 128 196 69 20 16 8 7
2007 2103 2146 1958 1705 1573 1259 854 766 781 901 1183 1270 1458 1245 938 650 392 375 223 174 3 408 194 411 259 250 185 189 208 78 94 257 77 51 22 22 77 27 18 11 6 3
1805 1961 2022 1963 1833 1799 1648 1456 978 942 907 882 1218 1166 1048 1165 1006 749 518 410 100 98 361 262 271 118 63 109 103 103 82 162 250 43 42 7 15 43 23 14 10 5 4
1338 1590 1671 1800 1776 1761 1676 1962 1614 1521 1425 1319 1043 1176 1278 868 1026 903 725 352 160 308 294 180 35 36 23 24 80 71 128 212 211 23 10 0 3 31 20 12 5 3 4
860 1227 1383 1708 1783 1858 1743 1794 1718 1784 1802 1756 1465 1066 906 755 889 858 691 398 357 285 295 40 17 15 9 2 77 151 167 172 94 37 8 6 2 21 18 12 9 14 4
679 1089 1335 1573 1798 1838 1435 1748 1513 1705 1804 1558 1518 1387 996 905 781 768 593 616 498 423 261 180 90 17 0 6 90 217 195 164 24 30 10 17 8 20 13 13 18 11 14
436 841 1386 1501 1815 1774 1663 1430 1196 1186 1361 1371 1413 1269 1207 1121 1002 821 662 585 417 462 380 225 75 6 6 15 75 169 196 237 43 26 13 15 27 24 14 22 22 16 14
140 738 1391 1586 1657 1629 1542 1316 1121 956 870 1074 1125 1115 1164 1006 896 846 625 527 305 296 342 313 113 28 20 12 115 187 136 88 59 30 19 12 24 13 11 34 29 26 18
0 248 1454 1705 1649 1595 1472 1443 1247 953 755 761 730 1037 1035 977 828 648 374 154 226 426 373 243 102 56 46 52 162 94 68 49 58 27 22 31 26 16 22 27 25 21 17
0 13 896 1648 1706 1550 1385 1370 1214 747 695 776 580 919 868 848 794 647 441 380 373 307 185 102 83 30 22 80 62 72 52 17 24 38 15 36 38 23 22 23 26 12 11
0 0 437 1509 1740 1501 1385 1355 1263 847 648 445 416 570 630 638 669 497 372 358 322 222 34 18 42 35 30 52 57 47 36 33 17 11 34 30 37 23 19 12 14 4 24
0 0 102 1262 1732 1528 1230 1294 1187 969 763 427 496 484 482 577 587 329 227 312 260 52 4 2 5 5 20 41 27 33 30 45 32 19 17 41 19 17 23 17 12 7 12
0 0 166 821 1544 1401 789 944 1046 983 254 294 274 441 534 409 305 254 165 2 2 0 0 1 1 0 12 33 18 33 46 31 22 18 1 11 8 22 30 33 20 21 5
0 0 64 583 1077 1316 754 762 979 882 235 339 330 306 260 119 206 235 102 3 2 2 2 1 1 1 2 6 18 4 31 17 29 25 21 3 31 6 16 26 20 27 16
0 0 0 250 685 1205 760 869 1007 768 346 242 193 241 189 164 199 245 90 5 2 2 2 1 1 2 8 0 0 10 2 14 29 33 7 5 18 21 8 4 14 20 19
0 0 0 9 378 879 959 912 959 759 523 283 347 63 181 106 134 139 8 1 2 2 2 1 3 2 1 0 2 20 7 6 22 7 36 12 9 15 20 26 22 21 17
0 0 0 0 135 617 1114 987 1078 818 631 402 297 106 31 72 49 70 11 13 0 2 2 0 3 13 1 0 0 9 5 16 39 60 11 19 8 5 8 9 22 27 16
0 0 0 0 59 469 1011 1020 1081 819 638 549 395 85 5 22 23 44 22 8 2 2 2 2 3 11 17 2 1 7 3 3 7 22 14 3 10 7 4 28 12 24 23

GFSSE_con_mlcape_108.txt.gz
CAPE
737 329 620 889 843 775 756 994 1115 1015 1113 1139 1069 872 826 945 1165 1295 1388 1487 1515 1709 1817 1677 1387 1294 1263 1155 919 873 932 998 1045 1032 992 867 774 625 597 630 601 633 631
712 305 369 604 842 892 773 761 971 1101 1220 1261 1204 1048 978 1062 1213 1467 1560 1614 1743 1838 1824 1591 1424 1344 1194 1076 875 877 911 920 963 1001 927 902 729 731 599 690 608 634 624
963 401 535 568 651 763 723 779 973 1246 1369 1332 1255 1178 1090 1143 1293 1515 1615 1558 1719 1359 1578 1469 1410 1412 1191 1040 919 958 972 930 880 761 705 719 781 861 768 623 628 564 560
1100 596 753 646 592 631 707 900 1171 1457 1591 1469 1320 1319 1212 1337 1362 1384 1521 1536 1453 1272 1156 1116 1446 1506 1240 1045 984 985 961 849 712 687 718 783 904 892 731 664 601 578 526
1142 1074 890 635 600 603 687 1018 1322 1634 1747 1651 1443 1495 1393 1440 1271 1419 1469 1564 1396 1193 1175 1045 1152 1386 1134 1012 978 957 848 687 624 815 535 697 753 777 798 670 458 386 287
874 1348 651 593 570 606 726 1035 1378 1620 1746 1731 1563 1587 1583 1355 1196 1358 1438 1598 1248 1048 1045 998 1157 1124 1033 1006 995 935 709 563 643 642 437 494 668 670 637 437 285 82 12
1174 1364 853 547 579 583 684 983 1406 1591 1714 1710 1693 1729 1686 1417 1342 1272 1361 1381 1173 998 1109 919 1065 1047 960 944 920 823 656 598 597 511 459 466 424 545 488 268 49 5 4
1544 1745 1064 658 617 544 605 790 1171 1482 1635 1591 1581 1749 1803 1524 1307 1139 1104 1250 1185 906 809 797 904 911 880 864 799 704 566 507 474 390 502 444 359 460 306 78 0 0 0
1553 2193 1402 970 797 598 507 510 806 1149 1377 1412 1490 1708 1662 1413 1320 1134 1005 1059 1075 849 566 758 919 780 488 581 483 427 454 261 144 238 467 401 428 324 233 7 5 7 9
1958 2393 1925 1447 1119 883 674 498 552 752 931 1167 1427 1580 1496 1360 1159 981 787 643 661 590 511 564 494 235 291 142 168 128 164 113 35 117 235 232 270 225 86 30 27 13 6
2158 2207 2422 2024 1603 1435 1283 733 563 565 701 890 1156 1281 1320 1277 1030 786 568 411 292 230 393 555 385 262 69 44 56 99 60 99 31 40 69 130 126 118 27 27 16 12 3
2090 2197 2307 2151 1929 1934 1451 1357 951 865 779 798 1093 1166 1290 1228 1158 920 596 411 194 11 83 352 209 135 44 41 66 56 40 97 55 18 30 40 98 77 8 19 16 13 1
1756 1921 1919 2096 2049 2013 1392 1693 1441 1347 1252 1194 1093 1198 1110 1079 1053 1022 940 470 312 186 351 228 99 37 18 10 25 9 12 84 66 16 17 40 68 33 5 19 18 8 3
1212 1510 1627 1877 2120 1745 1538 1962 1828 1635 1663 1524 1466 1274 1039 941 718 854 845 747 574 423 339 175 70 36 3 0 0 1 25 82 43 14 12 16 0 0 5 10 14 9 18
836 1216 1433 1762 1883 2139 2007 1802 1537 1501 1714 1702 1335 1401 1132 984 835 861 770 726 641 600 390 183 135 34 3 0 0 3 30 53 39 13 29 10 0 0 17 14 21 18 22
310 908 1342 1531 1992 2071 1652 1928 1510 1433 1386 1112 1179 994 1301 1064 889 769 715 606 569 521 395 329 195 45 9 3 0 13 46 76 30 25 11 0 0 0 6 7 26 20 31
0 536 1382 1568 2036 1965 1844 1774 1371 1169 853 847 859 837 1054 1185 895 648 650 606 584 445 454 280 164 53 5 13 14 14 56 56 61 20 10 0 0 5 12 9 19 27 23
0 0 1559 1777 1795 1927 1880 1768 1388 1395 960 654 644 750 706 923 989 728 578 433 315 284 238 188 124 136 35 22 9 21 62 27 46 38 0 0 0 3 13 21 27 18 17
0 0 1708 1695 1857 1836 1911 1643 1477 1312 1038 946 502 346 605 826 790 719 526 385 332 255 199 208 155 79 24 34 26 42 37 9 34 18 0 0 0 0 4 26 25 10 12
0 0 1511 1789 1953 1834 1799 1651 1498 1314 787 743 610 628 543 566 755 764 602 397 171 219 98 80 33 39 14 25 68 78 13 27 28 14 23 16 17 12 9 5 18 12 9
0 0 500 1902 1970 1831 1652 1604 1460 1288 976 641 537 419 299 414 541 680 410 229 175 58 30 1 2 12 25 38 14 48 1 27 22 42 42 32 18 17 24 23 13 5 7
0 0 14 1765 2001 1806 1672 1488 1394 1304 928 526 327 303 436 435 635 514 277 77 0 2 1 2 3 7 11 13 7 21 2 1 2 22 17 34 18 5 23 26 15 4 0
0 0 0 232 1989 1747 1569 1165 1092 1005 538 327 363 209 280 476 321 334 185 5 0 1 1 1 0 0 2 7 0 0 2 2 7 20 5 25 16 2 1 1 15 6 4
1 3 0 2 648 1620 1443 924 807 914 674 371 418 195 283 197 277 234 108 0 0 2 0 1 1 0 1 3 4 0 0 0 0 4 20 25 23 25 4 0 1 6 14
0 0 11 6 147 1107 1429 1014 857 1181 745 269 365 236 163 353 170 230 78 7 1 1 0 1 0 0 0 2 0 0 0 0 19 15 13 2 22 1 11 8 0 5 0
0 0 0 11 32 431 1373 1150 1044 1185 889 583 514 314 128 178 150 87 69 3 0 1 1 1 1 1 0 5 0 0 0 0 0 0 6 29 23 2 3 10 12 18 11

GFSSE_con_mlcape_114.txt.gz
CAPE
508 690 850 808 775 720 672 647 577 503 500 357 258 314 602 863 1067 1213 1319 1460 1569 1617 1524 1357 1241 1349 1231 1156 1044 1000 946 905 864 1119 1261 1197 1218 1131 1009 914 899 855 877
411 750 923 930 850 765 752 766 709 652 654 522 372 440 666 912 1075 1340 1513 1616 1661 1604 1483 1377 1378 1464 1386 1097 1096 1114 1009 947 994 1040 1149 1188 1217 1160 1004 850 868 887 859
448 684 839 910 972 878 806 824 867 857 870 713 546 601 733 911 1037 1215 1419 1586 1681 1619 1463 1392 1414 1417 1185 1116 1143 1043 1102 1067 1114 1156 1200 1109 1116 1120 989 891 846 811 793
467 699 743 724 802 890 927 870 906 1038 1030 910 725 755 804 879 993 1205 1353 1537 1630 1651 1537 1558 1550 1321 1003 924 987 1003 1094 1004 932 942 892 896 1047 1059 990 892 867 822 735
491 776 788 740 702 692 788 905 975 1125 1102 1035 885 906 869 997 1086 1235 1310 1161 1308 1716 1720 1854 1701 1136 899 943 978 957 912 818 780 734 667 738 888 1003 1008 948 847 736 614
343 537 717 772 700 693 747 840 971 1112 1114 1105 1054 1030 998 1116 1201 1253 1240 1136 1227 1556 1639 1847 1591 1028 896 980 1002 904 896 784 635 607 674 847 687 1021 986 724 497 312 268
147 350 641 673 636 723 808 898 990 928 1210 1187 1207 1075 1121 1197 1224 1237 1257 1278 1296 1384 1429 1560 1308 989 866 913 941 762 686 611 515 435 570 402 464 833 748 482 366 267 212
44 362 590 681 645 693 764 930 945 952 1094 1295 1285 1229 1183 1203 1210 1281 1283 1372 1241 1264 1289 1212 1130 1003 885 907 853 551 545 452 476 386 351 382 417 493 623 341 124 25 30
154 296 452 653 690 705 717 879 1042 1077 1227 1302 1331 1368 1235 1104 1127 1206 1311 1403 1142 1083 1127 1119 1015 959 893 896 746 429 411 227 358 319 277 272 367 296 545 176 32 0 4
286 212 314 447 647 737 858 866 1021 1107 1052 1023 1275 1391 1307 1105 1060 1089 1258 1353 1095 1016 1063 991 870 874 848 750 467 376 329 107 163 209 226 229 395 711 473 131 11 1 4
607 233 297 364 391 488 693 926 1010 1060 921 784 973 1109 1456 1200 1084 999 1049 1267 1116 857 851 812 729 661 547 514 179 204 209 107 109 228 247 208 299 466 351 64 0 5 18
860 567 342 380 321 345 488 758 841 993 875 725 855 1041 1300 1218 1033 939 820 969 1034 848 717 674 546 464 300 187 80 64 31 37 69 128 209 193 212 438 223 36 0 4 11
1196 1031 652 368 403 355 362 384 470 663 668 693 787 951 1126 1040 991 829 612 618 503 645 585 540 408 205 69 26 7 2 2 19 49 88 107 160 189 309 184 15 0 2 5
1506 1399 1229 679 437 466 449 266 304 322 335 351 532 733 805 843 757 653 427 294 210 119 328 303 191 91 30 0 0 0 0 1 31 89 136 105 129 294 143 6 0 2 7
1520 1784 1573 1265 799 617 629 473 348 275 268 232 278 479 535 628 648 575 361 214 118 20 13 3 0 0 5 0 0 0 0 0 9 53 72 60 90 208 151 22 2 2 8
1570 1760 1898 1741 1488 1188 1005 897 635 543 409 338 296 321 532 488 504 549 355 250 147 72 25 4 1 0 0 0 0 0 0 0 0 7 38 44 53 110 93 23 0 0 7
1650 1728 1971 1961 1767 1587 1344 1274 1096 962 822 805 758 701 691 679 482 456 484 422 321 144 59 20 0 0 0 0 0 0 0 7 1 7 27 38 58 60 79 27 7 0 7
715 1740 1917 2144 1872 1689 1543 1494 1343 1149 1262 1181 1037 952 913 817 615 438 349 325 253 191 114 38 11 0 0 0 0 0 0 8 8 18 22 41 34 52 40 8 0 0 14
0 290 1541 1949 1909 1832 1659 1522 1443 1253 1384 1260 1162 1095 1020 776 565 527 391 275 228 188 171 100 30 4 1 1 1 0 5 13 15 55 21 20 14 10 0 0 0 7 14
0 0 262 1497 1741 1862 1717 1479 1329 1189 1029 1071 1041 875 722 591 490 478 390 314 263 228 119 72 52 11 1 2 1 1 1 9 18 45 8 7 11 0 0 0 10 11 16
0 0 0 624 1470 1844 1715 1451 1401 1442 1076 840 783 600 413 385 393 395 377 258 186 176 126 133 93 41 3 1 28 7 0 4 18 27 17 0 0 0 0 0 0 3 19
0 0 0 133 1096 1700 1696 1571 1317 1122 811 724 538 483 333 307 275 296 361 200 173 147 117 125 56 38 10 7 18 5 4 2 9 19 4 2 0 0 0 0 0 7 6
0 0 0 463 841 1617 1755 1393 1023 671 487 651 692 585 346 299 207 284 331 218 152 158 115 67 39 9 6 4 4 2 5 5 2 10 7 3 2 0 0 0 6 19 11
0 0 0 584 1504 1687 1692 1379 1208 1054 822 847 771 499 344 171 166 300 291 213 166 126 61 23 11 0 0 1 10 5 0 0 1 0 8 9 8 0 0 0 7 6 3
0 0 0 0 100 1431 1337 1339 1295 1159 931 639 462 392 345 199 190 247 179 171 111 39 0 0 0 0 0 1 3 1 5 0 0 0 2 7 5 0 0 0 3 1 0
0 0 0 0 0 0 406 1170 1092 1071 964 642 456 321 240 197 163 201 142 145 76 20 0 0 0 0 1 3 6 1 0 0 0 0 0 0 2 0 3 11 6 1 0

GFSSE_con_mlcape_117.txt.gz
CAPE
425 747 766 816 675 550 432 361 284 195 232 402 538 615 949 1123 1152 1093 1183 1360 1545 1572 1596 1421 1242 1193 1171 1041 887 914 1046 1121 1161 1320 1495 1434 1394 1306 1231 1114 1023 1007 865
511 775 842 859 749 649 548 480 435 363 271 379 566 690 761 889 1063 1182 1227 1394 1551 1559 1529 1460 1448 1347 1199 1019 992 1013 1039 1184 1256 1295 1351 1368 1267 1248 1171 1036 1015 839 857
613 805 902 873 852 780 726 642 605 571 422 419 541 740 811 977 1157 1285 1385 1498 1603 1582 1508 1475 1422 1357 1170 1020 1031 1079 1122 1213 1277 1370 1358 1176 1079 1085 1132 982 904 925 942
674 841 952 918 906 886 852 786 746 741 613 521 573 733 907 1108 1294 1436 1541 1637 1654 1625 1596 1584 1535 1294 1127 1019 1088 1157 1180 1179 1286 1256 1094 995 999 1131 1117 974 952 975 896
682 847 951 995 999 966 885 865 854 854 738 606 606 712 969 1134 1300 1511 1578 1650 1698 1640 1771 1693 1479 1104 907 978 1105 1122 1121 1113 1070 983 914 872 881 1134 1124 1056 946 874 770
618 725 838 924 1029 1024 888 873 901 873 803 702 672 724 1004 1111 1293 1384 1333 1442 1651 1712 1803 1703 1190 845 864 939 1055 1038 938 923 854 782 875 818 814 1120 1094 979 823 692 580
536 644 681 706 782 922 914 931 957 901 832 822 761 819 1042 1164 1259 1236 1101 1195 1426 1659 1635 1549 1055 804 878 953 995 924 814 702 619 601 598 561 597 997 895 731 460 339 277
295 558 661 747 709 812 831 920 947 906 855 898 858 863 1041 1148 1222 1200 1171 1203 1272 1376 1446 1245 955 796 846 955 932 837 633 649 521 412 406 455 467 539 677 437 331 270 193
307 452 652 707 802 818 840 886 829 823 936 975 1015 912 1002 1111 1188 1212 1253 1235 1200 1194 1139 1023 878 815 822 940 783 697 525 531 446 367 373 419 389 64 222 264 232 120 27
262 366 463 618 762 815 922 918 761 763 1029 1050 1091 1041 980 1055 1154 1238 1245 1267 1100 1069 956 901 799 822 867 818 689 544 314 319 363 293 336 325 310 542 481 229 172 81 5
208 374 478 541 586 617 873 1068 1009 1042 1138 1139 1144 1164 1031 989 1044 1154 1222 1277 1031 976 803 783 723 783 707 425 438 377 242 114 212 225 238 290 117 469 501 271 112 27 0
33 210 428 490 485 567 732 1055 1193 1247 1148 1008 1141 1171 1096 947 924 966 1090 1238 1005 895 696 639 581 653 447 229 198 258 240 59 112 149 200 238 315 412 435 223 63 3 13
30 141 308 368 430 527 634 782 868 1076 1007 836 861 895 1128 1013 901 843 784 1009 940 732 567 518 468 336 235 114 35 15 44 73 65 142 212 254 241 411 459 174 30 7 9
498 166 270 376 354 444 436 485 564 670 756 691 747 803 931 881 769 680 551 597 718 565 403 319 217 123 46 9 0 0 0 0 2 73 132 221 221 338 347 137 21 3 4
896 745 471 406 300 312 295 339 329 408 519 529 609 776 906 760 623 577 486 382 266 258 323 155 61 31 0 0 0 0 0 0 0 54 72 133 113 204 305 140 21 4 0
1188 1243 1007 475 312 324 313 223 199 250 295 313 385 618 762 628 553 491 439 335 163 32 47 35 0 10 0 0 0 1 0 0 0 9 50 89 45 94 183 139 57 10 0
1440 1661 1503 1122 671 364 293 268 213 212 242 228 235 384 560 554 505 452 410 327 178 28 0 0 0 0 0 0 0 0 0 0 0 0 1 36 56 69 87 109 70 16 7
1531 1803 1955 1840 1388 908 580 498 407 357 312 263 261 256 390 474 429 415 414 319 159 67 22 7 0 0 0 0 0 0 0 0 0 0 0 3 37 47 50 80 74 17 13
1276 1640 1898 2044 1886 1643 1278 1034 935 810 655 602 510 474 433 515 572 441 400 313 215 235 106 35 12 0 0 0 0 0 0 0 0 2 10 10 48 24 51 72 58 24 12
0 385 1039 1666 1888 1908 1725 1314 1312 1104 1048 942 777 913 837 759 729 625 428 301 264 210 164 65 44 2 1 1 1 1 1 5 9 10 12 35 30 14 27 42 28 18 15
0 0 282 634 1310 1896 1769 1582 1479 1355 1234 1095 1088 1091 1079 990 839 595 399 344 229 304 181 89 70 34 1 2 4 5 1 6 6 12 27 34 13 3 12 12 9 6 14
0 0 0 210 591 1387 1772 1691 1547 1474 1105 1103 998 985 1055 1001 815 486 403 364 310 324 125 83 106 57 33 4 19 6 6 7 0 8 20 6 10 1 0 1 8 6 10
0 0 0 2 452 1244 1866 1658 1218 915 769 659 783 1043 957 756 592 470 343 293 268 256 115 63 54 78 39 18 13 15 5 3 4 4 4 8 5 2 0 0 3 9 14
0 0 0 0 546 1404 1762 1618 1202 1362 1242 1003 902 889 722 539 378 373 290 248 211 176 157 76 47 28 30 13 16 8 0 2 2 3 4 1 1 6 0 0 0 7 16
0 0 0 0 0 38 853 1573 1318 1222 1011 680 724 694 632 477 361 298 251 152 203 185 174 93 34 2 9 8 6 4 7 2 0 5 8 2 1 1 1 0 0 6 15
0 0 0 0 0 0 0 123 1267 1272 1048 737 619 527 463 333 274 247 196 129 172 155 113 57 20 3 1 1 3 0 1 1 5 1 1 4 0 0 0 1 2 2 7

GFSSE_con_mlcape_120.txt.gz
CAPE
253 611 596 797 591 375 261 206 216 229 367 642 954 1052 952 829 930 1013 1203 1389 1446 1481 1499 1401 1229 1138 1097 889 961 1029 1088 1154 1133 1262 1635 1519 1473 1392 1209 1170 1101 996 999
339 698 684 830 644 440 304 210 219 271 315 659 912 971 964 1078 1063 1186 1381 1465 1554 1572 1504 1324 1183 1196 1043 927 955 1087 1111 1117 1168 1295 1359 1406 1307 1353 1290 1116 997 947 964
466 741 775 842 749 584 454 361 293 333 382 439 757 937 1042 1018 1100 1250 1400 1409 1450 1588 1553 1467 1328 1210 1043 939 955 1029 1187 1225 1196 1289 1395 1310 1313 1296 1284 1033 963 968 956
672 807 836 913 845 728 632 570 462 434 430 481 525 689 890 1017 1117 1220 1319 1338 1462 1588 1639 1614 1503 1297 1073 1005 1008 1114 1231 1287 1301 1240 1092 1016 1158 1267 1235 1041 1083 1104 994
808 816 891 977 904 849 757 744 666 506 435 520 619 756 902 1047 1193 1293 1360 1452 1540 1587 1670 1577 1425 1121 964 973 1059 1164 1244 1276 1211 1091 960 893 1050 1223 1201 1178 1030 1027 980
788 851 945 965 940 918 874 870 866 594 432 476 665 816 988 1190 1301 1360 1489 1494 1519 1557 1492 1415 1206 829 844 939 1053 1105 1137 1114 1042 930 871 860 902 1196 1054 993 899 796 767
799 875 989 978 994 983 987 973 928 729 530 500 667 806 970 1159 1265 1319 1436 1527 1538 1540 1519 1225 764 677 818 971 1018 965 968 926 856 832 824 800 670 1003 1044 731 613 571 496
751 891 1036 1082 1063 1035 1035 1058 944 795 664 600 648 777 954 1056 1115 1110 1158 1388 1450 1563 1479 998 624 697 845 925 848 779 757 758 662 637 653 507 511 634 747 450 338 241 222
746 831 913 1083 1110 1081 1029 1048 913 832 785 698 708 776 879 939 1003 997 1055 1140 1260 1215 1211 815 619 664 852 880 825 678 667 633 524 405 425 400 360 327 150 181 217 250 207
716 742 757 824 917 958 1054 1019 941 856 834 857 795 810 843 917 964 991 1050 1079 1106 1082 974 715 633 638 785 781 741 623 471 533 441 357 342 374 218 101 70 42 149 145 94
632 729 772 804 861 855 989 1017 965 954 949 1003 977 905 906 937 1009 1038 1084 1087 1015 933 813 684 603 632 672 668 595 502 293 270 331 266 296 342 103 107 153 178 177 104 67
212 471 673 764 766 856 921 1029 940 936 1159 1128 1127 1029 932 873 950 1034 1066 1127 964 816 715 634 541 613 393 265 369 366 82 85 179 204 262 324 218 635 404 213 180 112 65
28 226 531 616 683 812 799 957 874 979 1063 1037 1025 1062 961 852 900 942 974 1124 884 825 613 570 483 419 229 81 119 229 193 39 45 117 177 254 172 342 381 372 223 93 8
1 46 403 601 610 760 758 794 838 851 967 888 888 995 1002 828 783 719 748 927 828 667 465 356 288 220 99 40 14 0 0 22 21 59 113 139 226 274 558 432 178 54 8
33 91 289 563 557 653 622 612 738 768 831 778 746 861 986 973 773 636 583 616 705 523 373 215 100 45 32 24 6 0 0 0 0 0 54 85 124 129 273 318 135 33 0
740 73 295 451 467 506 500 416 452 592 625 557 570 681 828 888 785 594 538 453 417 507 428 219 49 0 9 3 0 0 0 0 0 0 0 32 41 104 170 237 142 58 2
1467 943 295 375 489 402 316 293 256 231 347 345 377 564 711 757 685 535 484 399 297 217 216 75 0 0 0 0 0 0 0 1 0 0 0 0 13 27 49 80 122 67 7
1580 1586 1216 774 550 447 372 314 247 233 212 181 226 383 587 680 593 389 409 391 233 140 70 28 0 0 0 0 0 0 0 0 0 0 0 0 0 24 42 67 98 68 31
1381 1753 1828 1565 1047 582 475 419 251 211 238 223 240 266 405 526 544 467 429 314 267 180 68 26 1 0 0 0 0 0 0 0 0 0 0 0 0 2 49 58 57 52 32
912 1540 1795 1912 1801 1293 804 682 522 402 326 311 277 271 266 396 440 405 358 304 289 266 126 49 39 2 2 1 1 1 0 0 0 0 0 0 0 27 28 52 21 65 43
0 2 1342 1990 1978 1769 1471 1203 987 840 631 520 526 423 355 359 345 336 349 323 318 331 195 116 118 41 4 0 2 2 2 4 6 5 4 2 15 42 47 56 54 38 38
0 0 0 737 1939 1923 1808 1628 1497 1321 1111 991 825 721 671 608 596 496 507 424 369 357 304 207 96 39 34 13 19 16 31 4 18 5 8 14 14 21 11 8 36 22 11
0 0 0 0 475 1757 1966 1770 1348 1195 972 1052 961 900 900 942 904 734 613 543 310 350 314 219 78 54 13 1 16 32 24 11 7 10 4 3 11 10 1 17 19 7 4
0 0 0 0 0 816 1854 1753 1542 1537 1406 1272 1164 975 925 1047 1084 885 716 585 333 325 382 197 109 59 39 5 4 12 10 4 5 1 3 2 10 2 0 2 6 3 4
0 0 0 0 0 0 645 1612 1590 1484 1420 1016 1020 977 930 429 516 793 639 459 325 255 255 189 128 77 45 37 20 8 24 8 2 6 4 7 9 13 9 4 1 5 3
0 0 0 0 0 0 0 124 800 1359 1300 1172 996 924 709 517 405 497 460 357 238 199 192 192 123 78 44 46 20 11 9 26 19 11 2 1 7 1 1 1 1 5 0

GFSSE_con_mlcape_123.txt.gz
CAPE
393 651 685 748 568 347 341 370 458 618 824 986 854 695 752 777 822 872 961 1161 1280 1318 1344 1199 1142 1105 1002 1065 1083 1057 1112 1251 1218 1321 1596 1643 1605 1443 1349 1249 1189 1215 1181
640 814 775 784 649 461 283 267 422 562 660 848 910 868 810 812 939 1055 1077 1213 1322 1428 1382 1200 1115 1087 944 959 992 1020 1101 1124 1202 1170 1440 1535 1459 1473 1348 1125 1122 1247 1178
802 863 888 778 703 514 361 335 462 706 749 894 931 896 843 1037 1152 1129 1183 1283 1382 1445 1449 1253 1193 1128 993 896 983 1047 1063 1176 1369 1345 1430 1479 1474 1350 1312 1017 973 1174 1107
938 919 1097 786 695 579 454 450 507 752 850 889 919 958 1124 1162 1211 1267 1267 1324 1397 1513 1489 1421 1400 1254 997 902 999 1103 1107 1201 1307 1383 1526 1479 1317 1338 1223 1004 1129 1133 1126
989 1001 1182 854 739 629 519 512 522 558 776 884 1033 1182 1143 1148 1261 1276 1222 1251 1363 1480 1509 1594 1523 1134 912 902 1016 1150 1180 1160 1180 1362 1351 1329 1351 1148 1217 951 1021 1014 995
1084 1119 1059 934 845 717 667 642 606 502 497 641 818 1003 1101 1148 1215 1168 1142 1208 1361 1450 1352 1336 1271 903 851 891 993 1118 1161 1098 1141 1386 1339 1108 1347 986 1217 911 1000 908 830
1153 1178 1170 1044 1000 875 851 821 671 523 514 594 761 933 1098 1149 1166 1113 1177 1302 1334 1375 1333 1210 941 689 730 836 946 1028 1034 1006 1343 1344 1260 1162 1105 746 616 567 617 687 684
1294 1267 1359 1183 1157 1054 992 946 732 559 576 707 853 1006 1131 1205 1174 1220 1283 1358 1347 1353 1276 871 594 591 707 805 824 839 830 901 1097 1254 1205 985 568 378 342 357 346 348 362
1225 1283 1363 1494 1348 1174 1108 1048 869 682 625 698 860 988 1112 1188 1191 1233 1337 1399 1487 1459 1123 566 514 608 708 728 622 626 651 689 1095 1050 1012 858 429 136 35 177 187 197 148
1202 1292 1328 1489 1579 1520 1427 1151 1007 855 721 697 816 951 1019 1070 1163 1056 1193 1348 1364 1297 979 565 485 622 690 638 549 501 496 499 952 854 867 804 215 252 271 180 150 150 95
1070 1297 1383 1387 1441 1554 1454 1386 1139 1035 893 791 852 941 1028 1341 1368 1153 1205 1140 1117 1057 789 567 482 572 626 601 549 354 346 871 909 854 709 348 178 111 23 25 42 94 82
840 1014 1269 1404 1397 1376 1250 1328 1530 1448 1309 1200 1176 1207 1417 1482 1514 1412 1258 1038 1068 933 731 562 513 456 537 711 665 356 621 615 750 817 724 266 136 94 77 77 58 129 71
875 1033 1136 1224 1319 1172 1122 1172 1373 1457 1321 1345 1329 1365 1365 1331 1363 1402 1531 1307 1351 992 1012 745 658 723 421 354 695 750 571 406 616 707 603 161 114 132 115 237 287 185 107
424 667 1028 1164 1155 1147 1148 1107 1114 1028 1088 1115 1171 1200 1119 1097 1241 1339 1365 1490 1443 1262 1121 930 806 416 571 394 439 578 564 523 410 465 453 149 140 129 192 157 280 225 87
713 346 722 862 995 957 1109 1087 1062 893 956 1091 1141 1221 1146 1030 997 1134 1245 1297 1345 1222 1013 665 503 495 441 243 144 138 165 246 315 349 452 92 79 138 143 333 242 186 98
984 522 562 739 958 1036 1089 996 890 909 911 1002 1070 1168 1228 1176 965 910 1017 1079 1095 1098 920 750 393 371 395 204 28 11 20 55 76 139 259 270 69 81 112 214 157 83 101
489 1221 560 553 906 1018 1077 960 778 808 792 905 862 1067 1162 1098 957 768 792 916 960 915 836 576 176 73 265 36 5 4 25 32 30 35 109 240 220 34 66 79 134 116 61
16 1525 1241 705 706 920 1107 1072 749 707 675 634 532 648 814 906 868 760 686 771 766 617 494 282 74 80 216 162 114 29 7 14 30 19 17 53 152 197 80 64 67 84 60
0 1035 1535 1221 757 682 1033 1077 937 653 483 467 456 462 567 754 723 647 674 622 581 570 410 256 89 112 14 0 55 54 1 0 16 13 0 6 38 45 80 53 72 60 51
0 638 1655 1614 1330 841 962 1047 897 733 672 651 476 481 501 601 608 744 652 471 471 466 391 268 186 29 22 1 1 1 2 3 6 25 8 16 41 63 94 131 201 73 31
0 1 1604 1967 1656 1325 986 948 819 486 538 598 625 643 613 664 625 787 638 474 396 414 354 252 158 59 36 18 2 2 4 6 9 3 18 14 38 81 130 134 165 71 14
0 0 3 1130 2123 1736 1505 1428 1231 1096 932 761 676 654 680 673 568 572 544 405 314 390 331 218 139 74 49 36 49 24 1 1 1 17 23 25 52 123 92 93 45 44 70
0 0 0 0 617 2064 2105 1988 1557 1572 1307 1087 892 715 674 708 649 561 524 428 329 385 354 235 178 237 123 30 83 100 7 22 0 1 6 33 48 46 49 54 36 13 49
0 1 0 0 0 391 1718 2156 1883 1691 1592 1562 1326 1061 846 844 866 702 525 481 414 466 457 354 299 393 168 42 16 52 47 5 5 8 2 10 23 42 7 19 34 4 51
1 1 1 0 0 0 333 1520 1857 1770 1977 1880 1522 1256 1087 969 989 806 648 512 510 511 476 297 299 311 125 51 16 12 22 2 4 14 22 6 10 11 25 8 23 15 39
1 1 1 1 1 2 1 46 658 1585 1790 1576 1583 1414 1192 1022 774 750 608 569 471 384 401 267 415 318 131 52 37 15 12 7 1 7 0 12 3 5 13 17 9 6 2